Wetterdaten: Samstag, 25.06.2016
Datum Zeit Temp. A. Feuchte A. Luftdruck Regen Wind Richtung Richtung Sonnenschein ET UV Solar Taupunkt Windchill Windben Empfang
25.06.2016 00:00 21,8 C 81 % 1011,0 hPa 0,0 l/m 4,0 km/h (1 Bft) S-SO 157 0 min 0,000 mm 0,0 UV-I 0 W/m 18,4 C 21,8 C 4,8 km/h (1 Bft) 100,00 %
25.06.2016 00:02 21,6 C 82 % 1011,0 hPa 0,0 l/m 3,7 km/h (1 Bft) S 186 0 min 0,000 mm 0,0 UV-I 0 W/m 18,4 C 21,6 C 6,4 km/h (2 Bft) 95,12 %
25.06.2016 00:04 21,4 C 82 % 1011,0 hPa 0,0 l/m 4,8 km/h (1 Bft) S-SW 197 0 min 0,000 mm 0,0 UV-I 0 W/m 18,2 C 21,4 C 6,4 km/h (2 Bft) 100,00 %
25.06.2016 00:06 21,4 C 82 % 1011,0 hPa 0,0 l/m 4,6 km/h (1 Bft) S-SW 197 0 min 0,000 mm 0,0 UV-I 0 W/m 18,2 C 21,4 C 6,4 km/h (2 Bft) 100,00 %
25.06.2016 00:08 21,4 C 82 % 1011,0 hPa 0,0 l/m 4,2 km/h (1 Bft) S-SW 197 0 min 0,000 mm 0,0 UV-I 0 W/m 18,2 C 21,4 C 4,8 km/h (1 Bft) 98,00 %
25.06.2016 00:10 21,4 C 83 % 1011,0 hPa 0,0 l/m 2,4 km/h (1 Bft) S-SW 197 0 min 0,000 mm 0,0 UV-I 0 W/m 18,4 C 21,4 C 3,2 km/h (1 Bft) 96,00 %
25.06.2016 00:12 21,4 C 82 % 1011,0 hPa 0,0 l/m 1,7 km/h (1 Bft) S-SW 197 0 min 0,000 mm 0,0 UV-I 0 W/m 18,2 C 21,4 C 3,2 km/h (1 Bft) 97,56 %
25.06.2016 00:14 21,4 C 82 % 1010,9 hPa 0,0 l/m 0,5 km/h (0 Bft) S-SW 197 0 min 0,000 mm 0,0 UV-I 0 W/m 18,2 C 21,4 C 1,6 km/h (1 Bft) 98,00 %
25.06.2016 00:16 21,4 C 82 % 1010,9 hPa 0,0 l/m 0,7 km/h (0 Bft) S-SW 197 0 min 0,000 mm 0,0 UV-I 0 W/m 18,2 C 21,4 C 1,6 km/h (1 Bft) 97,87 %
25.06.2016 00:18 21,3 C 81 % 1010,9 hPa 0,0 l/m 2,2 km/h (1 Bft) S-SW 196 0 min 0,000 mm 0,0 UV-I 0 W/m 17,9 C 21,3 C 4,8 km/h (1 Bft) 96,00 %
25.06.2016 00:20 21,4 C 80 % 1010,9 hPa 0,0 l/m 4,1 km/h (1 Bft) S-SO 153 0 min 0,000 mm 0,0 UV-I 0 W/m 17,8 C 21,4 C 6,4 km/h (2 Bft) 98,00 %
25.06.2016 00:22 21,5 C 80 % 1010,9 hPa 0,0 l/m 2,4 km/h (1 Bft) S-SO 153 0 min 0,000 mm 0,0 UV-I 0 W/m 17,9 C 21,5 C 4,8 km/h (1 Bft) 97,22 %
25.06.2016 00:24 21,6 C 80 % 1010,8 hPa 0,0 l/m 1,1 km/h (1 Bft) S 179 0 min 0,000 mm 0,0 UV-I 0 W/m 18,0 C 21,6 C 3,2 km/h (1 Bft) 98,00 %
25.06.2016 00:26 21,7 C 81 % 1010,8 hPa 0,0 l/m 0,0 km/h (0 Bft) S 179 0 min 0,000 mm 0,0 UV-I 0 W/m 18,3 C 21,7 C 0,0 km/h (0 Bft) 98,00 %
25.06.2016 00:28 21,6 C 81 % 1010,8 hPa 0,0 l/m 0,2 km/h (0 Bft) S 179 0 min 0,000 mm 0,0 UV-I 0 W/m 18,2 C 21,6 C 1,6 km/h (1 Bft) 97,56 %
25.06.2016 00:30 21,5 C 81 % 1010,9 hPa 0,0 l/m 0,4 km/h (0 Bft) S 179 0 min 0,000 mm 0,0 UV-I 0 W/m 18,1 C 21,5 C 1,6 km/h (1 Bft) 98,11 %
25.06.2016 00:32 21,4 C 81 % 1010,9 hPa 0,0 l/m 0,4 km/h (0 Bft) S 179 0 min 0,000 mm 0,0 UV-I 0 W/m 18,0 C 21,4 C 1,6 km/h (1 Bft) 96,00 %
25.06.2016 00:34 21,4 C 81 % 1010,8 hPa 0,0 l/m 0,0 km/h (0 Bft) S 179 0 min 0,000 mm 0,0 UV-I 0 W/m 18,0 C 21,4 C 0,0 km/h (0 Bft) 100,00 %
25.06.2016 00:36 21,5 C 81 % 1011,0 hPa 0,0 l/m 0,0 km/h (0 Bft) S 179 0 min 0,000 mm 0,0 UV-I 0 W/m 18,1 C 21,5 C 0,0 km/h (0 Bft) 95,74 %
25.06.2016 00:38 21,6 C 81 % 1011,0 hPa 0,0 l/m 0,5 km/h (0 Bft) S 179 0 min 0,000 mm 0,0 UV-I 0 W/m 18,2 C 21,6 C 1,6 km/h (1 Bft) 98,00 %
25.06.2016 00:40 21,6 C 82 % 1011,0 hPa 0,0 l/m 0,4 km/h (0 Bft) S 179 0 min 0,000 mm 0,0 UV-I 0 W/m 18,4 C 21,6 C 3,2 km/h (1 Bft) 97,87 %
25.06.2016 00:42 21,5 C 82 % 1011,0 hPa 0,0 l/m 3,4 km/h (1 Bft) SO 130 0 min 0,000 mm 0,0 UV-I 0 W/m 18,3 C 21,5 C 4,8 km/h (1 Bft) 100,00 %
25.06.2016 00:44 21,4 C 81 % 1011,0 hPa 0,0 l/m 1,7 km/h (1 Bft) SO 130 0 min 0,000 mm 0,0 UV-I 0 W/m 18,0 C 21,4 C 3,2 km/h (1 Bft) 100,00 %
25.06.2016 00:46 21,4 C 80 % 1011,0 hPa 0,0 l/m 0,8 km/h (0 Bft) SO 130 0 min 0,000 mm 0,0 UV-I 0 W/m 17,8 C 21,4 C 1,6 km/h (1 Bft) 98,00 %
25.06.2016 00:48 21,5 C 81 % 1011,0 hPa 0,0 l/m 0,4 km/h (0 Bft) SO 130 0 min 0,000 mm 0,0 UV-I 0 W/m 18,1 C 21,5 C 3,2 km/h (1 Bft) 100,00 %
25.06.2016 00:50 21,4 C 81 % 1011,0 hPa 0,0 l/m 0,7 km/h (0 Bft) SO 130 0 min 0,000 mm 0,0 UV-I 0 W/m 18,0 C 21,4 C 3,2 km/h (1 Bft) 98,00 %
25.06.2016 00:52 21,3 C 81 % 1011,0 hPa 0,0 l/m 0,0 km/h (0 Bft) SO 130 0 min 0,000 mm 0,0 UV-I 0 W/m 17,9 C 21,3 C 0,0 km/h (0 Bft) 100,00 %
25.06.2016 00:54 21,3 C 81 % 1011,0 hPa 0,0 l/m 0,4 km/h (0 Bft) SO 130 0 min 0,000 mm 0,0 UV-I 0 W/m 17,9 C 21,3 C 1,6 km/h (1 Bft) 97,87 %
25.06.2016 00:56 21,3 C 81 % 1011,0 hPa 0,0 l/m 1,1 km/h (1 Bft) SO 130 0 min 0,000 mm 0,0 UV-I 0 W/m 17,9 C 21,3 C 3,2 km/h (1 Bft) 94,74 %
25.06.2016 00:58 21,3 C 81 % 1011,0 hPa 0,0 l/m 3,3 km/h (1 Bft) N-NW 338 0 min 0,000 mm 0,0 UV-I 0 W/m 17,9 C 21,3 C 4,8 km/h (1 Bft) 100,00 %
25.06.2016 01:00 21,2 C 81 % 1011,0 hPa 0,0 l/m 2,8 km/h (1 Bft) NW 318 0 min 0,000 mm 0,0 UV-I 0 W/m 17,8 C 21,2 C 4,8 km/h (1 Bft) 100,00 %
25.06.2016 01:02 21,2 C 81 % 1010,9 hPa 0,0 l/m 0,5 km/h (0 Bft) NW 318 0 min 0,000 mm 0,0 UV-I 0 W/m 17,8 C 21,2 C 3,2 km/h (1 Bft) 100,00 %
25.06.2016 01:04 21,2 C 81 % 1010,9 hPa 0,0 l/m 1,0 km/h (0 Bft) NW 318 0 min 0,000 mm 0,0 UV-I 0 W/m 17,8 C 21,2 C 1,6 km/h (1 Bft) 100,00 %
25.06.2016 01:06 21,2 C 81 % 1010,9 hPa 0,0 l/m 0,0 km/h (0 Bft) NW 318 0 min 0,000 mm 0,0 UV-I 0 W/m 17,8 C 21,2 C 0,0 km/h (0 Bft) 100,00 %
25.06.2016 01:08 21,2 C 82 % 1010,9 hPa 0,0 l/m 0,8 km/h (0 Bft) SW 226 0 min 0,000 mm 0,0 UV-I 0 W/m 18,0 C 21,2 C 3,2 km/h (1 Bft) 100,00 %
25.06.2016 01:10 21,2 C 82 % 1010,9 hPa 0,0 l/m 1,7 km/h (1 Bft) SW 226 0 min 0,000 mm 0,0 UV-I 0 W/m 18,0 C 21,2 C 3,2 km/h (1 Bft) 100,00 %
25.06.2016 01:12 21,2 C 82 % 1010,9 hPa 0,0 l/m 1,9 km/h (1 Bft) SW 226 0 min 0,000 mm 0,0 UV-I 0 W/m 18,0 C 21,2 C 3,2 km/h (1 Bft) 97,56 %
25.06.2016 01:14 21,2 C 82 % 1010,9 hPa 0,0 l/m 2,1 km/h (1 Bft) SW 226 0 min 0,000 mm 0,0 UV-I 0 W/m 18,0 C 21,2 C 3,2 km/h (1 Bft) 100,00 %
25.06.2016 01:16 21,1 C 82 % 1010,9 hPa 0,0 l/m 1,5 km/h (1 Bft) SW 226 0 min 0,000 mm 0,0 UV-I 0 W/m 17,9 C 21,1 C 3,2 km/h (1 Bft) 100,00 %
25.06.2016 01:18 21,1 C 83 % 1010,9 hPa 0,0 l/m 3,1 km/h (1 Bft) S-SO 155 0 min 0,000 mm 0,0 UV-I 0 W/m 18,1 C 21,1 C 8,0 km/h (2 Bft) 100,00 %
25.06.2016 01:20 21,1 C 83 % 1010,8 hPa 0,0 l/m 4,7 km/h (1 Bft) S-SO 151 0 min 0,000 mm 0,0 UV-I 0 W/m 18,1 C 21,1 C 6,4 km/h (2 Bft) 100,00 %
25.06.2016 01:22 21,0 C 83 % 1010,9 hPa 0,0 l/m 2,4 km/h (1 Bft) S-SO 151 0 min 0,000 mm 0,0 UV-I 0 W/m 18,0 C 21,0 C 4,8 km/h (1 Bft) 97,87 %
25.06.2016 01:24 20,9 C 83 % 1010,9 hPa 0,0 l/m 0,0 km/h (0 Bft) S-SO 151 0 min 0,000 mm 0,0 UV-I 0 W/m 17,9 C 20,9 C 0,0 km/h (0 Bft) 100,00 %
25.06.2016 01:26 20,9 C 83 % 1010,9 hPa 0,0 l/m 0,4 km/h (0 Bft) S-SO 151 0 min 0,000 mm 0,0 UV-I 0 W/m 17,9 C 20,9 C 1,6 km/h (1 Bft) 100,00 %
25.06.2016 01:28 20,9 C 83 % 1010,9 hPa 0,0 l/m 1,0 km/h (0 Bft) S-SO 151 0 min 0,000 mm 0,0 UV-I 0 W/m 17,9 C 20,9 C 1,6 km/h (1 Bft) 100,00 %
25.06.2016 01:30 20,9 C 83 % 1010,9 hPa 0,0 l/m 0,8 km/h (0 Bft) S-SO 151 0 min 0,000 mm 0,0 UV-I 0 W/m 17,9 C 20,9 C 1,6 km/h (1 Bft) 100,00 %
25.06.2016 01:32 20,8 C 83 % 1010,9 hPa 0,0 l/m 0,0 km/h (0 Bft) S-SO 151 0 min 0,000 mm 0,0 UV-I 0 W/m 17,8 C 20,8 C 0,0 km/h (0 Bft) 100,00 %
25.06.2016 01:34 20,8 C 84 % 1010,8 hPa 0,0 l/m 1,1 km/h (1 Bft) S-SO 151 0 min 0,000 mm 0,0 UV-I 0 W/m 18,0 C 20,8 C 3,2 km/h (1 Bft) 100,00 %
25.06.2016 01:36 20,7 C 84 % 1010,8 hPa 0,0 l/m 3,0 km/h (1 Bft) S-SO 151 0 min 0,000 mm 0,0 UV-I 0 W/m 17,9 C 20,7 C 3,2 km/h (1 Bft) 97,87 %
25.06.2016 01:38 20,6 C 84 % 1010,8 hPa 0,0 l/m 1,6 km/h (1 Bft) S-SO 151 0 min 0,000 mm 0,0 UV-I 0 W/m 17,8 C 20,6 C 3,2 km/h (1 Bft) 100,00 %
25.06.2016 01:40 20,6 C 84 % 1010,9 hPa 0,0 l/m 0,7 km/h (0 Bft) S-SO 151 0 min 0,000 mm 0,0 UV-I 0 W/m 17,8 C 20,6 C 1,6 km/h (1 Bft) 97,73 %
25.06.2016 01:42 20,5 C 84 % 1010,9 hPa 0,0 l/m 0,3 km/h (0 Bft) S-SO 151 0 min 0,000 mm 0,0 UV-I 0 W/m 17,7 C 20,5 C 1,6 km/h (1 Bft) 95,12 %
25.06.2016 01:44 20,5 C 85 % 1010,9 hPa 0,0 l/m 3,6 km/h (1 Bft) S-SO 151 0 min 0,000 mm 0,0 UV-I 0 W/m 17,9 C 20,5 C 4,8 km/h (1 Bft) 100,00 %
25.06.2016 01:46 20,4 C 85 % 1010,9 hPa 0,0 l/m 3,4 km/h (1 Bft) S-SO 151 0 min 0,000 mm 0,0 UV-I 0 W/m 17,8 C 20,4 C 4,8 km/h (1 Bft) 100,00 %
25.06.2016 01:48 20,4 C 85 % 1010,9 hPa 0,0 l/m 1,3 km/h (1 Bft) S-SO 151 0 min 0,000 mm 0,0 UV-I 0 W/m 17,8 C 20,4 C 3,2 km/h (1 Bft) 100,00 %
25.06.2016 01:50 20,3 C 85 % 1010,8 hPa 0,0 l/m 0,0 km/h (0 Bft) S-SO 151 0 min 0,000 mm 0,0 UV-I 0 W/m 17,7 C 20,3 C 0,0 km/h (0 Bft) 100,00 %
25.06.2016 01:52 20,3 C 85 % 1010,9 hPa 0,0 l/m 0,8 km/h (0 Bft) S-SO 151 0 min 0,000 mm 0,0 UV-I 0 W/m 17,7 C 20,3 C 1,6 km/h (1 Bft) 97,56 %
25.06.2016 01:54 20,4 C 85 % 1010,9 hPa 0,0 l/m 0,7 km/h (0 Bft) S-SO 151 0 min 0,000 mm 0,0 UV-I 0 W/m 17,8 C 20,4 C 1,6 km/h (1 Bft) 100,00 %
25.06.2016 01:56 20,4 C 85 % 1010,9 hPa 0,0 l/m 1,2 km/h (1 Bft) S-SO 151 0 min 0,000 mm 0,0 UV-I 0 W/m 17,8 C 20,4 C 3,2 km/h (1 Bft) 100,00 %
25.06.2016 01:58 20,3 C 85 % 1010,9 hPa 0,0 l/m 2,5 km/h (1 Bft) S-SO 151 0 min 0,000 mm 0,0 UV-I 0 W/m 17,7 C 20,3 C 3,2 km/h (1 Bft) 98,00 %
25.06.2016 02:00 20,3 C 85 % 1010,9 hPa 0,0 l/m 2,1 km/h (1 Bft) S-SO 151 0 min 0,000 mm 0,0 UV-I 0 W/m 17,7 C 20,3 C 3,2 km/h (1 Bft) 100,00 %
25.06.2016 02:02 20,2 C 86 % 1010,8 hPa 0,0 l/m 2,6 km/h (1 Bft) S-SO 151 0 min 0,000 mm 0,0 UV-I 0 W/m 17,8 C 20,2 C 3,2 km/h (1 Bft) 100,00 %
25.06.2016 02:04 20,2 C 86 % 1010,8 hPa 0,0 l/m 2,3 km/h (1 Bft) S-SO 151 0 min 0,000 mm 0,0 UV-I 0 W/m 17,8 C 20,2 C 3,2 km/h (1 Bft) 95,74 %
25.06.2016 02:06 20,2 C 86 % 1010,7 hPa 0,0 l/m 1,3 km/h (1 Bft) S-SO 151 0 min 0,000 mm 0,0 UV-I 0 W/m 17,8 C 20,2 C 3,2 km/h (1 Bft) 100,00 %
25.06.2016 02:08 20,2 C 86 % 1010,7 hPa 0,0 l/m 0,0 km/h (0 Bft) S-SO 151 0 min 0,000 mm 0,0 UV-I 0 W/m 17,8 C 20,2 C 0,0 km/h (0 Bft) 97,78 %
25.06.2016 02:10 20,2 C 86 % 1010,7 hPa 0,0 l/m 0,7 km/h (0 Bft) S-SO 151 0 min 0,000 mm 0,0 UV-I 0 W/m 17,8 C 20,2 C 1,6 km/h (1 Bft) 97,87 %
25.06.2016 02:12 20,1 C 86 % 1010,6 hPa 0,0 l/m 1,5 km/h (1 Bft) S-SO 151 0 min 0,000 mm 0,0 UV-I 0 W/m 17,7 C 20,1 C 1,6 km/h (1 Bft) 95,12 %
25.06.2016 02:14 20,1 C 86 % 1010,7 hPa 0,0 l/m 1,7 km/h (1 Bft) S-SO 151 0 min 0,000 mm 0,0 UV-I 0 W/m 17,7 C 20,1 C 3,2 km/h (1 Bft) 97,87 %
25.06.2016 02:16 20,1 C 86 % 1010,7 hPa 0,0 l/m 3,0 km/h (1 Bft) S-SO 152 0 min 0,000 mm 0,0 UV-I 0 W/m 17,7 C 20,1 C 4,8 km/h (1 Bft) 94,34 %
25.06.2016 02:18 20,1 C 86 % 1010,7 hPa 0,0 l/m 3,2 km/h (1 Bft) S-SO 152 0 min 0,000 mm 0,0 UV-I 0 W/m 17,7 C 20,1 C 4,8 km/h (1 Bft) 100,00 %
25.06.2016 02:20 20,0 C 86 % 1010,7 hPa 0,0 l/m 3,0 km/h (1 Bft) S-SO 152 0 min 0,000 mm 0,0 UV-I 0 W/m 17,6 C 20,0 C 4,8 km/h (1 Bft) 96,00 %
25.06.2016 02:22 20,0 C 87 % 1010,8 hPa 0,0 l/m 2,7 km/h (1 Bft) S-SO 152 0 min 0,000 mm 0,0 UV-I 0 W/m 17,8 C 20,0 C 4,8 km/h (1 Bft) 95,45 %
25.06.2016 02:24 19,9 C 87 % 1010,8 hPa 0,0 l/m 2,5 km/h (1 Bft) S-SO 152 0 min 0,000 mm 0,0 UV-I 0 W/m 17,7 C 19,9 C 3,2 km/h (1 Bft) 96,00 %
25.06.2016 02:26 19,9 C 87 % 1010,8 hPa 0,0 l/m 3,5 km/h (1 Bft) S 178 0 min 0,000 mm 0,0 UV-I 0 W/m 17,7 C 19,9 C 4,8 km/h (1 Bft) 95,74 %
25.06.2016 02:28 19,9 C 87 % 1010,8 hPa 0,0 l/m 2,6 km/h (1 Bft) S 178 0 min 0,000 mm 0,0 UV-I 0 W/m 17,7 C 19,9 C 4,8 km/h (1 Bft) 98,00 %
25.06.2016 02:30 19,9 C 87 % 1010,8 hPa 0,0 l/m 1,9 km/h (1 Bft) S 178 0 min 0,000 mm 0,0 UV-I 0 W/m 17,7 C 19,9 C 3,2 km/h (1 Bft) 97,56 %
25.06.2016 02:32 20,0 C 86 % 1010,8 hPa 0,0 l/m 1,3 km/h (1 Bft) S 178 0 min 0,000 mm 0,0 UV-I 0 W/m 17,6 C 20,0 C 3,2 km/h (1 Bft) 97,87 %
25.06.2016 02:34 20,0 C 87 % 1010,8 hPa 0,0 l/m 1,3 km/h (1 Bft) S 178 0 min 0,000 mm 0,0 UV-I 0 W/m 17,8 C 20,0 C 3,2 km/h (1 Bft) 94,00 %
25.06.2016 02:36 20,0 C 87 % 1010,7 hPa 0,0 l/m 0,3 km/h (0 Bft) S 178 0 min 0,000 mm 0,0 UV-I 0 W/m 17,8 C 20,0 C 1,6 km/h (1 Bft) 97,73 %
25.06.2016 02:38 20,1 C 87 % 1010,7 hPa 0,0 l/m 1,1 km/h (1 Bft) S 178 0 min 0,000 mm 0,0 UV-I 0 W/m 17,9 C 20,1 C 1,6 km/h (1 Bft) 95,74 %
25.06.2016 02:40 20,1 C 86 % 1010,7 hPa 0,0 l/m 1,2 km/h (1 Bft) S 178 0 min 0,000 mm 0,0 UV-I 0 W/m 17,7 C 20,1 C 1,6 km/h (1 Bft) 98,00 %
25.06.2016 02:42 20,1 C 86 % 1010,7 hPa 0,0 l/m 1,7 km/h (1 Bft) S 178 0 min 0,000 mm 0,0 UV-I 0 W/m 17,7 C 20,1 C 3,2 km/h (1 Bft) 94,87 %
25.06.2016 02:44 20,2 C 86 % 1010,7 hPa 0,0 l/m 2,4 km/h (1 Bft) S 178 0 min 0,000 mm 0,0 UV-I 0 W/m 17,8 C 20,2 C 3,2 km/h (1 Bft) 100,00 %
25.06.2016 02:46 20,2 C 86 % 1010,6 hPa 0,0 l/m 2,1 km/h (1 Bft) S 178 0 min 0,000 mm 0,0 UV-I 0 W/m 17,8 C 20,2 C 3,2 km/h (1 Bft) 100,00 %
25.06.2016 02:48 20,2 C 86 % 1010,6 hPa 0,0 l/m 1,4 km/h (1 Bft) S 178 0 min 0,000 mm 0,0 UV-I 0 W/m 17,8 C 20,2 C 3,2 km/h (1 Bft) 100,00 %
25.06.2016 02:50 20,1 C 86 % 1010,6 hPa 0,0 l/m 1,9 km/h (1 Bft) S 178 0 min 0,000 mm 0,0 UV-I 0 W/m 17,7 C 20,1 C 3,2 km/h (1 Bft) 100,00 %
25.06.2016 02:52 20,2 C 86 % 1010,6 hPa 0,0 l/m 2,7 km/h (1 Bft) S 178 0 min 0,000 mm 0,0 UV-I 0 W/m 17,8 C 20,2 C 3,2 km/h (1 Bft) 97,87 %
25.06.2016 02:54 20,2 C 86 % 1010,5 hPa 0,0 l/m 3,4 km/h (1 Bft) S 178 0 min 0,000 mm 0,0 UV-I 0 W/m 17,8 C 20,2 C 4,8 km/h (1 Bft) 100,00 %
25.06.2016 02:56 20,2 C 86 % 1010,5 hPa 0,0 l/m 3,6 km/h (1 Bft) S 182 0 min 0,000 mm 0,0 UV-I 0 W/m 17,8 C 20,2 C 4,8 km/h (1 Bft) 98,11 %
25.06.2016 02:58 20,2 C 86 % 1010,5 hPa 0,0 l/m 3,0 km/h (1 Bft) S 182 0 min 0,000 mm 0,0 UV-I 0 W/m 17,8 C 20,2 C 4,8 km/h (1 Bft) 100,00 %
25.06.2016 03:00 20,1 C 86 % 1010,5 hPa 0,0 l/m 2,8 km/h (1 Bft) S 182 0 min 0,000 mm 0,0 UV-I 0 W/m 17,7 C 20,1 C 4,8 km/h (1 Bft) 100,00 %
25.06.2016 03:02 20,1 C 86 % 1010,4 hPa 0,0 l/m 2,2 km/h (1 Bft) S 182 0 min 0,000 mm 0,0 UV-I 0 W/m 17,7 C 20,1 C 3,2 km/h (1 Bft) 100,00 %
25.06.2016 03:04 20,0 C 86 % 1010,4 hPa 0,0 l/m 2,3 km/h (1 Bft) S 182 0 min 0,000 mm 0,0 UV-I 0 W/m 17,6 C 20,0 C 3,2 km/h (1 Bft) 100,00 %
25.06.2016 03:06 19,9 C 86 % 1010,3 hPa 0,0 l/m 2,0 km/h (1 Bft) S 182 0 min 0,000 mm 0,0 UV-I 0 W/m 17,5 C 19,9 C 3,2 km/h (1 Bft) 100,00 %
25.06.2016 03:08 19,9 C 87 % 1010,3 hPa 0,0 l/m 0,3 km/h (0 Bft) S 182 0 min 0,000 mm 0,0 UV-I 0 W/m 17,7 C 19,9 C 1,6 km/h (1 Bft) 100,00 %
25.06.2016 03:10 19,9 C 87 % 1010,3 hPa 0,0 l/m 1,2 km/h (1 Bft) S 182 0 min 0,000 mm 0,0 UV-I 0 W/m 17,7 C 19,9 C 3,2 km/h (1 Bft) 98,11 %
25.06.2016 03:12 19,9 C 87 % 1010,3 hPa 0,0 l/m 1,6 km/h (1 Bft) S 182 0 min 0,000 mm 0,0 UV-I 0 W/m 17,7 C 19,9 C 3,2 km/h (1 Bft) 100,00 %
25.06.2016 03:14 19,9 C 87 % 1010,2 hPa 0,0 l/m 2,3 km/h (1 Bft) S 182 0 min 0,000 mm 0,0 UV-I 0 W/m 17,7 C 19,9 C 3,2 km/h (1 Bft) 94,74 %
25.06.2016 03:16 19,9 C 87 % 1010,2 hPa 0,0 l/m 0,2 km/h (0 Bft) S 182 0 min 0,000 mm 0,0 UV-I 0 W/m 17,7 C 19,9 C 1,6 km/h (1 Bft) 100,00 %
25.06.2016 03:18 19,9 C 87 % 1010,3 hPa 0,0 l/m 0,3 km/h (0 Bft) S 182 0 min 0,000 mm 0,0 UV-I 0 W/m 17,7 C 19,9 C 1,6 km/h (1 Bft) 100,00 %
25.06.2016 03:20 19,9 C 87 % 1010,2 hPa 0,0 l/m 0,3 km/h (0 Bft) S 182 0 min 0,000 mm 0,0 UV-I 0 W/m 17,7 C 19,9 C 1,6 km/h (1 Bft) 100,00 %
25.06.2016 03:22 19,9 C 87 % 1010,2 hPa 0,0 l/m 0,0 km/h (0 Bft) S 182 0 min 0,000 mm 0,0 UV-I 0 W/m 17,7 C 19,9 C 1,6 km/h (1 Bft) 98,00 %
25.06.2016 03:24 19,9 C 87 % 1010,2 hPa 0,0 l/m 0,0 km/h (0 Bft) S 182 0 min 0,000 mm 0,0 UV-I 0 W/m 17,7 C 19,9 C 0,0 km/h (0 Bft) 98,00 %
25.06.2016 03:26 19,9 C 87 % 1010,2 hPa 0,0 l/m 0,0 km/h (0 Bft) S 182 0 min 0,000 mm 0,0 UV-I 0 W/m 17,7 C 19,9 C 0,0 km/h (0 Bft) 100,00 %
25.06.2016 03:28 19,9 C 87 % 1010,2 hPa 0,0 l/m 0,0 km/h (0 Bft) S 182 0 min 0,000 mm 0,0 UV-I 0 W/m 17,7 C 19,9 C 1,6 km/h (1 Bft) 100,00 %
25.06.2016 03:30 19,8 C 87 % 1010,2 hPa 0,0 l/m 0,0 km/h (0 Bft) S 182 0 min 0,000 mm 0,0 UV-I 0 W/m 17,6 C 19,8 C 1,6 km/h (1 Bft) 100,00 %
25.06.2016 03:32 19,8 C 87 % 1010,2 hPa 0,0 l/m 1,6 km/h (1 Bft) S 182 0 min 0,000 mm 0,0 UV-I 0 W/m 17,6 C 19,8 C 3,2 km/h (1 Bft) 100,00 %
25.06.2016 03:34 19,7 C 88 % 1010,2 hPa 0,0 l/m 0,7 km/h (0 Bft) S 182 0 min 0,000 mm 0,0 UV-I 0 W/m 17,7 C 19,7 C 3,2 km/h (1 Bft) 97,37 %
25.06.2016 03:36 19,7 C 88 % 1010,2 hPa 0,0 l/m 2,8 km/h (1 Bft) S 182 0 min 0,000 mm 0,0 UV-I 0 W/m 17,7 C 19,7 C 3,2 km/h (1 Bft) 100,00 %
25.06.2016 03:38 19,7 C 88 % 1010,2 hPa 0,0 l/m 3,3 km/h (1 Bft) S 182 0 min 0,000 mm 0,0 UV-I 0 W/m 17,7 C 19,7 C 4,8 km/h (1 Bft) 100,00 %
25.06.2016 03:40 19,6 C 87 % 1010,2 hPa 0,0 l/m 3,2 km/h (1 Bft) S 185 0 min 0,000 mm 0,0 UV-I 0 W/m 17,4 C 19,6 C 4,8 km/h (1 Bft) 100,00 %
25.06.2016 03:42 19,6 C 88 % 1010,2 hPa 0,0 l/m 2,7 km/h (1 Bft) S 185 0 min 0,000 mm 0,0 UV-I 0 W/m 17,6 C 19,6 C 4,8 km/h (1 Bft) 100,00 %
25.06.2016 03:44 19,4 C 88 % 1010,3 hPa 0,0 l/m 2,2 km/h (1 Bft) S 185 0 min 0,000 mm 0,0 UV-I 0 W/m 17,4 C 19,4 C 4,8 km/h (1 Bft) 100,00 %
25.06.2016 03:46 19,4 C 88 % 1010,3 hPa 0,0 l/m 2,3 km/h (1 Bft) S 185 0 min 0,000 mm 0,0 UV-I 0 W/m 17,4 C 19,4 C 4,8 km/h (1 Bft) 100,00 %
25.06.2016 03:48 19,3 C 89 % 1010,3 hPa 0,0 l/m 1,2 km/h (1 Bft) S 185 0 min 0,000 mm 0,0 UV-I 0 W/m 17,4 C 19,3 C 3,2 km/h (1 Bft) 97,37 %
25.06.2016 03:50 19,3 C 89 % 1010,3 hPa 0,0 l/m 0,6 km/h (0 Bft) S 185 0 min 0,000 mm 0,0 UV-I 0 W/m 17,4 C 19,3 C 1,6 km/h (1 Bft) 100,00 %
25.06.2016 03:52 19,3 C 89 % 1010,3 hPa 0,0 l/m 0,4 km/h (0 Bft) S 185 0 min 0,000 mm 0,0 UV-I 0 W/m 17,4 C 19,3 C 1,6 km/h (1 Bft) 100,00 %
25.06.2016 03:54 19,3 C 89 % 1010,3 hPa 0,0 l/m 0,3 km/h (0 Bft) S 185 0 min 0,000 mm 0,0 UV-I 0 W/m 17,4 C 19,3 C 1,6 km/h (1 Bft) 100,00 %
25.06.2016 03:56 19,2 C 89 % 1010,3 hPa 0,0 l/m 0,5 km/h (0 Bft) S 185 0 min 0,000 mm 0,0 UV-I 0 W/m 17,3 C 19,2 C 1,6 km/h (1 Bft) 100,00 %
25.06.2016 03:58 19,2 C 89 % 1010,2 hPa 0,0 l/m 0,9 km/h (0 Bft) S 185 0 min 0,000 mm 0,0 UV-I 0 W/m 17,3 C 19,2 C 3,2 km/h (1 Bft) 100,00 %
25.06.2016 04:00 19,2 C 89 % 1010,2 hPa 0,0 l/m 1,8 km/h (1 Bft) S 185 0 min 0,000 mm 0,0 UV-I 0 W/m 17,3 C 19,2 C 3,2 km/h (1 Bft) 100,00 %
25.06.2016 04:02 19,3 C 89 % 1010,1 hPa 0,0 l/m 2,2 km/h (1 Bft) S 185 0 min 0,000 mm 0,0 UV-I 0 W/m 17,4 C 19,3 C 3,2 km/h (1 Bft) 100,00 %
25.06.2016 04:04 19,3 C 89 % 1010,2 hPa 0,0 l/m 1,2 km/h (1 Bft) S 185 0 min 0,000 mm 0,0 UV-I 0 W/m 17,4 C 19,3 C 3,2 km/h (1 Bft) 100,00 %
25.06.2016 04:06 19,3 C 89 % 1010,1 hPa 0,0 l/m 2,2 km/h (1 Bft) S 185 0 min 0,000 mm 0,0 UV-I 0 W/m 17,4 C 19,3 C 3,2 km/h (1 Bft) 100,00 %
25.06.2016 04:08 19,3 C 89 % 1010,1 hPa 0,0 l/m 2,2 km/h (1 Bft) S 185 0 min 0,000 mm 0,0 UV-I 0 W/m 17,4 C 19,3 C 3,2 km/h (1 Bft) 100,00 %
25.06.2016 04:10 19,4 C 89 % 1010,1 hPa 0,0 l/m 2,9 km/h (1 Bft) S 185 0 min 0,000 mm 0,0 UV-I 0 W/m 17,5 C 19,4 C 4,8 km/h (1 Bft) 96,00 %
25.06.2016 04:12 19,4 C 88 % 1010,1 hPa 0,0 l/m 4,2 km/h (1 Bft) S 185 0 min 0,000 mm 0,0 UV-I 0 W/m 17,4 C 19,4 C 6,4 km/h (2 Bft) 97,87 %
25.06.2016 04:14 19,4 C 88 % 1010,1 hPa 0,0 l/m 3,6 km/h (1 Bft) S 182 0 min 0,000 mm 0,0 UV-I 0 W/m 17,4 C 19,4 C 6,4 km/h (2 Bft) 97,87 %
25.06.2016 04:16 19,4 C 88 % 1010,1 hPa 0,0 l/m 3,1 km/h (1 Bft) S 182 0 min 0,000 mm 0,0 UV-I 0 W/m 17,4 C 19,4 C 4,8 km/h (1 Bft) 97,37 %
25.06.2016 04:18 19,3 C 88 % 1010,2 hPa 0,0 l/m 3,1 km/h (1 Bft) S 182 0 min 0,000 mm 0,0 UV-I 0 W/m 17,3 C 19,3 C 4,8 km/h (1 Bft) 97,87 %
25.06.2016 04:20 19,3 C 88 % 1010,1 hPa 0,0 l/m 2,6 km/h (1 Bft) S 182 0 min 0,000 mm 0,0 UV-I 0 W/m 17,3 C 19,3 C 3,2 km/h (1 Bft) 94,64 %
25.06.2016 04:22 19,3 C 88 % 1010,1 hPa 0,0 l/m 1,6 km/h (1 Bft) S 182 0 min 0,000 mm 0,0 UV-I 0 W/m 17,3 C 19,3 C 3,2 km/h (1 Bft) 97,37 %
25.06.2016 04:24 19,3 C 88 % 1010,1 hPa 0,0 l/m 2,0 km/h (1 Bft) S 182 0 min 0,000 mm 0,0 UV-I 0 W/m 17,3 C 19,3 C 3,2 km/h (1 Bft) 98,00 %
25.06.2016 04:26 19,3 C 88 % 1010,1 hPa 0,0 l/m 1,5 km/h (1 Bft) S 182 0 min 0,000 mm 0,0 UV-I 0 W/m 17,3 C 19,3 C 3,2 km/h (1 Bft) 97,87 %
25.06.2016 04:28 19,3 C 88 % 1010,0 hPa 0,0 l/m 2,2 km/h (1 Bft) S 182 0 min 0,000 mm 0,0 UV-I 0 W/m 17,3 C 19,3 C 4,8 km/h (1 Bft) 97,87 %
25.06.2016 04:30 19,3 C 88 % 1010,0 hPa 0,0 l/m 3,8 km/h (1 Bft) S 181 0 min 0,000 mm 0,0 UV-I 0 W/m 17,3 C 19,3 C 4,8 km/h (1 Bft) 96,00 %
25.06.2016 04:32 19,4 C 88 % 1010,0 hPa 0,0 l/m 4,5 km/h (1 Bft) S 188 0 min 0,000 mm 0,0 UV-I 0 W/m 17,4 C 19,4 C 6,4 km/h (2 Bft) 97,87 %
25.06.2016 04:34 19,4 C 88 % 1009,9 hPa 0,0 l/m 3,3 km/h (1 Bft) S 188 0 min 0,000 mm 0,0 UV-I 0 W/m 17,4 C 19,4 C 6,4 km/h (2 Bft) 95,12 %
25.06.2016 04:36 19,5 C 87 % 1009,9 hPa 0,0 l/m 3,7 km/h (1 Bft) S 187 0 min 0,000 mm 0,0 UV-I 0 W/m 17,3 C 19,5 C 4,8 km/h (1 Bft) 94,00 %
25.06.2016 04:38 19,6 C 87 % 1009,9 hPa 0,0 l/m 4,6 km/h (1 Bft) S 188 0 min 0,000 mm 0,0 UV-I 0 W/m 17,4 C 19,6 C 6,4 km/h (2 Bft) 97,87 %
25.06.2016 04:40 19,6 C 87 % 1009,9 hPa 0,0 l/m 5,7 km/h (1 Bft) S-SW 198 0 min 0,000 mm 0,0 UV-I 0 W/m 17,4 C 19,6 C 8,0 km/h (2 Bft) 98,00 %
25.06.2016 04:42 19,6 C 87 % 1009,9 hPa 0,0 l/m 4,7 km/h (1 Bft) S-SW 195 0 min 0,000 mm 0,0 UV-I 0 W/m 17,4 C 19,6 C 6,4 km/h (2 Bft) 97,92 %
25.06.2016 04:44 19,6 C 87 % 1009,8 hPa 0,0 l/m 3,7 km/h (1 Bft) S 186 0 min 0,000 mm 0,0 UV-I 0 W/m 17,4 C 19,6 C 6,4 km/h (2 Bft) 94,74 %
25.06.2016 04:46 19,5 C 87 % 1009,9 hPa 0,0 l/m 4,0 km/h (1 Bft) S 179 0 min 0,000 mm 0,0 UV-I 0 W/m 17,3 C 19,5 C 8,0 km/h (2 Bft) 97,87 %
25.06.2016 04:48 19,5 C 87 % 1010,0 hPa 0,0 l/m 5,4 km/h (1 Bft) S 180 0 min 0,000 mm 0,0 UV-I 0 W/m 17,3 C 19,5 C 8,0 km/h (2 Bft) 94,34 %
25.06.2016 04:50 19,5 C 87 % 1010,0 hPa 0,0 l/m 5,9 km/h (2 Bft) S-SW 196 0 min 0,000 mm 0,0 UV-I 0 W/m 17,3 C 19,5 C 8,0 km/h (2 Bft) 100,00 %
25.06.2016 04:52 19,5 C 87 % 1010,0 hPa 0,0 l/m 4,0 km/h (1 Bft) S 186 0 min 0,000 mm 0,0 UV-I 0 W/m 17,3 C 19,5 C 6,4 km/h (2 Bft) 100,00 %
25.06.2016 04:54 19,5 C 87 % 1009,9 hPa 0,0 l/m 4,5 km/h (1 Bft) S-SW 211 0 min 0,000 mm 0,0 UV-I 0 W/m 17,3 C 19,5 C 8,0 km/h (2 Bft) 100,00 %
25.06.2016 04:56 19,5 C 87 % 1009,9 hPa 0,0 l/m 3,7 km/h (1 Bft) S-SW 211 0 min 0,000 mm 0,0 UV-I 0 W/m 17,3 C 19,5 C 4,8 km/h (1 Bft) 97,37 %
25.06.2016 04:58 19,5 C 86 % 1009,8 hPa 0,0 l/m 3,8 km/h (1 Bft) S-SW 204 0 min 0,000 mm 0,0 UV-I 0 W/m 17,1 C 19,5 C 6,4 km/h (2 Bft) 100,00 %
25.06.2016 05:00 19,4 C 86 % 1009,8 hPa 0,0 l/m 4,3 km/h (1 Bft) S-SW 193 0 min 0,000 mm 0,0 UV-I 0 W/m 17,0 C 19,4 C 6,4 km/h (2 Bft) 97,87 %
25.06.2016 05:02 19,3 C 87 % 1009,8 hPa 0,0 l/m 2,7 km/h (1 Bft) S-SW 193 0 min 0,000 mm 0,0 UV-I 0 W/m 17,1 C 19,3 C 4,8 km/h (1 Bft) 100,00 %
25.06.2016 05:04 19,2 C 87 % 1009,8 hPa 0,0 l/m 4,1 km/h (1 Bft) SW 217 0 min 0,000 mm 0,0 UV-I 0 W/m 17,0 C 19,2 C 6,4 km/h (2 Bft) 100,00 %
25.06.2016 05:06 19,1 C 87 % 1009,8 hPa 0,0 l/m 4,6 km/h (1 Bft) S-SW 194 0 min 0,000 mm 0,0 UV-I 0 W/m 16,9 C 19,1 C 6,4 km/h (2 Bft) 100,00 %
25.06.2016 05:08 19,1 C 88 % 1009,7 hPa 0,0 l/m 5,7 km/h (1 Bft) S 188 0 min 0,000 mm 0,0 UV-I 5 W/m 17,1 C 19,1 C 8,0 km/h (2 Bft) 97,37 %
25.06.2016 05:10 19,2 C 88 % 1009,7 hPa 0,0 l/m 4,8 km/h (1 Bft) S-SW 203 0 min 0,000 mm 0,0 UV-I 5 W/m 17,2 C 19,2 C 8,0 km/h (2 Bft) 98,00 %
25.06.2016 05:12 19,2 C 87 % 1009,7 hPa 0,0 l/m 4,9 km/h (1 Bft) S-SW 206 0 min 0,000 mm 0,0 UV-I 5 W/m 17,0 C 19,2 C 6,4 km/h (2 Bft) 97,87 %
25.06.2016 05:14 19,2 C 87 % 1009,8 hPa 0,0 l/m 4,8 km/h (1 Bft) SW 220 0 min 0,000 mm 0,0 UV-I 7 W/m 17,0 C 19,2 C 8,0 km/h (2 Bft) 100,00 %
25.06.2016 05:16 19,2 C 87 % 1009,8 hPa 0,0 l/m 5,9 km/h (2 Bft) S-SW 202 0 min 0,000 mm 0,0 UV-I 8 W/m 17,0 C 19,2 C 8,0 km/h (2 Bft) 100,00 %
25.06.2016 05:18 19,3 C 87 % 1009,9 hPa 0,0 l/m 5,9 km/h (2 Bft) S-SW 204 2 min 0,000 mm 0,0 UV-I 9 W/m 17,1 C 19,3 C 8,0 km/h (2 Bft) 100,00 %
25.06.2016 05:20 19,3 C 87 % 1009,9 hPa 0,0 l/m 5,6 km/h (1 Bft) S-SW 211 0 min 0,000 mm 0,0 UV-I 10 W/m 17,1 C 19,3 C 6,4 km/h (2 Bft) 97,73 %
25.06.2016 05:22 19,3 C 86 % 1010,0 hPa 0,0 l/m 4,6 km/h (1 Bft) SW 218 0 min 0,000 mm 0,0 UV-I 11 W/m 16,9 C 19,3 C 6,4 km/h (2 Bft) 100,00 %
25.06.2016 05:24 19,4 C 86 % 1009,9 hPa 0,0 l/m 3,0 km/h (1 Bft) S-SW 202 0 min 0,000 mm 0,0 UV-I 12 W/m 17,0 C 19,4 C 4,8 km/h (1 Bft) 98,00 %
25.06.2016 05:26 19,4 C 86 % 1010,0 hPa 0,0 l/m 2,6 km/h (1 Bft) S-SW 202 0 min 0,000 mm 0,0 UV-I 12 W/m 17,0 C 19,4 C 3,2 km/h (1 Bft) 98,00 %
25.06.2016 05:28 19,4 C 86 % 1010,0 hPa 0,0 l/m 2,1 km/h (1 Bft) S-SW 202 0 min 0,000 mm 0,0 UV-I 14 W/m 17,0 C 19,4 C 3,2 km/h (1 Bft) 100,00 %
25.06.2016 05:30 19,5 C 86 % 1010,0 hPa 0,0 l/m 0,8 km/h (0 Bft) S-SW 202 0 min 0,000 mm 0,0 UV-I 15 W/m 17,1 C 19,5 C 1,6 km/h (1 Bft) 100,00 %
25.06.2016 05:32 19,5 C 86 % 1010,0 hPa 0,0 l/m 0,7 km/h (0 Bft) S-SW 202 0 min 0,000 mm 0,0 UV-I 16 W/m 17,1 C 19,5 C 1,6 km/h (1 Bft) 98,04 %
25.06.2016 05:34 19,5 C 86 % 1009,9 hPa 0,0 l/m 0,9 km/h (0 Bft) S-SW 202 0 min 0,000 mm 0,0 UV-I 18 W/m 17,1 C 19,5 C 3,2 km/h (1 Bft) 100,00 %
25.06.2016 05:36 19,6 C 86 % 1010,0 hPa 0,0 l/m 0,8 km/h (0 Bft) S-SW 202 0 min 0,000 mm 0,0 UV-I 18 W/m 17,2 C 19,6 C 3,2 km/h (1 Bft) 100,00 %
25.06.2016 05:38 19,6 C 86 % 1010,0 hPa 0,0 l/m 1,5 km/h (1 Bft) S-SW 202 0 min 0,000 mm 0,0 UV-I 19 W/m 17,2 C 19,6 C 3,2 km/h (1 Bft) 100,00 %
25.06.2016 05:40 19,6 C 85 % 1009,9 hPa 0,0 l/m 1,3 km/h (1 Bft) S-SW 202 0 min 0,000 mm 0,0 UV-I 21 W/m 17,0 C 19,6 C 3,2 km/h (1 Bft) 100,00 %
25.06.2016 05:42 19,6 C 85 % 1009,9 hPa 0,0 l/m 1,4 km/h (1 Bft) S-SW 202 0 min 0,000 mm 0,0 UV-I 22 W/m 17,0 C 19,6 C 3,2 km/h (1 Bft) 100,00 %
25.06.2016 05:44 19,7 C 85 % 1009,9 hPa 0,0 l/m 1,6 km/h (1 Bft) S-SW 202 0 min 0,000 mm 0,0 UV-I 23 W/m 17,1 C 19,7 C 3,2 km/h (1 Bft) 100,00 %
25.06.2016 05:46 19,7 C 85 % 1009,8 hPa 0,0 l/m 2,1 km/h (1 Bft) S-SW 202 0 min 0,000 mm 0,0 UV-I 25 W/m 17,1 C 19,7 C 3,2 km/h (1 Bft) 100,00 %
25.06.2016 05:48 19,7 C 85 % 1009,8 hPa 0,0 l/m 2,5 km/h (1 Bft) S-SW 202 0 min 0,000 mm 0,0 UV-I 25 W/m 17,1 C 19,7 C 3,2 km/h (1 Bft) 98,00 %
25.06.2016 05:50 19,7 C 85 % 1009,8 hPa 0,0 l/m 2,6 km/h (1 Bft) S-SW 202 0 min 0,000 mm 0,0 UV-I 26 W/m 17,1 C 19,7 C 4,8 km/h (1 Bft) 100,00 %
25.06.2016 05:52 19,7 C 85 % 1009,8 hPa 0,0 l/m 2,5 km/h (1 Bft) S-SW 202 0 min 0,000 mm 0,0 UV-I 28 W/m 17,1 C 19,7 C 3,2 km/h (1 Bft) 100,00 %
25.06.2016 05:54 19,7 C 85 % 1009,7 hPa 0,0 l/m 1,4 km/h (1 Bft) S-SW 202 0 min 0,000 mm 0,0 UV-I 28 W/m 17,1 C 19,7 C 3,2 km/h (1 Bft) 100,00 %
25.06.2016 05:56 19,7 C 85 % 1009,7 hPa 0,0 l/m 2,7 km/h (1 Bft) S-SW 192 0 min 0,000 mm 0,0 UV-I 30 W/m 17,1 C 19,7 C 4,8 km/h (1 Bft) 100,00 %
25.06.2016 05:58 19,7 C 86 % 1009,7 hPa 0,0 l/m 3,1 km/h (1 Bft) S 190 0 min 0,000 mm 0,0 UV-I 31 W/m 17,3 C 19,7 C 6,4 km/h (2 Bft) 100,00 %
25.06.2016 06:00 19,6 C 86 % 1009,7 hPa 0,0 l/m 3,8 km/h (1 Bft) S 190 0 min 0,025 mm 0,0 UV-I 32 W/m 17,2 C 19,6 C 4,8 km/h (1 Bft) 97,44 %
25.06.2016 06:02 19,6 C 86 % 1009,7 hPa 0,0 l/m 4,0 km/h (1 Bft) S-SW 194 0 min 0,000 mm 0,0 UV-I 33 W/m 17,2 C 19,6 C 4,8 km/h (1 Bft) 100,00 %
25.06.2016 06:04 19,6 C 86 % 1009,7 hPa 0,0 l/m 3,9 km/h (1 Bft) SW 230 0 min 0,000 mm 0,0 UV-I 33 W/m 17,2 C 19,6 C 4,8 km/h (1 Bft) 97,87 %
25.06.2016 06:06 19,7 C 86 % 1009,7 hPa 0,0 l/m 2,0 km/h (1 Bft) SW 230 0 min 0,000 mm 0,0 UV-I 34 W/m 17,3 C 19,7 C 3,2 km/h (1 Bft) 100,00 %
25.06.2016 06:08 19,6 C 86 % 1009,7 hPa 0,0 l/m 1,4 km/h (1 Bft) SW 230 0 min 0,000 mm 0,0 UV-I 35 W/m 17,2 C 19,6 C 3,2 km/h (1 Bft) 100,00 %
25.06.2016 06:10 19,6 C 86 % 1009,5 hPa 0,0 l/m 2,3 km/h (1 Bft) S-SW 206 0 min 0,000 mm 0,0 UV-I 37 W/m 17,2 C 19,6 C 4,8 km/h (1 Bft) 97,87 %
25.06.2016 06:12 19,6 C 86 % 1009,5 hPa 0,0 l/m 2,4 km/h (1 Bft) S-SW 203 0 min 0,000 mm 0,0 UV-I 37 W/m 17,2 C 19,6 C 4,8 km/h (1 Bft) 95,83 %
25.06.2016 06:14 19,6 C 86 % 1009,5 hPa 0,0 l/m 1,6 km/h (1 Bft) S-SW 198 0 min 0,000 mm 0,0 UV-I 39 W/m 17,2 C 19,6 C 3,2 km/h (1 Bft) 97,87 %
25.06.2016 06:16 19,6 C 87 % 1009,5 hPa 0,0 l/m 1,2 km/h (1 Bft) S-SW 198 0 min 0,000 mm 0,0 UV-I 39 W/m 17,4 C 19,6 C 3,2 km/h (1 Bft) 96,23 %
25.06.2016 06:18 19,6 C 87 % 1009,5 hPa 0,0 l/m 0,4 km/h (0 Bft) S-SW 198 0 min 0,000 mm 0,0 UV-I 40 W/m 17,4 C 19,6 C 1,6 km/h (1 Bft) 94,74 %
25.06.2016 06:20 19,6 C 87 % 1009,5 hPa 0,0 l/m 0,0 km/h (0 Bft) S-SW 198 0 min 0,000 mm 0,0 UV-I 40 W/m 17,4 C 19,6 C 1,6 km/h (1 Bft) 98,00 %
25.06.2016 06:22 19,6 C 87 % 1009,4 hPa 0,0 l/m 0,0 km/h (0 Bft) S-SW 198 0 min 0,000 mm 0,0 UV-I 41 W/m 17,4 C 19,6 C 0,0 km/h (0 Bft) 95,74 %
25.06.2016 06:24 19,7 C 86 % 1009,4 hPa 0,0 l/m 0,7 km/h (0 Bft) S-SW 198 0 min 0,000 mm 0,0 UV-I 42 W/m 17,3 C 19,7 C 3,2 km/h (1 Bft) 98,11 %
25.06.2016 06:26 19,7 C 87 % 1009,4 hPa 0,0 l/m 2,9 km/h (1 Bft) S-SW 197 0 min 0,000 mm 0,0 UV-I 43 W/m 17,5 C 19,7 C 4,8 km/h (1 Bft) 97,37 %
25.06.2016 06:28 19,8 C 86 % 1009,4 hPa 0,0 l/m 2,7 km/h (1 Bft) S-SW 195 0 min 0,000 mm 0,0 UV-I 44 W/m 17,4 C 19,8 C 4,8 km/h (1 Bft) 96,23 %
25.06.2016 06:30 19,9 C 86 % 1009,4 hPa 0,0 l/m 2,6 km/h (1 Bft) S-SW 194 0 min 0,000 mm 0,0 UV-I 44 W/m 17,5 C 19,9 C 4,8 km/h (1 Bft) 98,00 %
25.06.2016 06:32 20,1 C 85 % 1009,3 hPa 0,0 l/m 2,0 km/h (1 Bft) S-SW 194 0 min 0,000 mm 0,0 UV-I 46 W/m 17,5 C 20,1 C 3,2 km/h (1 Bft) 97,56 %
25.06.2016 06:34 20,1 C 84 % 1009,3 hPa 0,0 l/m 3,2 km/h (1 Bft) S-SW 196 0 min 0,000 mm 0,0 UV-I 63 W/m 17,3 C 20,1 C 4,8 km/h (1 Bft) 98,00 %
25.06.2016 06:36 20,2 C 84 % 1009,3 hPa 0,0 l/m 2,6 km/h (1 Bft) S-SW 196 0 min 0,000 mm 0,0 UV-I 93 W/m 17,4 C 20,2 C 4,8 km/h (1 Bft) 97,44 %
25.06.2016 06:38 20,2 C 84 % 1009,3 hPa 0,0 l/m 1,1 km/h (1 Bft) S-SW 196 0 min 0,000 mm 0,0 UV-I 95 W/m 17,4 C 20,2 C 3,2 km/h (1 Bft) 98,00 %
25.06.2016 06:40 20,3 C 84 % 1009,3 hPa 0,0 l/m 0,3 km/h (0 Bft) S-SW 196 0 min 0,000 mm 0,0 UV-I 94 W/m 17,5 C 20,3 C 1,6 km/h (1 Bft) 96,00 %
25.06.2016 06:42 20,3 C 84 % 1009,2 hPa 0,0 l/m 1,4 km/h (1 Bft) S-SW 196 0 min 0,000 mm 0,0 UV-I 98 W/m 17,5 C 20,3 C 3,2 km/h (1 Bft) 98,11 %
25.06.2016 06:44 20,4 C 85 % 1009,2 hPa 0,0 l/m 3,0 km/h (1 Bft) S-SW 194 0 min 0,000 mm 0,0 UV-I 110 W/m 17,8 C 20,4 C 4,8 km/h (1 Bft) 97,37 %
25.06.2016 06:46 20,4 C 85 % 1009,2 hPa 0,0 l/m 3,8 km/h (1 Bft) S-SO 166 0 min 0,000 mm 0,0 UV-I 113 W/m 17,8 C 20,4 C 6,4 km/h (2 Bft) 100,00 %
25.06.2016 06:48 20,4 C 85 % 1009,3 hPa 0,0 l/m 4,6 km/h (1 Bft) S-SO 166 0 min 0,000 mm 0,0 UV-I 112 W/m 17,8 C 20,4 C 6,4 km/h (2 Bft) 100,00 %
25.06.2016 06:50 20,5 C 83 % 1009,3 hPa 0,0 l/m 3,1 km/h (1 Bft) S-SO 166 0 min 0,000 mm 0,0 UV-I 118 W/m 17,5 C 20,5 C 4,8 km/h (1 Bft) 100,00 %
25.06.2016 06:52 20,6 C 84 % 1009,3 hPa 0,0 l/m 4,0 km/h (1 Bft) O-NO 57 0 min 0,000 mm 0,0 UV-I 127 W/m 17,8 C 20,6 C 6,4 km/h (2 Bft) 100,00 %
25.06.2016 06:54 20,8 C 85 % 1009,3 hPa 0,0 l/m 3,1 km/h (1 Bft) O-NO 62 0 min 0,000 mm 0,0 UV-I 137 W/m 18,2 C 20,8 C 4,8 km/h (1 Bft) 98,11 %
25.06.2016 06:56 20,8 C 84 % 1009,3 hPa 0,0 l/m 3,8 km/h (1 Bft) O-NO 67 0 min 0,000 mm 0,0 UV-I 143 W/m 18,0 C 20,8 C 4,8 km/h (1 Bft) 100,00 %
25.06.2016 06:58 20,9 C 84 % 1009,4 hPa 0,0 l/m 2,4 km/h (1 Bft) O-NO 67 2 min 0,000 mm 0,0 UV-I 150 W/m 18,1 C 20,9 C 4,8 km/h (1 Bft) 100,00 %
25.06.2016 07:00 21,1 C 84 % 1009,3 hPa 0,0 l/m 1,2 km/h (1 Bft) O-NO 67 2 min 0,000 mm 0,0 UV-I 155 W/m 18,3 C 21,1 C 3,2 km/h (1 Bft) 100,00 %
25.06.2016 07:02 21,2 C 84 % 1009,3 hPa 0,0 l/m 0,7 km/h (0 Bft) O-NO 67 2 min 0,051 mm 0,0 UV-I 159 W/m 18,4 C 21,2 C 1,6 km/h (1 Bft) 100,00 %
25.06.2016 07:04 21,2 C 83 % 1009,2 hPa 0,0 l/m 1,0 km/h (0 Bft) O-NO 67 2 min 0,000 mm 0,0 UV-I 163 W/m 18,2 C 21,2 C 3,2 km/h (1 Bft) 96,23 %
25.06.2016 07:06 21,3 C 83 % 1009,3 hPa 0,0 l/m 3,2 km/h (1 Bft) O-NO 78 2 min 0,000 mm 0,5 UV-I 167 W/m 18,3 C 21,3 C 4,8 km/h (1 Bft) 100,00 %
25.06.2016 07:08 21,5 C 84 % 1009,3 hPa 0,0 l/m 4,2 km/h (1 Bft) O-SO 109 2 min 0,000 mm 0,5 UV-I 172 W/m 18,7 C 21,5 C 4,8 km/h (1 Bft) 100,00 %
25.06.2016 07:10 21,6 C 84 % 1009,3 hPa 0,0 l/m 4,0 km/h (1 Bft) SO 128 2 min 0,000 mm 0,5 UV-I 179 W/m 18,8 C 21,6 C 6,4 km/h (2 Bft) 97,87 %
25.06.2016 07:12 21,7 C 82 % 1009,3 hPa 0,0 l/m 4,6 km/h (1 Bft) O-SO 119 2 min 0,000 mm 0,5 UV-I 185 W/m 18,5 C 21,7 C 8,0 km/h (2 Bft) 100,00 %
25.06.2016 07:14 21,7 C 80 % 1009,3 hPa 0,0 l/m 3,2 km/h (1 Bft) SO 134 2 min 0,000 mm 0,5 UV-I 190 W/m 18,1 C 21,7 C 6,4 km/h (2 Bft) 100,00 %
25.06.2016 07:16 21,8 C 81 % 1009,4 hPa 0,0 l/m 2,8 km/h (1 Bft) S-SO 149 2 min 0,000 mm 0,6 UV-I 196 W/m 18,4 C 21,8 C 6,4 km/h (2 Bft) 100,00 %
25.06.2016 07:18 21,9 C 80 % 1009,4 hPa 0,0 l/m 4,0 km/h (1 Bft) SO 139 2 min 0,000 mm 0,6 UV-I 201 W/m 18,3 C 21,9 C 8,0 km/h (2 Bft) 100,00 %
25.06.2016 07:20 21,9 C 81 % 1009,4 hPa 0,0 l/m 4,0 km/h (1 Bft) SO 141 2 min 0,000 mm 0,6 UV-I 208 W/m 18,5 C 21,9 C 11,3 km/h (2 Bft) 100,00 %
25.06.2016 07:22 22,1 C 80 % 1009,5 hPa 0,0 l/m 3,6 km/h (1 Bft) SO 129 2 min 0,000 mm 0,6 UV-I 213 W/m 18,5 C 22,1 C 6,4 km/h (2 Bft) 100,00 %
25.06.2016 07:24 22,2 C 79 % 1009,5 hPa 0,0 l/m 4,6 km/h (1 Bft) O-SO 118 2 min 0,000 mm 0,6 UV-I 218 W/m 18,4 C 22,2 C 8,0 km/h (2 Bft) 95,74 %
25.06.2016 07:26 22,3 C 80 % 1009,5 hPa 0,0 l/m 2,0 km/h (1 Bft) SO 144 2 min 0,000 mm 0,7 UV-I 225 W/m 18,7 C 22,3 C 4,8 km/h (1 Bft) 100,00 %
25.06.2016 07:28 22,4 C 80 % 1009,5 hPa 0,0 l/m 3,6 km/h (1 Bft) SO 143 2 min 0,000 mm 0,7 UV-I 230 W/m 18,8 C 22,4 C 6,4 km/h (2 Bft) 100,00 %
25.06.2016 07:30 22,4 C 78 % 1009,6 hPa 0,0 l/m 6,7 km/h (2 Bft) SO 127 2 min 0,000 mm 0,7 UV-I 239 W/m 18,4 C 22,3 C 12,9 km/h (3 Bft) 100,00 %
25.06.2016 07:32 22,6 C 80 % 1009,5 hPa 0,0 l/m 7,2 km/h (2 Bft) SO 126 2 min 0,000 mm 0,7 UV-I 246 W/m 19,0 C 22,3 C 11,3 km/h (2 Bft) 100,00 %
25.06.2016 07:34 22,6 C 80 % 1009,5 hPa 0,0 l/m 9,2 km/h (2 Bft) O-SO 106 2 min 0,000 mm 0,8 UV-I 253 W/m 19,0 C 21,7 C 12,9 km/h (3 Bft) 100,00 %
25.06.2016 07:36 22,6 C 79 % 1009,5 hPa 0,0 l/m 7,7 km/h (2 Bft) O-SO 112 2 min 0,000 mm 0,8 UV-I 260 W/m 18,8 C 22,2 C 12,9 km/h (3 Bft) 100,00 %
25.06.2016 07:38 22,6 C 79 % 1009,5 hPa 0,0 l/m 4,0 km/h (1 Bft) O 101 2 min 0,000 mm 0,8 UV-I 272 W/m 18,8 C 22,6 C 6,4 km/h (2 Bft) 98,00 %
25.06.2016 07:40 22,7 C 78 % 1009,5 hPa 0,0 l/m 2,8 km/h (1 Bft) O 101 2 min 0,000 mm 0,9 UV-I 280 W/m 18,7 C 22,7 C 4,8 km/h (1 Bft) 100,00 %
25.06.2016 07:42 22,8 C 77 % 1009,6 hPa 0,0 l/m 5,1 km/h (1 Bft) O-SO 113 2 min 0,000 mm 0,9 UV-I 280 W/m 18,5 C 22,8 C 6,4 km/h (2 Bft) 94,74 %
25.06.2016 07:44 22,9 C 78 % 1009,7 hPa 0,0 l/m 4,9 km/h (1 Bft) O 98 2 min 0,000 mm 0,9 UV-I 285 W/m 18,9 C 22,9 C 6,4 km/h (2 Bft) 100,00 %
25.06.2016 07:46 23,0 C 76 % 1009,7 hPa 0,0 l/m 4,5 km/h (1 Bft) O 84 2 min 0,000 mm 0,9 UV-I 293 W/m 18,5 C 23,0 C 6,4 km/h (2 Bft) 97,37 %
25.06.2016 07:48 23,1 C 77 % 1009,7 hPa 0,0 l/m 2,2 km/h (1 Bft) SO 131 2 min 0,000 mm 1,0 UV-I 301 W/m 18,8 C 23,1 C 4,8 km/h (1 Bft) 100,00 %
25.06.2016 07:50 23,1 C 75 % 1009,7 hPa 0,0 l/m 2,4 km/h (1 Bft) SO 124 2 min 0,000 mm 1,0 UV-I 309 W/m 18,4 C 23,1 C 4,8 km/h (1 Bft) 97,87 %
25.06.2016 07:52 23,2 C 75 % 1009,7 hPa 0,0 l/m 0,0 km/h (0 Bft) SO 124 2 min 0,000 mm 1,0 UV-I 320 W/m 18,5 C 23,2 C 0,0 km/h (0 Bft) 97,22 %
25.06.2016 07:54 23,3 C 75 % 1009,7 hPa 0,0 l/m 1,0 km/h (0 Bft) SO 124 2 min 0,000 mm 1,1 UV-I 329 W/m 18,6 C 23,3 C 3,2 km/h (1 Bft) 100,00 %
25.06.2016 07:56 23,4 C 77 % 1009,7 hPa 0,0 l/m 1,7 km/h (1 Bft) SO 136 2 min 0,000 mm 1,1 UV-I 343 W/m 19,1 C 23,4 C 3,2 km/h (1 Bft) 100,00 %
25.06.2016 07:58 23,6 C 76 % 1009,7 hPa 0,0 l/m 0,1 km/h (0 Bft) SO 136 2 min 0,000 mm 1,1 UV-I 333 W/m 19,1 C 23,6 C 1,6 km/h (1 Bft) 100,00 %
25.06.2016 08:00 23,7 C 71 % 1009,6 hPa 0,0 l/m 1,8 km/h (1 Bft) SO 138 0 min 0,153 mm 1,1 UV-I 224 W/m 18,1 C 23,7 C 3,2 km/h (1 Bft) 100,00 %
25.06.2016 08:02 23,8 C 69 % 1009,6 hPa 0,0 l/m 1,2 km/h (1 Bft) SO 145 2 min 0,000 mm 1,2 UV-I 368 W/m 17,8 C 23,8 C 3,2 km/h (1 Bft) 100,00 %
25.06.2016 08:04 23,9 C 71 % 1009,7 hPa 0,0 l/m 3,5 km/h (1 Bft) S-SW 200 2 min 0,000 mm 1,1 UV-I 259 W/m 18,3 C 23,9 C 6,4 km/h (2 Bft) 97,56 %
25.06.2016 08:06 23,8 C 70 % 1009,7 hPa 0,0 l/m 3,7 km/h (1 Bft) S-SW 208 0 min 0,000 mm 1,1 UV-I 185 W/m 18,0 C 23,8 C 6,4 km/h (2 Bft) 97,96 %
25.06.2016 08:08 23,8 C 70 % 1009,6 hPa 0,0 l/m 2,6 km/h (1 Bft) S-SW 208 0 min 0,000 mm 1,1 UV-I 177 W/m 18,0 C 23,8 C 3,2 km/h (1 Bft) 100,00 %
25.06.2016 08:10 23,8 C 69 % 1009,6 hPa 0,0 l/m 2,0 km/h (1 Bft) S-SW 208 0 min 0,000 mm 1,2 UV-I 206 W/m 17,8 C 23,8 C 3,2 km/h (1 Bft) 95,74 %
25.06.2016 08:12 23,8 C 70 % 1009,7 hPa 0,0 l/m 3,0 km/h (1 Bft) S-SW 209 2 min 0,000 mm 1,1 UV-I 256 W/m 18,0 C 23,8 C 6,4 km/h (2 Bft) 98,21 %
25.06.2016 08:14 23,7 C 71 % 1009,7 hPa 0,0 l/m 2,9 km/h (1 Bft) S-SW 209 0 min 0,000 mm 1,1 UV-I 147 W/m 18,1 C 23,7 C 4,8 km/h (1 Bft) 97,37 %
25.06.2016 08:16 23,7 C 72 % 1009,7 hPa 0,0 l/m 3,3 km/h (1 Bft) SW 217 0 min 0,000 mm 1,1 UV-I 123 W/m 18,3 C 23,7 C 6,4 km/h (2 Bft) 95,74 %
25.06.2016 08:18 23,6 C 70 % 1009,7 hPa 0,0 l/m 2,5 km/h (1 Bft) SW 236 0 min 0,000 mm 1,1 UV-I 119 W/m 17,8 C 23,6 C 4,8 km/h (1 Bft) 97,87 %
25.06.2016 08:20 23,6 C 70 % 1009,7 hPa 0,0 l/m 1,8 km/h (1 Bft) W-SW 240 0 min 0,000 mm 1,1 UV-I 125 W/m 17,8 C 23,6 C 3,2 km/h (1 Bft) 95,74 %
25.06.2016 08:22 23,4 C 72 % 1009,7 hPa 0,0 l/m 3,0 km/h (1 Bft) W-SW 240 0 min 0,000 mm 1,3 UV-I 172 W/m 18,1 C 23,4 C 4,8 km/h (1 Bft) 96,23 %
25.06.2016 08:24 23,4 C 71 % 1009,7 hPa 0,0 l/m 2,8 km/h (1 Bft) W-SW 254 0 min 0,000 mm 1,5 UV-I 243 W/m 17,8 C 23,4 C 6,4 km/h (2 Bft) 97,87 %
25.06.2016 08:26 23,6 C 72 % 1009,7 hPa 0,0 l/m 4,3 km/h (1 Bft) W-SW 250 2 min 0,000 mm 1,6 UV-I 414 W/m 18,2 C 23,6 C 6,4 km/h (2 Bft) 97,37 %
25.06.2016 08:28 23,9 C 71 % 1009,7 hPa 0,0 l/m 5,4 km/h (1 Bft) W 259 2 min 0,000 mm 1,7 UV-I 423 W/m 18,3 C 23,9 C 6,4 km/h (2 Bft) 98,11 %
25.06.2016 08:30 24,1 C 70 % 1009,7 hPa 0,0 l/m 5,2 km/h (1 Bft) SW 232 2 min 0,000 mm 1,7 UV-I 424 W/m 18,3 C 24,1 C 8,0 km/h (2 Bft) 97,62 %
25.06.2016 08:32 24,2 C 71 % 1009,7 hPa 0,0 l/m 2,7 km/h (1 Bft) SW 236 2 min 0,000 mm 1,6 UV-I 408 W/m 18,6 C 24,2 C 4,8 km/h (1 Bft) 96,15 %
25.06.2016 08:34 24,3 C 69 % 1009,7 hPa 0,0 l/m 2,5 km/h (1 Bft) SW 236 2 min 0,000 mm 1,8 UV-I 410 W/m 18,2 C 24,3 C 4,8 km/h (1 Bft) 97,22 %
25.06.2016 08:36 24,3 C 70 % 1009,9 hPa 0,0 l/m 2,5 km/h (1 Bft) SW 236 2 min 0,000 mm 1,8 UV-I 411 W/m 18,5 C 24,3 C 4,8 km/h (1 Bft) 96,77 %
25.06.2016 08:38 24,4 C 68 % 1009,9 hPa 0,0 l/m 2,0 km/h (1 Bft) W-SW 258 2 min 0,000 mm 1,9 UV-I 435 W/m 18,1 C 24,4 C 4,8 km/h (1 Bft) 95,74 %
25.06.2016 08:40 24,4 C 67 % 1009,9 hPa 0,0 l/m 1,7 km/h (1 Bft) W-SW 258 2 min 0,000 mm 1,9 UV-I 456 W/m 17,9 C 24,4 C 4,8 km/h (1 Bft) 97,87 %
25.06.2016 08:42 24,5 C 66 % 1009,9 hPa 0,0 l/m 1,1 km/h (1 Bft) S 178 2 min 0,000 mm 2,0 UV-I 457 W/m 17,7 C 24,5 C 4,8 km/h (1 Bft) 100,00 %
25.06.2016 08:44 24,6 C 67 % 1009,9 hPa 0,0 l/m 4,0 km/h (1 Bft) S 171 2 min 0,000 mm 2,0 UV-I 457 W/m 18,1 C 24,6 C 8,0 km/h (2 Bft) 100,00 %
25.06.2016 08:46 24,6 C 66 % 1009,9 hPa 0,0 l/m 4,2 km/h (1 Bft) W 265 2 min 0,000 mm 2,0 UV-I 460 W/m 17,8 C 24,6 C 6,4 km/h (2 Bft) 100,00 %
25.06.2016 08:48 24,6 C 65 % 1009,8 hPa 0,0 l/m 3,5 km/h (1 Bft) W 262 2 min 0,000 mm 2,1 UV-I 461 W/m 17,6 C 24,6 C 6,4 km/h (2 Bft) 100,00 %
25.06.2016 08:50 24,7 C 67 % 1009,8 hPa 0,0 l/m 2,4 km/h (1 Bft) W 274 2 min 0,000 mm 2,1 UV-I 465 W/m 18,1 C 24,7 C 4,8 km/h (1 Bft) 98,00 %
25.06.2016 08:52 24,8 C 65 % 1009,7 hPa 0,0 l/m 2,1 km/h (1 Bft) W-SW 254 2 min 0,000 mm 2,2 UV-I 468 W/m 17,8 C 24,8 C 6,4 km/h (2 Bft) 100,00 %
25.06.2016 08:54 24,8 C 64 % 1009,8 hPa 0,0 l/m 0,9 km/h (0 Bft) W 271 2 min 0,000 mm 2,2 UV-I 472 W/m 17,5 C 24,8 C 3,2 km/h (1 Bft) 100,00 %
25.06.2016 08:56 24,9 C 69 % 1009,8 hPa 0,0 l/m 1,4 km/h (1 Bft) W 271 2 min 0,000 mm 2,2 UV-I 476 W/m 18,8 C 24,9 C 4,8 km/h (1 Bft) 100,00 %
25.06.2016 08:58 24,9 C 66 % 1009,7 hPa 0,0 l/m 2,7 km/h (1 Bft) W 274 2 min 0,000 mm 2,3 UV-I 480 W/m 18,1 C 24,9 C 4,8 km/h (1 Bft) 100,00 %
25.06.2016 09:00 25,0 C 68 % 1009,7 hPa 0,0 l/m 3,0 km/h (1 Bft) W 263 2 min 0,228 mm 2,3 UV-I 483 W/m 18,7 C 25,0 C 6,4 km/h (2 Bft) 100,00 %
25.06.2016 09:02 25,0 C 66 % 1009,7 hPa 0,0 l/m 4,8 km/h (1 Bft) W 263 2 min 0,000 mm 2,4 UV-I 483 W/m 18,2 C 25,0 C 9,7 km/h (2 Bft) 100,00 %
25.06.2016 09:04 24,9 C 66 % 1009,6 hPa 0,0 l/m 2,1 km/h (1 Bft) W 263 2 min 0,000 mm 2,4 UV-I 483 W/m 18,1 C 24,9 C 4,8 km/h (1 Bft) 100,00 %
25.06.2016 09:06 25,0 C 68 % 1009,6 hPa 0,0 l/m 2,0 km/h (1 Bft) W 273 2 min 0,000 mm 2,4 UV-I 477 W/m 18,7 C 25,0 C 4,8 km/h (1 Bft) 97,87 %
25.06.2016 09:08 25,1 C 71 % 1009,5 hPa 0,0 l/m 0,7 km/h (0 Bft) NW 309 2 min 0,000 mm 2,5 UV-I 475 W/m 19,5 C 25,1 C 3,2 km/h (1 Bft) 100,00 %
25.06.2016 09:10 25,1 C 69 % 1009,5 hPa 0,0 l/m 2,6 km/h (1 Bft) W-NW 299 2 min 0,000 mm 2,5 UV-I 470 W/m 19,0 C 25,1 C 6,4 km/h (2 Bft) 100,00 %
25.06.2016 09:12 25,1 C 67 % 1009,5 hPa 0,0 l/m 2,6 km/h (1 Bft) W-NW 291 2 min 0,000 mm 2,6 UV-I 465 W/m 18,5 C 25,1 C 4,8 km/h (1 Bft) 98,08 %
25.06.2016 09:14 25,1 C 67 % 1009,5 hPa 0,0 l/m 2,8 km/h (1 Bft) W 275 2 min 0,000 mm 2,7 UV-I 461 W/m 18,5 C 25,1 C 4,8 km/h (1 Bft) 100,00 %
25.06.2016 09:16 25,1 C 70 % 1009,5 hPa 0,0 l/m 2,4 km/h (1 Bft) W-NW 289 2 min 0,000 mm 2,7 UV-I 454 W/m 19,2 C 25,1 C 4,8 km/h (1 Bft) 96,23 %
25.06.2016 09:18 25,1 C 67 % 1009,5 hPa 0,0 l/m 2,1 km/h (1 Bft) W-NW 292 2 min 0,000 mm 2,7 UV-I 448 W/m 18,5 C 25,1 C 4,8 km/h (1 Bft) 100,00 %
25.06.2016 09:20 25,2 C 69 % 1009,5 hPa 0,0 l/m 1,5 km/h (1 Bft) N-NW 328 2 min 0,000 mm 2,8 UV-I 443 W/m 19,1 C 25,2 C 3,2 km/h (1 Bft) 98,00 %
25.06.2016 09:22 25,2 C 72 % 1009,5 hPa 0,0 l/m 1,4 km/h (1 Bft) N-NW 331 2 min 0,000 mm 2,8 UV-I 439 W/m 19,8 C 25,2 C 3,2 km/h (1 Bft) 100,00 %
25.06.2016 09:24 25,3 C 71 % 1009,6 hPa 0,0 l/m 2,9 km/h (1 Bft) NW 304 2 min 0,000 mm 2,9 UV-I 439 W/m 19,7 C 25,3 C 4,8 km/h (1 Bft) 100,00 %
25.06.2016 09:26 25,3 C 69 % 1009,6 hPa 0,0 l/m 2,2 km/h (1 Bft) N 10 2 min 0,000 mm 3,0 UV-I 441 W/m 19,2 C 25,3 C 4,8 km/h (1 Bft) 100,00 %
25.06.2016 09:28 25,3 C 70 % 1009,6 hPa 0,0 l/m 1,5 km/h (1 Bft) N 355 2 min 0,000 mm 3,0 UV-I 445 W/m 19,4 C 25,3 C 3,2 km/h (1 Bft) 100,00 %
25.06.2016 09:30 25,4 C 69 % 1009,7 hPa 0,0 l/m 1,2 km/h (1 Bft) N 5 2 min 0,000 mm 3,0 UV-I 448 W/m 19,3 C 25,4 C 3,2 km/h (1 Bft) 100,00 %
25.06.2016 09:32 25,4 C 68 % 1009,7 hPa 0,0 l/m 2,5 km/h (1 Bft) N-NW 334 2 min 0,000 mm 3,1 UV-I 457 W/m 19,1 C 25,4 C 6,4 km/h (2 Bft) 100,00 %
25.06.2016 09:34 25,5 C 70 % 1009,6 hPa 0,0 l/m 3,1 km/h (1 Bft) W-NW 284 2 min 0,000 mm 3,1 UV-I 467 W/m 19,6 C 25,5 C 6,4 km/h (2 Bft) 100,00 %
25.06.2016 09:36 25,6 C 68 % 1009,6 hPa 0,0 l/m 4,0 km/h (1 Bft) NW 315 2 min 0,000 mm 3,2 UV-I 480 W/m 19,2 C 25,6 C 9,7 km/h (2 Bft) 100,00 %
25.06.2016 09:38 25,6 C 68 % 1009,6 hPa 0,0 l/m 3,3 km/h (1 Bft) W 279 2 min 0,000 mm 3,2 UV-I 497 W/m 19,2 C 25,6 C 6,4 km/h (2 Bft) 100,00 %
25.06.2016 09:40 25,7 C 69 % 1009,7 hPa 0,0 l/m 1,7 km/h (1 Bft) W-NW 288 2 min 0,000 mm 3,3 UV-I 509 W/m 19,6 C 25,7 C 4,8 km/h (1 Bft) 100,00 %
25.06.2016 09:42 25,7 C 70 % 1009,7 hPa 0,0 l/m 3,8 km/h (1 Bft) N 11 2 min 0,000 mm 3,3 UV-I 528 W/m 19,8 C 25,7 C 6,4 km/h (2 Bft) 100,00 %
25.06.2016 09:44 25,7 C 72 % 1009,6 hPa 0,0 l/m 1,9 km/h (1 Bft) NW 318 2 min 0,000 mm 3,4 UV-I 548 W/m 20,3 C 25,7 C 4,8 km/h (1 Bft) 100,00 %
25.06.2016 09:46 25,8 C 71 % 1009,6 hPa 0,0 l/m 1,3 km/h (1 Bft) N 355 2 min 0,000 mm 3,4 UV-I 564 W/m 20,1 C 25,8 C 3,2 km/h (1 Bft) 97,87 %
25.06.2016 09:48 25,9 C 68 % 1009,6 hPa 0,0 l/m 1,9 km/h (1 Bft) NW 322 2 min 0,000 mm 3,5 UV-I 577 W/m 19,5 C 25,9 C 6,4 km/h (2 Bft) 100,00 %
25.06.2016 09:50 25,9 C 69 % 1009,6 hPa 0,0 l/m 1,6 km/h (1 Bft) N-NO 15 2 min 0,000 mm 3,5 UV-I 591 W/m 19,8 C 25,9 C 4,8 km/h (1 Bft) 97,87 %
25.06.2016 09:52 25,9 C 71 % 1009,6 hPa 0,0 l/m 2,8 km/h (1 Bft) N 5 2 min 0,000 mm 3,6 UV-I 602 W/m 20,2 C 25,9 C 6,4 km/h (2 Bft) 97,44 %
25.06.2016 09:54 25,9 C 71 % 1009,7 hPa 0,0 l/m 3,3 km/h (1 Bft) N 5 2 min 0,000 mm 3,6 UV-I 610 W/m 20,2 C 25,9 C 6,4 km/h (2 Bft) 98,00 %
25.06.2016 09:56 26,0 C 71 % 1009,7 hPa 0,0 l/m 2,8 km/h (1 Bft) N-NO 14 2 min 0,000 mm 3,7 UV-I 615 W/m 20,3 C 26,0 C 6,4 km/h (2 Bft) 100,00 %
25.06.2016 09:58 26,1 C 68 % 1009,7 hPa 0,0 l/m 3,0 km/h (1 Bft) N-NO 15 2 min 0,000 mm 3,7 UV-I 619 W/m 19,7 C 26,1 C 4,8 km/h (1 Bft) 100,00 %
25.06.2016 10:00 26,2 C 72 % 1009,7 hPa 0,0 l/m 2,1 km/h (1 Bft) N-NO 19 2 min 0,330 mm 3,8 UV-I 622 W/m 20,7 C 26,2 C 3,2 km/h (1 Bft) 98,00 %
25.06.2016 10:02 26,2 C 68 % 1009,7 hPa 0,0 l/m 2,5 km/h (1 Bft) N-NO 30 2 min 0,000 mm 3,8 UV-I 627 W/m 19,8 C 26,2 C 4,8 km/h (1 Bft) 100,00 %
25.06.2016 10:04 26,1 C 66 % 1009,7 hPa 0,0 l/m 1,1 km/h (1 Bft) N 11 2 min 0,000 mm 3,9 UV-I 631 W/m 19,2 C 26,1 C 3,2 km/h (1 Bft) 97,87 %
25.06.2016 10:06 26,2 C 68 % 1009,7 hPa 0,0 l/m 2,0 km/h (1 Bft) NW 325 2 min 0,000 mm 3,9 UV-I 636 W/m 19,8 C 26,2 C 3,2 km/h (1 Bft) 95,74 %
25.06.2016 10:08 26,3 C 68 % 1009,7 hPa 0,0 l/m 2,5 km/h (1 Bft) NW 304 2 min 0,000 mm 4,0 UV-I 641 W/m 19,9 C 26,3 C 6,4 km/h (2 Bft) 97,56 %
25.06.2016 10:10 26,3 C 69 % 1009,7 hPa 0,0 l/m 1,1 km/h (1 Bft) N-NW 338 2 min 0,000 mm 4,0 UV-I 648 W/m 20,1 C 26,3 C 4,8 km/h (1 Bft) 98,11 %
25.06.2016 10:12 26,2 C 67 % 1009,7 hPa 0,0 l/m 1,6 km/h (1 Bft) N-NW 342 2 min 0,000 mm 4,1 UV-I 652 W/m 19,6 C 26,2 C 3,2 km/h (1 Bft) 95,12 %
25.06.2016 10:14 26,2 C 68 % 1009,7 hPa 0,0 l/m 2,3 km/h (1 Bft) NW 318 2 min 0,000 mm 4,1 UV-I 656 W/m 19,8 C 26,2 C 6,4 km/h (2 Bft) 97,87 %
25.06.2016 10:16 26,3 C 68 % 1009,6 hPa 0,0 l/m 1,4 km/h (1 Bft) NW 319 2 min 0,000 mm 4,1 UV-I 657 W/m 19,9 C 26,3 C 4,8 km/h (1 Bft) 98,00 %
25.06.2016 10:18 26,4 C 70 % 1009,7 hPa 0,0 l/m 1,1 km/h (1 Bft) NW 325 2 min 0,000 mm 4,2 UV-I 658 W/m 20,5 C 26,4 C 3,2 km/h (1 Bft) 97,37 %
25.06.2016 10:20 26,5 C 71 % 1009,6 hPa 0,0 l/m 1,2 km/h (1 Bft) NW 325 2 min 0,000 mm 4,3 UV-I 665 W/m 20,8 C 26,5 C 3,2 km/h (1 Bft) 96,23 %
25.06.2016 10:22 26,6 C 67 % 1009,7 hPa 0,0 l/m 1,4 km/h (1 Bft) N-NW 348 2 min 0,000 mm 4,3 UV-I 671 W/m 20,0 C 26,6 C 3,2 km/h (1 Bft) 98,00 %
25.06.2016 10:24 26,6 C 68 % 1009,7 hPa 0,0 l/m 3,1 km/h (1 Bft) NW 314 2 min 0,000 mm 4,4 UV-I 674 W/m 20,2 C 26,6 C 6,4 km/h (2 Bft) 96,30 %
25.06.2016 10:26 26,7 C 70 % 1009,6 hPa 0,0 l/m 3,0 km/h (1 Bft) W-NW 297 2 min 0,000 mm 4,4 UV-I 677 W/m 20,8 C 26,7 C 6,4 km/h (2 Bft) 94,29 %
25.06.2016 10:28 26,7 C 67 % 1009,6 hPa 0,0 l/m 2,0 km/h (1 Bft) N-NW 333 2 min 0,000 mm 4,5 UV-I 683 W/m 20,0 C 26,7 C 6,4 km/h (2 Bft) 95,12 %
25.06.2016 10:30 26,7 C 67 % 1009,6 hPa 0,0 l/m 1,2 km/h (1 Bft) N-NW 338 2 min 0,000 mm 4,5 UV-I 689 W/m 20,0 C 26,7 C 3,2 km/h (1 Bft) 98,11 %
25.06.2016 10:32 26,6 C 66 % 1009,6 hPa 0,0 l/m 1,2 km/h (1 Bft) N-NW 338 2 min 0,000 mm 4,6 UV-I 696 W/m 19,7 C 26,6 C 3,2 km/h (1 Bft) 97,22 %
25.06.2016 10:34 26,8 C 69 % 1009,6 hPa 0,0 l/m 1,4 km/h (1 Bft) NW 325 2 min 0,000 mm 4,6 UV-I 698 W/m 20,6 C 26,8 C 4,8 km/h (1 Bft) 95,74 %
25.06.2016 10:36 26,9 C 68 % 1009,6 hPa 0,0 l/m 3,0 km/h (1 Bft) NO 35 2 min 0,000 mm 4,7 UV-I 703 W/m 20,5 C 26,9 C 6,4 km/h (2 Bft) 97,87 %
25.06.2016 10:38 26,9 C 70 % 1009,6 hPa 0,0 l/m 2,8 km/h (1 Bft) W-NW 301 2 min 0,000 mm 4,7 UV-I 705 W/m 21,0 C 26,9 C 4,8 km/h (1 Bft) 98,00 %
25.06.2016 10:40 26,9 C 69 % 1009,5 hPa 0,0 l/m 2,1 km/h (1 Bft) N-NW 340 2 min 0,000 mm 4,8 UV-I 709 W/m 20,7 C 26,9 C 6,4 km/h (2 Bft) 100,00 %
25.06.2016 10:42 26,9 C 68 % 1009,5 hPa 0,0 l/m 1,8 km/h (1 Bft) N-NW 331 2 min 0,000 mm 4,8 UV-I 714 W/m 20,5 C 26,9 C 4,8 km/h (1 Bft) 100,00 %
25.06.2016 10:44 26,9 C 65 % 1009,5 hPa 0,0 l/m 4,5 km/h (1 Bft) NW 316 2 min 0,000 mm 4,9 UV-I 720 W/m 19,7 C 26,9 C 6,4 km/h (2 Bft) 100,00 %
25.06.2016 10:46 26,9 C 65 % 1009,5 hPa 0,0 l/m 2,0 km/h (1 Bft) W-NW 290 2 min 0,000 mm 4,9 UV-I 726 W/m 19,7 C 26,9 C 6,4 km/h (2 Bft) 97,87 %
25.06.2016 10:48 26,9 C 66 % 1009,5 hPa 0,0 l/m 1,8 km/h (1 Bft) W 277 2 min 0,000 mm 5,0 UV-I 728 W/m 20,0 C 26,9 C 4,8 km/h (1 Bft) 100,00 %
25.06.2016 10:50 27,1 C 63 % 1009,5 hPa 0,0 l/m 2,8 km/h (1 Bft) W 263 2 min 0,000 mm 5,0 UV-I 731 W/m 19,4 C 27,1 C 6,4 km/h (2 Bft) 98,00 %
25.06.2016 10:52 27,3 C 64 % 1009,5 hPa 0,0 l/m 2,4 km/h (1 Bft) S-SW 194 2 min 0,000 mm 5,1 UV-I 740 W/m 19,9 C 27,3 C 4,8 km/h (1 Bft) 98,11 %
25.06.2016 10:54 27,6 C 65 % 1009,5 hPa 0,0 l/m 2,9 km/h (1 Bft) N-NW 330 2 min 0,000 mm 5,1 UV-I 743 W/m 20,4 C 27,6 C 8,0 km/h (2 Bft) 100,00 %
25.06.2016 10:56 27,8 C 63 % 1009,5 hPa 0,0 l/m 3,9 km/h (1 Bft) W 269 2 min 0,000 mm 5,2 UV-I 747 W/m 20,1 C 27,8 C 6,4 km/h (2 Bft) 100,00 %
25.06.2016 10:58 27,8 C 64 % 1009,5 hPa 0,0 l/m 2,6 km/h (1 Bft) N-NO 12 2 min 0,000 mm 5,2 UV-I 752 W/m 20,3 C 27,8 C 6,4 km/h (2 Bft) 100,00 %
25.06.2016 11:00 27,8 C 65 % 1009,5 hPa 0,0 l/m 4,1 km/h (1 Bft) SW 236 2 min 0,458 mm 5,1 UV-I 700 W/m 20,6 C 27,8 C 12,9 km/h (3 Bft) 100,00 %
25.06.2016 11:02 27,7 C 61 % 1009,5 hPa 0,0 l/m 6,8 km/h (2 Bft) W-NW 286 2 min 0,000 mm 5,1 UV-I 669 W/m 19,5 C 27,6 C 11,3 km/h (2 Bft) 100,00 %
25.06.2016 11:04 27,8 C 61 % 1009,4 hPa 0,0 l/m 2,3 km/h (1 Bft) W 275 2 min 0,000 mm 5,3 UV-I 740 W/m 19,6 C 27,8 C 3,2 km/h (1 Bft) 100,00 %
25.06.2016 11:06 27,8 C 60 % 1009,4 hPa 0,0 l/m 5,0 km/h (1 Bft) SW 235 2 min 0,000 mm 5,4 UV-I 752 W/m 19,3 C 27,8 C 6,4 km/h (2 Bft) 100,00 %
25.06.2016 11:08 27,9 C 64 % 1009,5 hPa 0,0 l/m 2,4 km/h (1 Bft) N-NW 329 2 min 0,000 mm 5,6 UV-I 790 W/m 20,4 C 27,9 C 6,4 km/h (2 Bft) 100,00 %
25.06.2016 11:10 27,9 C 62 % 1009,5 hPa 0,0 l/m 3,6 km/h (1 Bft) W-SW 239 2 min 0,000 mm 5,6 UV-I 797 W/m 19,9 C 27,9 C 6,4 km/h (2 Bft) 100,00 %
25.06.2016 11:12 27,8 C 61 % 1009,4 hPa 0,0 l/m 3,4 km/h (1 Bft) W 273 2 min 0,000 mm 5,7 UV-I 806 W/m 19,6 C 27,8 C 6,4 km/h (2 Bft) 100,00 %
25.06.2016 11:14 28,1 C 64 % 1009,5 hPa 0,0 l/m 5,1 km/h (1 Bft) W-NW 292 2 min 0,000 mm 5,7 UV-I 796 W/m 20,6 C 28,1 C 11,3 km/h (2 Bft) 100,00 %
25.06.2016 11:16 28,1 C 61 % 1009,5 hPa 0,0 l/m 4,0 km/h (1 Bft) N-NW 342 2 min 0,000 mm 5,7 UV-I 818 W/m 19,9 C 28,1 C 11,3 km/h (2 Bft) 100,00 %
25.06.2016 11:18 28,1 C 62 % 1009,5 hPa 0,0 l/m 0,8 km/h (0 Bft) NW 306 2 min 0,000 mm 5,8 UV-I 815 W/m 20,1 C 28,1 C 3,2 km/h (1 Bft) 100,00 %
25.06.2016 11:20 28,1 C 62 % 1009,4 hPa 0,0 l/m 1,7 km/h (1 Bft) N 5 2 min 0,000 mm 5,8 UV-I 813 W/m 20,1 C 28,1 C 3,2 km/h (1 Bft) 100,00 %
25.06.2016 11:22 28,1 C 64 % 1009,4 hPa 0,0 l/m 0,8 km/h (0 Bft) N 355 2 min 0,000 mm 5,9 UV-I 807 W/m 20,6 C 28,1 C 1,6 km/h (1 Bft) 100,00 %
25.06.2016 11:24 28,1 C 59 % 1009,3 hPa 0,0 l/m 4,9 km/h (1 Bft) W 269 2 min 0,000 mm 5,9 UV-I 803 W/m 19,3 C 28,1 C 11,3 km/h (2 Bft) 100,00 %
25.06.2016 11:26 28,2 C 60 % 1009,3 hPa 0,0 l/m 3,3 km/h (1 Bft) W 259 2 min 0,000 mm 5,9 UV-I 798 W/m 19,7 C 28,2 C 6,4 km/h (2 Bft) 100,00 %
25.06.2016 11:28 28,2 C 61 % 1009,3 hPa 0,0 l/m 2,6 km/h (1 Bft) W-NW 282 2 min 0,000 mm 5,9 UV-I 793 W/m 19,9 C 28,2 C 4,8 km/h (1 Bft) 100,00 %
25.06.2016 11:30 28,3 C 62 % 1009,3 hPa 0,0 l/m 2,7 km/h (1 Bft) W-NW 294 2 min 0,000 mm 5,9 UV-I 793 W/m 20,3 C 28,3 C 8,0 km/h (2 Bft) 100,00 %
25.06.2016 11:32 28,3 C 64 % 1009,3 hPa 0,0 l/m 2,6 km/h (1 Bft) N 9 2 min 0,000 mm 6,0 UV-I 800 W/m 20,8 C 28,3 C 4,8 km/h (1 Bft) 100,00 %
25.06.2016 11:34 28,3 C 65 % 1009,3 hPa 0,0 l/m 2,7 km/h (1 Bft) N-NW 344 2 min 0,000 mm 6,0 UV-I 803 W/m 21,1 C 28,3 C 6,4 km/h (2 Bft) 100,00 %
25.06.2016 11:36 28,3 C 64 % 1009,3 hPa 0,0 l/m 1,9 km/h (1 Bft) N 355 2 min 0,000 mm 6,1 UV-I 802 W/m 20,8 C 28,3 C 4,8 km/h (1 Bft) 100,00 %
25.06.2016 11:38 28,3 C 61 % 1009,3 hPa 0,0 l/m 1,9 km/h (1 Bft) N-NW 329 2 min 0,000 mm 6,1 UV-I 799 W/m 20,0 C 28,3 C 4,8 km/h (1 Bft) 100,00 %
25.06.2016 11:40 28,3 C 64 % 1009,3 hPa 0,0 l/m 2,0 km/h (1 Bft) N-NW 336 2 min 0,000 mm 6,1 UV-I 799 W/m 20,8 C 28,3 C 4,8 km/h (1 Bft) 100,00 %
25.06.2016 11:42 28,4 C 63 % 1009,3 hPa 0,0 l/m 3,1 km/h (1 Bft) W 271 2 min 0,000 mm 6,1 UV-I 801 W/m 20,7 C 28,4 C 6,4 km/h (2 Bft) 98,11 %
25.06.2016 11:44 28,4 C 61 % 1009,3 hPa 0,0 l/m 5,0 km/h (1 Bft) W-SW 241 2 min 0,000 mm 6,1 UV-I 802 W/m 20,1 C 28,4 C 8,0 km/h (2 Bft) 97,87 %
25.06.2016 11:46 28,3 C 58 % 1009,3 hPa 0,0 l/m 3,0 km/h (1 Bft) W-SW 242 2 min 0,000 mm 6,2 UV-I 808 W/m 19,2 C 28,3 C 8,0 km/h (2 Bft) 100,00 %
25.06.2016 11:48 28,5 C 63 % 1009,3 hPa 0,0 l/m 1,9 km/h (1 Bft) N-NW 348 2 min 0,000 mm 6,2 UV-I 808 W/m 20,8 C 28,5 C 3,2 km/h (1 Bft) 100,00 %
25.06.2016 11:50 28,5 C 62 % 1009,3 hPa 0,0 l/m 3,0 km/h (1 Bft) W-NW 299 2 min 0,000 mm 6,2 UV-I 806 W/m 20,5 C 28,5 C 8,0 km/h (2 Bft) 98,00 %
25.06.2016 11:52 28,4 C 62 % 1009,3 hPa 0,0 l/m 2,2 km/h (1 Bft) W 276 2 min 0,000 mm 6,2 UV-I 807 W/m 20,4 C 28,4 C 4,8 km/h (1 Bft) 100,00 %
25.06.2016 11:54 28,3 C 59 % 1009,3 hPa 0,0 l/m 2,0 km/h (1 Bft) NW 315 2 min 0,000 mm 6,2 UV-I 804 W/m 19,5 C 28,3 C 6,4 km/h (2 Bft) 100,00 %
25.06.2016 11:56 28,3 C 58 % 1009,2 hPa 0,0 l/m 3,6 km/h (1 Bft) W-NW 288 2 min 0,000 mm 6,2 UV-I 804 W/m 19,2 C 28,3 C 9,7 km/h (2 Bft) 96,23 %
25.06.2016 11:58 28,4 C 64 % 1009,2 hPa 0,0 l/m 2,1 km/h (1 Bft) W 277 2 min 0,000 mm 6,3 UV-I 807 W/m 20,9 C 28,4 C 6,4 km/h (2 Bft) 96,00 %
25.06.2016 12:00 28,6 C 60 % 1009,2 hPa 0,0 l/m 2,8 km/h (1 Bft) W-NW 293 2 min 0,000 mm 6,3 UV-I 807 W/m 20,1 C 28,6 C 4,8 km/h (1 Bft) 96,23 %
25.06.2016 12:02 28,6 C 65 % 1009,1 hPa 0,0 l/m 1,3 km/h (1 Bft) N 349 2 min 0,533 mm 6,3 UV-I 812 W/m 21,4 C 28,6 C 3,2 km/h (1 Bft) 98,00 %
25.06.2016 12:04 28,6 C 64 % 1009,2 hPa 0,0 l/m 3,4 km/h (1 Bft) N-NO 17 2 min 0,000 mm 6,4 UV-I 814 W/m 21,1 C 28,6 C 8,0 km/h (2 Bft) 97,87 %
25.06.2016 12:06 28,6 C 65 % 1009,1 hPa 0,0 l/m 4,4 km/h (1 Bft) N 9 2 min 0,000 mm 6,3 UV-I 810 W/m 21,4 C 28,6 C 8,0 km/h (2 Bft) 97,56 %
25.06.2016 12:08 28,7 C 65 % 1009,1 hPa 0,0 l/m 4,6 km/h (1 Bft) N-NO 13 2 min 0,000 mm 6,3 UV-I 809 W/m 21,5 C 28,7 C 8,0 km/h (2 Bft) 94,00 %
25.06.2016 12:10 28,8 C 65 % 1009,1 hPa 0,0 l/m 1,8 km/h (1 Bft) N-NO 23 2 min 0,000 mm 6,3 UV-I 810 W/m 21,5 C 28,8 C 3,2 km/h (1 Bft) 97,56 %
25.06.2016 12:12 28,8 C 61 % 1009,1 hPa 0,0 l/m 3,8 km/h (1 Bft) NW 306 2 min 0,000 mm 6,4 UV-I 809 W/m 20,5 C 28,8 C 8,0 km/h (2 Bft) 98,11 %
25.06.2016 12:14 28,8 C 63 % 1009,1 hPa 0,0 l/m 2,8 km/h (1 Bft) N-NW 327 2 min 0,000 mm 6,4 UV-I 813 W/m 21,0 C 28,8 C 6,4 km/h (2 Bft) 97,87 %
25.06.2016 12:16 28,8 C 62 % 1009,1 hPa 0,0 l/m 1,4 km/h (1 Bft) NW 323 2 min 0,000 mm 6,5 UV-I 817 W/m 20,8 C 28,8 C 3,2 km/h (1 Bft) 96,00 %
25.06.2016 12:18 28,8 C 57 % 1009,1 hPa 0,0 l/m 4,6 km/h (1 Bft) W 270 2 min 0,000 mm 6,6 UV-I 825 W/m 19,4 C 28,8 C 6,4 km/h (2 Bft) 93,33 %
25.06.2016 12:20 28,8 C 60 % 1009,0 hPa 0,0 l/m 2,8 km/h (1 Bft) N 355 2 min 0,000 mm 6,6 UV-I 821 W/m 20,2 C 28,8 C 4,8 km/h (1 Bft) 98,55 %
25.06.2016 12:22 28,9 C 65 % 1009,0 hPa 0,0 l/m 2,6 km/h (1 Bft) N-NO 23 2 min 0,000 mm 6,6 UV-I 823 W/m 21,6 C 28,9 C 6,4 km/h (2 Bft) 98,00 %
25.06.2016 12:24 29,0 C 63 % 1009,0 hPa 0,0 l/m 4,5 km/h (1 Bft) N-NO 26 2 min 0,000 mm 6,7 UV-I 833 W/m 21,2 C 29,0 C 6,4 km/h (2 Bft) 96,23 %
25.06.2016 12:26 29,1 C 63 % 1009,0 hPa 0,0 l/m 2,3 km/h (1 Bft) N 360 2 min 0,000 mm 6,7 UV-I 838 W/m 21,3 C 29,1 C 4,8 km/h (1 Bft) 100,00 %
25.06.2016 12:28 29,0 C 63 % 1009,0 hPa 0,0 l/m 2,1 km/h (1 Bft) NW 304 2 min 0,000 mm 6,8 UV-I 839 W/m 21,2 C 29,0 C 4,8 km/h (1 Bft) 98,00 %
25.06.2016 12:30 29,0 C 58 % 1009,0 hPa 0,0 l/m 2,7 km/h (1 Bft) NW 323 2 min 0,000 mm 6,7 UV-I 838 W/m 19,9 C 29,0 C 4,8 km/h (1 Bft) 100,00 %
25.06.2016 12:32 29,1 C 57 % 1009,0 hPa 0,0 l/m 2,3 km/h (1 Bft) N-NW 334 2 min 0,000 mm 6,8 UV-I 840 W/m 19,7 C 29,1 C 6,4 km/h (2 Bft) 98,21 %
25.06.2016 12:34 29,0 C 61 % 1008,9 hPa 0,0 l/m 1,2 km/h (1 Bft) N-NW 333 2 min 0,000 mm 6,7 UV-I 834 W/m 20,7 C 29,0 C 3,2 km/h (1 Bft) 97,87 %
25.06.2016 12:36 29,0 C 61 % 1008,9 hPa 0,0 l/m 1,9 km/h (1 Bft) N-NW 339 2 min 0,000 mm 6,7 UV-I 831 W/m 20,7 C 29,0 C 3,2 km/h (1 Bft) 100,00 %
25.06.2016 12:38 28,9 C 58 % 1008,8 hPa 0,0 l/m 3,0 km/h (1 Bft) W 279 2 min 0,000 mm 6,6 UV-I 828 W/m 19,8 C 28,9 C 6,4 km/h (2 Bft) 100,00 %
25.06.2016 12:40 28,8 C 58 % 1008,8 hPa 0,0 l/m 2,0 km/h (1 Bft) NO 51 2 min 0,000 mm 6,7 UV-I 829 W/m 19,7 C 28,8 C 4,8 km/h (1 Bft) 97,37 %
25.06.2016 12:42 28,9 C 59 % 1008,8 hPa 0,0 l/m 1,7 km/h (1 Bft) W 259 2 min 0,000 mm 6,7 UV-I 832 W/m 20,1 C 28,9 C 3,2 km/h (1 Bft) 100,00 %
25.06.2016 12:44 28,9 C 59 % 1008,7 hPa 0,0 l/m 3,3 km/h (1 Bft) W 281 2 min 0,000 mm 6,7 UV-I 837 W/m 20,1 C 28,9 C 6,4 km/h (2 Bft) 98,00 %
25.06.2016 12:46 29,2 C 56 % 1008,8 hPa 0,0 l/m 6,8 km/h (2 Bft) W-SW 250 2 min 0,000 mm 6,8 UV-I 839 W/m 19,5 C 29,2 C 12,9 km/h (3 Bft) 100,00 %
25.06.2016 12:48 29,2 C 58 % 1008,8 hPa 0,0 l/m 3,5 km/h (1 Bft) NW 326 2 min 0,000 mm 6,8 UV-I 840 W/m 20,1 C 29,2 C 9,7 km/h (2 Bft) 100,00 %
25.06.2016 12:50 29,2 C 64 % 1008,8 hPa 0,0 l/m 1,5 km/h (1 Bft) W-NW 296 2 min 0,000 mm 6,8 UV-I 839 W/m 21,7 C 29,2 C 3,2 km/h (1 Bft) 100,00 %
25.06.2016 12:52 29,2 C 59 % 1008,8 hPa 0,0 l/m 1,9 km/h (1 Bft) N-NW 337 2 min 0,000 mm 6,7 UV-I 834 W/m 20,3 C 29,2 C 4,8 km/h (1 Bft) 100,00 %
25.06.2016 12:54 29,2 C 58 % 1008,8 hPa 0,0 l/m 1,5 km/h (1 Bft) N 355 2 min 0,000 mm 6,7 UV-I 827 W/m 20,1 C 29,2 C 4,8 km/h (1 Bft) 98,11 %
25.06.2016 12:56 29,2 C 55 % 1008,8 hPa 0,0 l/m 3,4 km/h (1 Bft) W-SW 239 2 min 0,000 mm 6,7 UV-I 826 W/m 19,2 C 29,2 C 4,8 km/h (1 Bft) 97,37 %
25.06.2016 12:58 29,1 C 60 % 1008,7 hPa 0,0 l/m 1,7 km/h (1 Bft) SW 232 2 min 0,000 mm 6,7 UV-I 832 W/m 20,5 C 29,1 C 4,8 km/h (1 Bft) 98,00 %
25.06.2016 13:00 29,2 C 56 % 1008,6 hPa 0,0 l/m 3,9 km/h (1 Bft) O-NO 69 2 min 0,559 mm 6,7 UV-I 836 W/m 19,5 C 29,2 C 6,4 km/h (2 Bft) 100,00 %
25.06.2016 13:02 29,3 C 56 % 1008,7 hPa 0,0 l/m 4,1 km/h (1 Bft) NO 51 2 min 0,000 mm 6,7 UV-I 835 W/m 19,6 C 29,3 C 6,4 km/h (2 Bft) 98,00 %
25.06.2016 13:04 29,5 C 59 % 1008,6 hPa 0,0 l/m 3,5 km/h (1 Bft) NO 45 2 min 0,000 mm 6,7 UV-I 837 W/m 20,6 C 29,5 C 4,8 km/h (1 Bft) 100,00 %
25.06.2016 13:06 29,4 C 58 % 1008,6 hPa 0,0 l/m 4,5 km/h (1 Bft) NO 51 2 min 0,000 mm 6,8 UV-I 841 W/m 20,3 C 29,4 C 9,7 km/h (2 Bft) 100,00 %
25.06.2016 13:08 29,6 C 61 % 1008,5 hPa 0,0 l/m 4,7 km/h (1 Bft) N-NO 22 2 min 0,000 mm 6,8 UV-I 846 W/m 21,3 C 29,6 C 9,7 km/h (2 Bft) 97,87 %
25.06.2016 13:10 29,8 C 63 % 1008,5 hPa 0,0 l/m 1,8 km/h (1 Bft) N-NW 335 2 min 0,000 mm 6,8 UV-I 849 W/m 22,0 C 29,8 C 4,8 km/h (1 Bft) 100,00 %
25.06.2016 13:12 29,8 C 57 % 1008,5 hPa 0,0 l/m 4,7 km/h (1 Bft) W 267 2 min 0,000 mm 6,8 UV-I 846 W/m 20,3 C 29,8 C 9,7 km/h (2 Bft) 100,00 %
25.06.2016 13:14 29,7 C 55 % 1008,5 hPa 0,0 l/m 3,8 km/h (1 Bft) NW 309 2 min 0,000 mm 6,8 UV-I 844 W/m 19,7 C 29,7 C 6,4 km/h (2 Bft) 100,00 %
25.06.2016 13:16 29,6 C 59 % 1008,4 hPa 0,0 l/m 3,0 km/h (1 Bft) W 259 2 min 0,000 mm 6,8 UV-I 840 W/m 20,7 C 29,6 C 9,7 km/h (2 Bft) 100,00 %
25.06.2016 13:18 29,7 C 56 % 1008,4 hPa 0,0 l/m 4,2 km/h (1 Bft) W 259 2 min 0,000 mm 6,7 UV-I 836 W/m 20,0 C 29,7 C 6,4 km/h (2 Bft) 100,00 %
25.06.2016 13:20 29,6 C 55 % 1008,3 hPa 0,0 l/m 1,9 km/h (1 Bft) S 169 2 min 0,000 mm 6,7 UV-I 835 W/m 19,6 C 29,6 C 3,2 km/h (1 Bft) 100,00 %
25.06.2016 13:22 29,6 C 57 % 1008,2 hPa 0,0 l/m 3,9 km/h (1 Bft) N-NO 28 2 min 0,000 mm 6,7 UV-I 838 W/m 20,2 C 29,6 C 6,4 km/h (2 Bft) 97,73 %
25.06.2016 13:24 29,7 C 65 % 1008,2 hPa 0,0 l/m 3,2 km/h (1 Bft) NW 311 2 min 0,000 mm 6,8 UV-I 845 W/m 22,4 C 29,7 C 6,4 km/h (2 Bft) 100,00 %
25.06.2016 13:26 29,7 C 61 % 1008,2 hPa 0,0 l/m 1,6 km/h (1 Bft) N-NO 20 2 min 0,000 mm 6,8 UV-I 844 W/m 21,4 C 29,7 C 4,8 km/h (1 Bft) 100,00 %
25.06.2016 13:28 29,6 C 58 % 1008,2 hPa 0,0 l/m 1,1 km/h (1 Bft) N-NO 20 2 min 0,000 mm 6,7 UV-I 839 W/m 20,4 C 29,6 C 3,2 km/h (1 Bft) 100,00 %
25.06.2016 13:30 29,7 C 58 % 1008,2 hPa 0,0 l/m 4,0 km/h (1 Bft) NW 308 2 min 0,000 mm 6,7 UV-I 840 W/m 20,5 C 29,7 C 6,4 km/h (2 Bft) 100,00 %
25.06.2016 13:32 29,7 C 56 % 1008,2 hPa 0,0 l/m 5,2 km/h (1 Bft) W-NW 297 2 min 0,000 mm 6,7 UV-I 838 W/m 20,0 C 29,7 C 11,3 km/h (2 Bft) 100,00 %
25.06.2016 13:34 29,7 C 57 % 1008,2 hPa 0,0 l/m 2,4 km/h (1 Bft) W-NW 302 2 min 0,000 mm 6,6 UV-I 836 W/m 20,2 C 29,7 C 4,8 km/h (1 Bft) 100,00 %
25.06.2016 13:36 29,7 C 57 % 1008,1 hPa 0,0 l/m 2,5 km/h (1 Bft) NW 314 2 min 0,000 mm 6,6 UV-I 831 W/m 20,2 C 29,7 C 11,3 km/h (2 Bft) 100,00 %
25.06.2016 13:38 29,6 C 55 % 1008,1 hPa 0,0 l/m 3,6 km/h (1 Bft) N-NW 329 2 min 0,000 mm 6,6 UV-I 831 W/m 19,6 C 29,6 C 6,4 km/h (2 Bft) 100,00 %
25.06.2016 13:40 29,6 C 59 % 1008,1 hPa 0,0 l/m 2,7 km/h (1 Bft) N 11 2 min 0,000 mm 6,6 UV-I 831 W/m 20,7 C 29,6 C 4,8 km/h (1 Bft) 97,56 %
25.06.2016 13:42 29,7 C 59 % 1008,0 hPa 0,0 l/m 2,5 km/h (1 Bft) N-NW 327 2 min 0,000 mm 6,5 UV-I 827 W/m 20,8 C 29,7 C 4,8 km/h (1 Bft) 97,92 %
25.06.2016 13:44 29,8 C 58 % 1008,0 hPa 0,0 l/m 3,5 km/h (1 Bft) N-NO 15 2 min 0,000 mm 6,4 UV-I 821 W/m 20,6 C 29,8 C 6,4 km/h (2 Bft) 98,18 %
25.06.2016 13:46 29,8 C 64 % 1007,9 hPa 0,0 l/m 2,1 km/h (1 Bft) N 9 2 min 0,000 mm 6,4 UV-I 818 W/m 22,2 C 29,8 C 4,8 km/h (1 Bft) 97,62 %
25.06.2016 13:48 29,7 C 59 % 1007,9 hPa 0,0 l/m 1,7 km/h (1 Bft) N 5 2 min 0,000 mm 6,3 UV-I 799 W/m 20,8 C 29,7 C 4,8 km/h (1 Bft) 97,56 %
25.06.2016 13:50 29,6 C 61 % 1007,9 hPa 0,0 l/m 1,3 km/h (1 Bft) N-NO 18 2 min 0,000 mm 6,3 UV-I 819 W/m 21,3 C 29,6 C 3,2 km/h (1 Bft) 98,00 %
25.06.2016 13:52 29,6 C 62 % 1007,8 hPa 0,0 l/m 2,5 km/h (1 Bft) N-NO 16 2 min 0,000 mm 6,4 UV-I 821 W/m 21,5 C 29,6 C 4,8 km/h (1 Bft) 94,00 %
25.06.2016 13:54 29,7 C 61 % 1007,7 hPa 0,0 l/m 6,4 km/h (2 Bft) N-NO 31 2 min 0,000 mm 6,4 UV-I 820 W/m 21,4 C 29,7 C 12,9 km/h (3 Bft) 97,56 %
25.06.2016 13:56 29,8 C 62 % 1007,6 hPa 0,0 l/m 3,1 km/h (1 Bft) N 11 2 min 0,000 mm 6,4 UV-I 821 W/m 21,7 C 29,8 C 4,8 km/h (1 Bft) 95,74 %
25.06.2016 13:58 29,9 C 58 % 1007,6 hPa 0,0 l/m 1,4 km/h (1 Bft) W-NW 303 2 min 0,000 mm 6,4 UV-I 820 W/m 20,7 C 29,9 C 4,8 km/h (1 Bft) 98,00 %
25.06.2016 14:00 29,9 C 60 % 1007,6 hPa 0,0 l/m 3,4 km/h (1 Bft) N-NW 334 2 min 0,584 mm 6,4 UV-I 821 W/m 21,3 C 29,9 C 8,0 km/h (2 Bft) 97,87 %
25.06.2016 14:02 29,8 C 57 % 1007,6 hPa 0,0 l/m 3,7 km/h (1 Bft) N-NW 338 2 min 0,000 mm 6,5 UV-I 826 W/m 20,3 C 29,8 C 11,3 km/h (2 Bft) 98,00 %
25.06.2016 14:04 29,8 C 61 % 1007,5 hPa 0,0 l/m 6,3 km/h (2 Bft) W 268 2 min 0,000 mm 6,5 UV-I 829 W/m 21,4 C 29,8 C 12,9 km/h (3 Bft) 97,73 %
25.06.2016 14:06 29,9 C 60 % 1007,5 hPa 0,0 l/m 3,8 km/h (1 Bft) N 5 2 min 0,000 mm 6,5 UV-I 826 W/m 21,3 C 29,9 C 12,9 km/h (3 Bft) 96,23 %
25.06.2016 14:08 30,0 C 61 % 1007,5 hPa 0,0 l/m 2,4 km/h (1 Bft) N-NO 30 2 min 0,000 mm 6,3 UV-I 820 W/m 21,6 C 30,0 C 4,8 km/h (1 Bft) 95,12 %
25.06.2016 14:10 29,9 C 65 % 1007,5 hPa 0,0 l/m 3,8 km/h (1 Bft) N-NO 15 2 min 0,000 mm 6,2 UV-I 798 W/m 22,6 C 29,9 C 11,3 km/h (2 Bft) 100,00 %
25.06.2016 14:12 29,9 C 61 % 1007,4 hPa 0,0 l/m 6,1 km/h (2 Bft) N-NO 14 2 min 0,000 mm 6,2 UV-I 810 W/m 21,5 C 29,9 C 11,3 km/h (2 Bft) 98,00 %
25.06.2016 14:14 29,9 C 62 % 1007,4 hPa 0,0 l/m 4,8 km/h (1 Bft) N-NO 13 2 min 0,000 mm 6,2 UV-I 813 W/m 21,8 C 29,9 C 8,0 km/h (2 Bft) 97,87 %
25.06.2016 14:16 29,9 C 59 % 1007,4 hPa 0,0 l/m 3,3 km/h (1 Bft) NW 310 2 min 0,000 mm 6,2 UV-I 809 W/m 21,0 C 29,9 C 6,4 km/h (2 Bft) 100,00 %
25.06.2016 14:18 29,8 C 57 % 1007,3 hPa 0,0 l/m 1,4 km/h (1 Bft) N-NW 339 2 min 0,000 mm 6,2 UV-I 807 W/m 20,3 C 29,8 C 4,8 km/h (1 Bft) 100,00 %
25.06.2016 14:20 29,9 C 61 % 1007,4 hPa 0,0 l/m 4,0 km/h (1 Bft) NW 314 2 min 0,000 mm 6,1 UV-I 806 W/m 21,5 C 29,9 C 8,0 km/h (2 Bft) 100,00 %
25.06.2016 14:22 30,0 C 56 % 1007,3 hPa 0,0 l/m 4,0 km/h (1 Bft) N-NO 16 2 min 0,000 mm 6,1 UV-I 808 W/m 20,2 C 30,0 C 8,0 km/h (2 Bft) 100,00 %
25.06.2016 14:24 30,1 C 61 % 1007,2 hPa 0,0 l/m 2,5 km/h (1 Bft) W-SW 253 2 min 0,000 mm 6,1 UV-I 806 W/m 21,7 C 30,1 C 4,8 km/h (1 Bft) 97,87 %
25.06.2016 14:26 30,2 C 60 % 1007,2 hPa 0,0 l/m 2,9 km/h (1 Bft) W 281 2 min 0,000 mm 6,1 UV-I 804 W/m 21,6 C 30,2 C 6,4 km/h (2 Bft) 97,22 %
25.06.2016 14:28 30,2 C 55 % 1007,1 hPa 0,0 l/m 3,0 km/h (1 Bft) W-SW 252 2 min 0,000 mm 6,0 UV-I 800 W/m 20,1 C 30,2 C 6,4 km/h (2 Bft) 100,00 %
25.06.2016 14:30 30,2 C 58 % 1007,2 hPa 0,0 l/m 3,5 km/h (1 Bft) W 267 2 min 0,000 mm 5,9 UV-I 794 W/m 21,0 C 30,2 C 6,4 km/h (2 Bft) 100,00 %
25.06.2016 14:32 30,3 C 58 % 1007,1 hPa 0,0 l/m 4,9 km/h (1 Bft) SW 232 2 min 0,000 mm 5,9 UV-I 796 W/m 21,1 C 30,3 C 9,7 km/h (2 Bft) 100,00 %
25.06.2016 14:34 30,4 C 57 % 1007,0 hPa 0,0 l/m 2,6 km/h (1 Bft) W-SW 245 2 min 0,000 mm 6,0 UV-I 802 W/m 20,9 C 30,4 C 6,4 km/h (2 Bft) 100,00 %
25.06.2016 14:36 30,4 C 56 % 1007,0 hPa 0,0 l/m 3,7 km/h (1 Bft) N-NW 327 2 min 0,000 mm 5,9 UV-I 800 W/m 20,6 C 30,4 C 6,4 km/h (2 Bft) 100,00 %
25.06.2016 14:38 30,4 C 59 % 1006,9 hPa 0,0 l/m 2,2 km/h (1 Bft) N 5 2 min 0,000 mm 5,9 UV-I 796 W/m 21,5 C 30,4 C 3,2 km/h (1 Bft) 100,00 %
25.06.2016 14:40 30,4 C 57 % 1006,9 hPa 0,0 l/m 4,5 km/h (1 Bft) N-NO 28 2 min 0,000 mm 5,9 UV-I 792 W/m 20,9 C 30,4 C 12,9 km/h (3 Bft) 100,00 %
25.06.2016 14:42 30,3 C 63 % 1006,9 hPa 0,0 l/m 3,7 km/h (1 Bft) NW 313 2 min 0,000 mm 5,8 UV-I 785 W/m 22,4 C 30,3 C 9,7 km/h (2 Bft) 100,00 %
25.06.2016 14:44 30,3 C 60 % 1006,9 hPa 0,0 l/m 3,7 km/h (1 Bft) N 351 2 min 0,000 mm 5,7 UV-I 782 W/m 21,6 C 30,3 C 8,0 km/h (2 Bft) 100,00 %
25.06.2016 14:46 30,3 C 61 % 1006,9 hPa 0,0 l/m 1,4 km/h (1 Bft) N-NO 20 2 min 0,000 mm 5,7 UV-I 776 W/m 21,9 C 30,3 C 4,8 km/h (1 Bft) 100,00 %
25.06.2016 14:48 30,3 C 59 % 1006,8 hPa 0,0 l/m 3,6 km/h (1 Bft) W-NW 301 2 min 0,000 mm 5,6 UV-I 770 W/m 21,4 C 30,3 C 8,0 km/h (2 Bft) 100,00 %
25.06.2016 14:50 30,3 C 56 % 1006,8 hPa 0,0 l/m 3,4 km/h (1 Bft) N-NW 340 2 min 0,000 mm 5,5 UV-I 766 W/m 20,5 C 30,3 C 8,0 km/h (2 Bft) 100,00 %
25.06.2016 14:52 30,3 C 56 % 1006,8 hPa 0,0 l/m 3,2 km/h (1 Bft) N-NW 334 2 min 0,000 mm 5,5 UV-I 764 W/m 20,5 C 30,3 C 6,4 km/h (2 Bft) 100,00 %
25.06.2016 14:54 30,2 C 57 % 1006,8 hPa 0,0 l/m 2,8 km/h (1 Bft) W-NW 293 2 min 0,000 mm 5,5 UV-I 770 W/m 20,7 C 30,2 C 4,8 km/h (1 Bft) 100,00 %
25.06.2016 14:56 30,3 C 61 % 1006,8 hPa 0,0 l/m 2,7 km/h (1 Bft) W 275 2 min 0,000 mm 5,5 UV-I 768 W/m 21,9 C 30,3 C 6,4 km/h (2 Bft) 100,00 %
25.06.2016 14:58 30,3 C 55 % 1006,8 hPa 0,0 l/m 5,3 km/h (1 Bft) NW 309 2 min 0,000 mm 5,4 UV-I 760 W/m 20,2 C 30,3 C 8,0 km/h (2 Bft) 100,00 %
25.06.2016 15:00 30,3 C 55 % 1006,8 hPa 0,0 l/m 3,9 km/h (1 Bft) N-NW 340 2 min 0,559 mm 5,3 UV-I 758 W/m 20,2 C 30,3 C 8,0 km/h (2 Bft) 100,00 %
25.06.2016 15:02 30,4 C 56 % 1006,9 hPa 0,0 l/m 3,8 km/h (1 Bft) NW 315 2 min 0,000 mm 5,4 UV-I 763 W/m 20,6 C 30,4 C 9,7 km/h (2 Bft) 98,08 %
25.06.2016 15:04 30,3 C 56 % 1006,8 hPa 0,0 l/m 2,5 km/h (1 Bft) W-NW 294 2 min 0,000 mm 5,4 UV-I 762 W/m 20,5 C 30,3 C 6,4 km/h (2 Bft) 100,00 %
25.06.2016 15:06 30,4 C 59 % 1006,8 hPa 0,0 l/m 1,9 km/h (1 Bft) N-NW 339 2 min 0,000 mm 5,3 UV-I 760 W/m 21,5 C 30,4 C 4,8 km/h (1 Bft) 96,15 %
25.06.2016 15:08 30,4 C 60 % 1006,8 hPa 0,0 l/m 2,2 km/h (1 Bft) N-NW 333 2 min 0,000 mm 5,2 UV-I 756 W/m 21,7 C 30,4 C 6,4 km/h (2 Bft) 100,00 %
25.06.2016 15:10 30,3 C 58 % 1006,7 hPa 0,0 l/m 3,9 km/h (1 Bft) N 5 2 min 0,000 mm 5,2 UV-I 751 W/m 21,1 C 30,3 C 12,9 km/h (3 Bft) 100,00 %
25.06.2016 15:12 30,2 C 55 % 1006,7 hPa 0,0 l/m 4,2 km/h (1 Bft) W-NW 282 2 min 0,000 mm 5,1 UV-I 744 W/m 20,1 C 30,2 C 11,3 km/h (2 Bft) 100,00 %
25.06.2016 15:14 30,3 C 58 % 1006,7 hPa 0,0 l/m 3,4 km/h (1 Bft) NW 321 2 min 0,000 mm 5,0 UV-I 737 W/m 21,1 C 30,3 C 6,4 km/h (2 Bft) 100,00 %
25.06.2016 15:16 30,4 C 56 % 1006,7 hPa 0,0 l/m 3,2 km/h (1 Bft) W-SW 254 2 min 0,000 mm 5,0 UV-I 733 W/m 20,6 C 30,4 C 4,8 km/h (1 Bft) 100,00 %
25.06.2016 15:18 30,7 C 57 % 1006,7 hPa 0,0 l/m 3,3 km/h (1 Bft) S-SW 211 2 min 0,000 mm 4,9 UV-I 726 W/m 21,2 C 30,7 C 6,4 km/h (2 Bft) 98,11 %
25.06.2016 15:20 30,7 C 52 % 1006,6 hPa 0,0 l/m 3,5 km/h (1 Bft) N-NW 327 2 min 0,000 mm 4,9 UV-I 728 W/m 19,7 C 30,7 C 8,0 km/h (2 Bft) 98,00 %
25.06.2016 15:22 30,6 C 57 % 1006,6 hPa 0,0 l/m 1,7 km/h (1 Bft) N 350 2 min 0,000 mm 4,9 UV-I 728 W/m 21,1 C 30,6 C 3,2 km/h (1 Bft) 97,56 %
25.06.2016 15:24 30,5 C 54 % 1006,6 hPa 0,0 l/m 1,8 km/h (1 Bft) N 355 2 min 0,000 mm 4,8 UV-I 717 W/m 20,1 C 30,5 C 4,8 km/h (1 Bft) 97,87 %
25.06.2016 15:26 30,5 C 58 % 1006,6 hPa 0,0 l/m 2,4 km/h (1 Bft) NO 38 2 min 0,000 mm 4,8 UV-I 718 W/m 21,3 C 30,5 C 4,8 km/h (1 Bft) 96,00 %
25.06.2016 15:28 30,6 C 56 % 1006,5 hPa 0,0 l/m 3,1 km/h (1 Bft) NW 322 2 min 0,000 mm 4,7 UV-I 714 W/m 20,8 C 30,6 C 6,4 km/h (2 Bft) 97,56 %
25.06.2016 15:30 30,7 C 61 % 1006,5 hPa 0,0 l/m 1,3 km/h (1 Bft) NW 313 2 min 0,000 mm 4,7 UV-I 713 W/m 22,3 C 30,7 C 3,2 km/h (1 Bft) 98,21 %
25.06.2016 15:32 30,7 C 54 % 1006,5 hPa 0,0 l/m 6,0 km/h (2 Bft) N-NW 335 2 min 0,000 mm 4,7 UV-I 711 W/m 20,3 C 30,7 C 11,3 km/h (2 Bft) 97,37 %
25.06.2016 15:34 30,7 C 56 % 1006,5 hPa 0,0 l/m 1,3 km/h (1 Bft) N-NW 342 2 min 0,000 mm 4,6 UV-I 704 W/m 20,9 C 30,7 C 3,2 km/h (1 Bft) 96,23 %
25.06.2016 15:36 30,7 C 59 % 1006,4 hPa 0,0 l/m 2,1 km/h (1 Bft) N-NW 334 2 min 0,000 mm 4,6 UV-I 703 W/m 21,7 C 30,7 C 6,4 km/h (2 Bft) 100,00 %
25.06.2016 15:38 30,6 C 54 % 1006,3 hPa 0,0 l/m 1,9 km/h (1 Bft) N-NW 348 2 min 0,000 mm 4,6 UV-I 704 W/m 20,2 C 30,6 C 4,8 km/h (1 Bft) 96,36 %
25.06.2016 15:40 30,6 C 58 % 1006,4 hPa 0,0 l/m 3,7 km/h (1 Bft) N 360 2 min 0,000 mm 4,5 UV-I 700 W/m 21,4 C 30,6 C 9,7 km/h (2 Bft) 97,87 %
25.06.2016 15:42 30,6 C 60 % 1006,3 hPa 0,0 l/m 2,0 km/h (1 Bft) W-NW 302 2 min 0,000 mm 4,4 UV-I 696 W/m 21,9 C 30,6 C 4,8 km/h (1 Bft) 97,62 %
25.06.2016 15:44 30,5 C 61 % 1006,3 hPa 0,0 l/m 3,6 km/h (1 Bft) N-NO 17 2 min 0,000 mm 4,4 UV-I 695 W/m 22,1 C 30,5 C 11,3 km/h (2 Bft) 98,11 %
25.06.2016 15:46 30,4 C 59 % 1006,3 hPa 0,0 l/m 3,5 km/h (1 Bft) N-NO 12 2 min 0,000 mm 4,4 UV-I 690 W/m 21,5 C 30,4 C 8,0 km/h (2 Bft) 98,00 %
25.06.2016 15:48 30,4 C 57 % 1006,3 hPa 0,0 l/m 3,3 km/h (1 Bft) N-NW 346 2 min 0,000 mm 4,3 UV-I 684 W/m 20,9 C 30,4 C 6,4 km/h (2 Bft) 94,74 %
25.06.2016 15:50 30,4 C 56 % 1006,4 hPa 0,0 l/m 5,1 km/h (1 Bft) W-SW 240 2 min 0,000 mm 4,2 UV-I 679 W/m 20,6 C 30,4 C 12,9 km/h (3 Bft) 100,00 %
25.06.2016 15:52 30,6 C 54 % 1006,4 hPa 0,0 l/m 5,3 km/h (1 Bft) N-NW 329 2 min 0,000 mm 4,2 UV-I 675 W/m 20,2 C 30,6 C 11,3 km/h (2 Bft) 97,87 %
25.06.2016 15:54 30,7 C 57 % 1006,4 hPa 0,0 l/m 2,4 km/h (1 Bft) NW 309 2 min 0,000 mm 4,1 UV-I 671 W/m 21,2 C 30,7 C 4,8 km/h (1 Bft) 100,00 %
25.06.2016 15:56 30,6 C 60 % 1006,4 hPa 0,0 l/m 2,6 km/h (1 Bft) NW 326 2 min 0,000 mm 4,1 UV-I 670 W/m 21,9 C 30,6 C 6,4 km/h (2 Bft) 100,00 %
25.06.2016 15:58 30,6 C 55 % 1006,3 hPa 0,0 l/m 1,3 km/h (1 Bft) N 355 2 min 0,000 mm 4,0 UV-I 670 W/m 20,5 C 30,6 C 3,2 km/h (1 Bft) 100,00 %
25.06.2016 16:00 30,5 C 55 % 1006,3 hPa 0,0 l/m 1,2 km/h (1 Bft) N-NW 336 2 min 0,508 mm 4,0 UV-I 666 W/m 20,4 C 30,5 C 3,2 km/h (1 Bft) 100,00 %
25.06.2016 16:02 30,6 C 54 % 1006,3 hPa 0,0 l/m 2,9 km/h (1 Bft) N-NW 338 2 min 0,000 mm 4,0 UV-I 658 W/m 20,2 C 30,6 C 6,4 km/h (2 Bft) 100,00 %
25.06.2016 16:04 30,6 C 55 % 1006,4 hPa 0,0 l/m 1,6 km/h (1 Bft) N 351 2 min 0,000 mm 3,8 UV-I 649 W/m 20,5 C 30,6 C 3,2 km/h (1 Bft) 100,00 %
25.06.2016 16:06 30,6 C 60 % 1006,3 hPa 0,0 l/m 1,2 km/h (1 Bft) N 5 2 min 0,000 mm 3,8 UV-I 642 W/m 21,9 C 30,6 C 3,2 km/h (1 Bft) 98,00 %
25.06.2016 16:08 30,6 C 55 % 1006,2 hPa 0,0 l/m 2,0 km/h (1 Bft) W-NW 301 2 min 0,000 mm 3,7 UV-I 638 W/m 20,5 C 30,6 C 4,8 km/h (1 Bft) 100,00 %
25.06.2016 16:10 30,7 C 57 % 1006,2 hPa 0,0 l/m 2,1 km/h (1 Bft) W-NW 300 2 min 0,000 mm 3,7 UV-I 636 W/m 21,2 C 30,7 C 4,8 km/h (1 Bft) 97,14 %
25.06.2016 16:12 30,7 C 56 % 1006,1 hPa 0,0 l/m 3,2 km/h (1 Bft) NW 313 2 min 0,000 mm 3,7 UV-I 636 W/m 20,9 C 30,7 C 4,8 km/h (1 Bft) 100,00 %
25.06.2016 16:14 30,8 C 56 % 1006,1 hPa 0,0 l/m 2,7 km/h (1 Bft) W-NW 294 2 min 0,000 mm 3,6 UV-I 629 W/m 21,0 C 30,8 C 8,0 km/h (2 Bft) 100,00 %
25.06.2016 16:16 30,7 C 56 % 1006,1 hPa 0,0 l/m 2,7 km/h (1 Bft) N 5 2 min 0,000 mm 3,5 UV-I 627 W/m 20,9 C 30,7 C 6,4 km/h (2 Bft) 100,00 %
25.06.2016 16:18 30,6 C 57 % 1006,1 hPa 0,0 l/m 1,9 km/h (1 Bft) N-NO 13 2 min 0,000 mm 3,5 UV-I 626 W/m 21,1 C 30,6 C 4,8 km/h (1 Bft) 100,00 %
25.06.2016 16:20 30,6 C 55 % 1006,0 hPa 0,0 l/m 2,7 km/h (1 Bft) N-NW 330 2 min 0,000 mm 3,5 UV-I 621 W/m 20,5 C 30,6 C 6,4 km/h (2 Bft) 100,00 %
25.06.2016 16:22 30,6 C 58 % 1006,1 hPa 0,0 l/m 1,5 km/h (1 Bft) N 355 2 min 0,000 mm 3,4 UV-I 616 W/m 21,4 C 30,6 C 3,2 km/h (1 Bft) 98,00 %
25.06.2016 16:24 30,6 C 56 % 1006,1 hPa 0,0 l/m 1,1 km/h (1 Bft) N 355 2 min 0,000 mm 3,3 UV-I 609 W/m 20,8 C 30,6 C 3,2 km/h (1 Bft) 100,00 %
25.06.2016 16:26 30,6 C 55 % 1006,1 hPa 0,0 l/m 2,5 km/h (1 Bft) NW 304 2 min 0,000 mm 3,3 UV-I 617 W/m 20,5 C 30,6 C 4,8 km/h (1 Bft) 100,00 %
25.06.2016 16:28 30,8 C 54 % 1006,1 hPa 0,0 l/m 1,0 km/h (0 Bft) NW 319 2 min 0,000 mm 3,3 UV-I 607 W/m 20,4 C 30,8 C 1,6 km/h (1 Bft) 100,00 %
25.06.2016 16:30 30,9 C 53 % 1006,0 hPa 0,0 l/m 2,7 km/h (1 Bft) N-NW 339 2 min 0,000 mm 3,2 UV-I 576 W/m 20,2 C 30,9 C 4,8 km/h (1 Bft) 100,00 %
25.06.2016 16:32 30,8 C 53 % 1005,9 hPa 0,0 l/m 1,4 km/h (1 Bft) N-NW 340 2 min 0,000 mm 3,2 UV-I 593 W/m 20,1 C 30,8 C 3,2 km/h (1 Bft) 100,00 %
25.06.2016 16:34 30,7 C 57 % 1005,9 hPa 0,0 l/m 1,3 km/h (1 Bft) NW 313 2 min 0,000 mm 3,1 UV-I 580 W/m 21,2 C 30,7 C 3,2 km/h (1 Bft) 100,00 %
25.06.2016 16:36 30,7 C 55 % 1005,8 hPa 0,0 l/m 1,5 km/h (1 Bft) N 360 2 min 0,000 mm 3,0 UV-I 557 W/m 20,6 C 30,7 C 3,2 km/h (1 Bft) 100,00 %
25.06.2016 16:38 30,7 C 52 % 1005,8 hPa 0,0 l/m 1,4 km/h (1 Bft) N-NW 348 2 min 0,000 mm 2,9 UV-I 539 W/m 19,7 C 30,7 C 4,8 km/h (1 Bft) 100,00 %
25.06.2016 16:40 30,7 C 57 % 1005,8 hPa 0,0 l/m 1,9 km/h (1 Bft) N-NO 30 2 min 0,000 mm 2,8 UV-I 517 W/m 21,2 C 30,7 C 3,2 km/h (1 Bft) 100,00 %
25.06.2016 16:42 30,6 C 59 % 1005,8 hPa 0,0 l/m 2,4 km/h (1 Bft) NW 319 2 min 0,000 mm 2,8 UV-I 521 W/m 21,6 C 30,6 C 4,8 km/h (1 Bft) 100,00 %
25.06.2016 16:44 30,6 C 57 % 1005,7 hPa 0,0 l/m 2,5 km/h (1 Bft) NW 319 2 min 0,000 mm 2,9 UV-I 557 W/m 21,1 C 30,6 C 4,8 km/h (1 Bft) 96,43 %
25.06.2016 16:46 30,6 C 55 % 1005,7 hPa 0,0 l/m 1,9 km/h (1 Bft) N-NW 339 2 min 0,000 mm 2,8 UV-I 576 W/m 20,5 C 30,6 C 3,2 km/h (1 Bft) 100,00 %
25.06.2016 16:48 30,7 C 58 % 1005,7 hPa 0,0 l/m 1,4 km/h (1 Bft) N-NW 337 2 min 0,000 mm 2,7 UV-I 555 W/m 21,5 C 30,7 C 3,2 km/h (1 Bft) 100,00 %
25.06.2016 16:50 30,7 C 61 % 1005,7 hPa 0,0 l/m 2,9 km/h (1 Bft) W-NW 296 2 min 0,000 mm 2,5 UV-I 476 W/m 22,3 C 30,7 C 4,8 km/h (1 Bft) 100,00 %
25.06.2016 16:52 30,7 C 55 % 1005,6 hPa 0,0 l/m 2,6 km/h (1 Bft) W-NW 300 2 min 0,000 mm 2,2 UV-I 387 W/m 20,6 C 30,7 C 4,8 km/h (1 Bft) 100,00 %
25.06.2016 16:54 30,7 C 54 % 1005,6 hPa 0,0 l/m 2,7 km/h (1 Bft) W-NW 290 2 min 0,000 mm 2,1 UV-I 361 W/m 20,3 C 30,7 C 6,4 km/h (2 Bft) 98,11 %
25.06.2016 16:56 30,7 C 54 % 1005,6 hPa 0,0 l/m 4,1 km/h (1 Bft) W 269 2 min 0,000 mm 2,1 UV-I 407 W/m 20,3 C 30,7 C 4,8 km/h (1 Bft) 97,87 %
25.06.2016 16:58 30,7 C 57 % 1005,6 hPa 0,0 l/m 2,1 km/h (1 Bft) W 273 0 min 0,000 mm 2,0 UV-I 328 W/m 21,2 C 30,7 C 3,2 km/h (1 Bft) 97,87 %
25.06.2016 17:00 30,6 C 59 % 1005,6 hPa 0,0 l/m 2,0 km/h (1 Bft) W 263 0 min 0,000 mm 1,8 UV-I 282 W/m 21,6 C 30,6 C 3,2 km/h (1 Bft) 97,44 %
25.06.2016 17:02 30,4 C 55 % 1005,5 hPa 0,0 l/m 2,3 km/h (1 Bft) W 263 0 min 0,381 mm 1,7 UV-I 255 W/m 20,3 C 30,4 C 4,8 km/h (1 Bft) 96,23 %
25.06.2016 17:04 30,3 C 61 % 1005,5 hPa 0,0 l/m 1,0 km/h (0 Bft) W 264 0 min 0,000 mm 1,6 UV-I 232 W/m 21,9 C 30,3 C 3,2 km/h (1 Bft) 98,00 %
25.06.2016 17:06 30,2 C 57 % 1005,5 hPa 0,0 l/m 1,2 km/h (1 Bft) W 264 0 min 0,000 mm 1,5 UV-I 221 W/m 20,7 C 30,2 C 3,2 km/h (1 Bft) 97,87 %
25.06.2016 17:08 30,1 C 56 % 1005,5 hPa 0,0 l/m 1,2 km/h (1 Bft) W 274 0 min 0,000 mm 1,5 UV-I 222 W/m 20,3 C 30,1 C 3,2 km/h (1 Bft) 97,37 %
25.06.2016 17:10 30,1 C 60 % 1005,5 hPa 0,0 l/m 1,3 km/h (1 Bft) NW 310 0 min 0,000 mm 1,4 UV-I 195 W/m 21,5 C 30,1 C 3,2 km/h (1 Bft) 98,00 %
25.06.2016 17:12 29,9 C 58 % 1005,3 hPa 0,0 l/m 1,0 km/h (0 Bft) N-NW 328 0 min 0,000 mm 1,3 UV-I 167 W/m 20,7 C 29,9 C 3,2 km/h (1 Bft) 98,00 %
25.06.2016 17:14 29,8 C 59 % 1005,3 hPa 0,0 l/m 1,5 km/h (1 Bft) N-NW 329 0 min 0,000 mm 1,2 UV-I 157 W/m 20,9 C 29,8 C 3,2 km/h (1 Bft) 97,87 %
25.06.2016 17:16 29,6 C 59 % 1005,3 hPa 0,0 l/m 1,6 km/h (1 Bft) N-NW 340 0 min 0,000 mm 1,2 UV-I 153 W/m 20,7 C 29,6 C 3,2 km/h (1 Bft) 95,12 %
25.06.2016 17:18 29,4 C 62 % 1005,2 hPa 0,0 l/m 0,6 km/h (0 Bft) N-NW 340 0 min 0,000 mm 1,1 UV-I 150 W/m 21,3 C 29,4 C 1,6 km/h (1 Bft) 96,00 %
25.06.2016 17:20 29,3 C 61 % 1005,1 hPa 0,0 l/m 0,8 km/h (0 Bft) N-NW 340 0 min 0,000 mm 1,1 UV-I 149 W/m 21,0 C 29,3 C 1,6 km/h (1 Bft) 95,74 %
25.06.2016 17:22 29,4 C 60 % 1005,1 hPa 0,0 l/m 0,4 km/h (0 Bft) N-NW 340 0 min 0,000 mm 1,1 UV-I 149 W/m 20,8 C 29,4 C 1,6 km/h (1 Bft) 98,00 %
25.06.2016 17:24 29,4 C 59 % 1005,1 hPa 0,0 l/m 1,4 km/h (1 Bft) N-NW 340 0 min 0,000 mm 1,0 UV-I 149 W/m 20,5 C 29,4 C 1,6 km/h (1 Bft) 100,00 %
25.06.2016 17:26 29,5 C 61 % 1005,0 hPa 0,0 l/m 1,2 km/h (1 Bft) N-NW 340 0 min 0,000 mm 1,0 UV-I 149 W/m 21,2 C 29,5 C 3,2 km/h (1 Bft) 100,00 %
25.06.2016 17:28 29,5 C 60 % 1005,0 hPa 0,0 l/m 0,7 km/h (0 Bft) N-NW 340 0 min 0,000 mm 1,0 UV-I 152 W/m 20,9 C 29,5 C 3,2 km/h (1 Bft) 100,00 %
25.06.2016 17:30 29,5 C 58 % 1005,0 hPa 0,0 l/m 0,3 km/h (0 Bft) N-NW 340 0 min 0,000 mm 1,0 UV-I 155 W/m 20,3 C 29,5 C 1,6 km/h (1 Bft) 96,00 %
25.06.2016 17:32 29,6 C 59 % 1005,0 hPa 0,0 l/m 0,3 km/h (0 Bft) N-NW 340 0 min 0,000 mm 1,0 UV-I 157 W/m 20,7 C 29,6 C 1,6 km/h (1 Bft) 100,00 %
25.06.2016 17:34 29,6 C 58 % 1004,9 hPa 0,0 l/m 1,1 km/h (1 Bft) N-NW 340 0 min 0,000 mm 0,9 UV-I 165 W/m 20,4 C 29,6 C 1,6 km/h (1 Bft) 100,00 %
25.06.2016 17:36 29,6 C 63 % 1004,9 hPa 0,0 l/m 1,0 km/h (0 Bft) N-NW 340 0 min 0,000 mm 0,9 UV-I 168 W/m 21,8 C 29,6 C 3,2 km/h (1 Bft) 100,00 %
25.06.2016 17:38 29,5 C 61 % 1004,8 hPa 0,0 l/m 1,1 km/h (1 Bft) N-NW 340 0 min 0,000 mm 0,9 UV-I 149 W/m 21,2 C 29,5 C 3,2 km/h (1 Bft) 100,00 %
25.06.2016 17:40 29,5 C 63 % 1004,8 hPa 0,0 l/m 1,0 km/h (0 Bft) N-NW 340 0 min 0,000 mm 0,8 UV-I 144 W/m 21,7 C 29,5 C 1,6 km/h (1 Bft) 100,00 %
25.06.2016 17:42 29,4 C 61 % 1004,8 hPa 0,0 l/m 0,4 km/h (0 Bft) N-NW 340 0 min 0,000 mm 0,8 UV-I 140 W/m 21,1 C 29,4 C 1,6 km/h (1 Bft) 100,00 %
25.06.2016 17:44 29,3 C 63 % 1004,8 hPa 0,0 l/m 0,3 km/h (0 Bft) N-NW 340 0 min 0,000 mm 0,8 UV-I 138 W/m 21,5 C 29,3 C 1,6 km/h (1 Bft) 100,00 %
25.06.2016 17:46 29,1 C 70 % 1004,8 hPa 0,0 l/m 0,5 km/h (0 Bft) N-NW 340 0 min 0,000 mm 0,8 UV-I 135 W/m 23,1 C 29,1 C 1,6 km/h (1 Bft) 100,00 %
25.06.2016 17:48 28,9 C 70 % 1004,8 hPa 0,0 l/m 0,3 km/h (0 Bft) N-NW 340 0 min 0,000 mm 0,7 UV-I 134 W/m 22,9 C 28,9 C 3,2 km/h (1 Bft) 100,00 %
25.06.2016 17:50 28,8 C 68 % 1004,8 hPa 0,0 l/m 1,3 km/h (1 Bft) N-NW 338 0 min 0,000 mm 0,7 UV-I 132 W/m 22,3 C 28,8 C 4,8 km/h (1 Bft) 98,00 %
25.06.2016 17:52 28,8 C 64 % 1004,8 hPa 0,0 l/m 1,3 km/h (1 Bft) N-NW 329 0 min 0,000 mm 0,7 UV-I 127 W/m 21,3 C 28,8 C 4,8 km/h (1 Bft) 100,00 %
25.06.2016 17:54 28,9 C 63 % 1004,8 hPa 0,0 l/m 0,4 km/h (0 Bft) N-NW 329 0 min 0,000 mm 0,6 UV-I 121 W/m 21,1 C 28,9 C 1,6 km/h (1 Bft) 100,00 %
25.06.2016 17:56 28,9 C 64 % 1004,8 hPa 0,0 l/m 0,4 km/h (0 Bft) N-NW 329 0 min 0,000 mm 0,6 UV-I 115 W/m 21,4 C 28,9 C 1,6 km/h (1 Bft) 100,00 %
25.06.2016 17:58 28,9 C 65 % 1004,8 hPa 0,0 l/m 0,1 km/h (0 Bft) N-NW 329 0 min 0,000 mm 0,6 UV-I 111 W/m 21,6 C 28,9 C 1,6 km/h (1 Bft) 100,00 %
25.06.2016 18:00 28,9 C 65 % 1004,7 hPa 0,0 l/m 0,1 km/h (0 Bft) N-NW 329 0 min 0,127 mm 0,6 UV-I 111 W/m 21,6 C 28,9 C 1,6 km/h (1 Bft) 100,00 %
25.06.2016 18:02 28,9 C 64 % 1004,6 hPa 0,0 l/m 0,0 km/h (0 Bft) N-NW 329 0 min 0,000 mm 0,6 UV-I 121 W/m 21,4 C 28,9 C 1,6 km/h (1 Bft) 97,87 %
25.06.2016 18:04 28,9 C 67 % 1004,6 hPa 0,0 l/m 0,2 km/h (0 Bft) N-NW 329 0 min 0,000 mm 0,6 UV-I 167 W/m 22,1 C 28,9 C 1,6 km/h (1 Bft) 100,00 %
25.06.2016 18:06 28,8 C 68 % 1004,5 hPa 0,0 l/m 0,3 km/h (0 Bft) N-NW 329 0 min 0,000 mm 0,5 UV-I 122 W/m 22,3 C 28,8 C 1,6 km/h (1 Bft) 100,00 %
25.06.2016 18:08 28,8 C 65 % 1004,4 hPa 0,0 l/m 0,1 km/h (0 Bft) N-NW 329 0 min 0,000 mm 0,5 UV-I 138 W/m 21,5 C 28,8 C 1,6 km/h (1 Bft) 98,00 %
25.06.2016 18:10 28,8 C 68 % 1004,4 hPa 0,0 l/m 0,3 km/h (0 Bft) N-NW 329 0 min 0,000 mm 0,5 UV-I 97 W/m 22,3 C 28,8 C 1,6 km/h (1 Bft) 100,00 %
25.06.2016 18:12 28,7 C 67 % 1004,4 hPa 0,0 l/m 0,6 km/h (0 Bft) N-NW 329 0 min 0,000 mm 0,0 UV-I 84 W/m 21,9 C 28,7 C 3,2 km/h (1 Bft) 100,00 %
25.06.2016 18:14 28,7 C 66 % 1004,4 hPa 0,0 l/m 0,3 km/h (0 Bft) N-NW 329 0 min 0,000 mm 0,0 UV-I 71 W/m 21,7 C 28,7 C 1,6 km/h (1 Bft) 100,00 %
25.06.2016 18:16 28,6 C 68 % 1004,4 hPa 0,0 l/m 0,4 km/h (0 Bft) N-NW 329 0 min 0,000 mm 0,0 UV-I 67 W/m 22,1 C 28,6 C 3,2 km/h (1 Bft) 100,00 %
25.06.2016 18:18 28,5 C 67 % 1004,5 hPa 0,0 l/m 0,1 km/h (0 Bft) N-NW 329 0 min 0,000 mm 0,0 UV-I 67 W/m 21,8 C 28,5 C 1,6 km/h (1 Bft) 100,00 %
25.06.2016 18:20 28,4 C 66 % 1004,5 hPa 0,0 l/m 0,6 km/h (0 Bft) N-NW 330 0 min 0,000 mm 0,0 UV-I 68 W/m 21,4 C 28,4 C 3,2 km/h (1 Bft) 100,00 %
25.06.2016 18:22 28,4 C 65 % 1004,5 hPa 0,0 l/m 0,5 km/h (0 Bft) N-NW 330 0 min 0,000 mm 0,0 UV-I 68 W/m 21,2 C 28,4 C 1,6 km/h (1 Bft) 100,00 %
25.06.2016 18:24 28,3 C 67 % 1004,4 hPa 0,0 l/m 0,4 km/h (0 Bft) N-NW 330 0 min 0,000 mm 0,0 UV-I 67 W/m 21,6 C 28,3 C 1,6 km/h (1 Bft) 100,00 %
25.06.2016 18:26 28,3 C 67 % 1004,4 hPa 0,0 l/m 0,8 km/h (0 Bft) N-NW 331 0 min 0,000 mm 0,0 UV-I 64 W/m 21,6 C 28,3 C 3,2 km/h (1 Bft) 100,00 %
25.06.2016 18:28 28,2 C 66 % 1004,5 hPa 0,0 l/m 0,0 km/h (0 Bft) N-NW 331 0 min 0,000 mm 0,0 UV-I 62 W/m 21,2 C 28,2 C 1,6 km/h (1 Bft) 100,00 %
25.06.2016 18:30 28,2 C 65 % 1004,7 hPa 0,0 l/m 0,1 km/h (0 Bft) N-NW 331 0 min 0,000 mm 0,0 UV-I 62 W/m 21,0 C 28,2 C 1,6 km/h (1 Bft) 100,00 %
25.06.2016 18:32 28,3 C 65 % 1004,8 hPa 0,0 l/m 0,9 km/h (0 Bft) N-NW 331 0 min 0,000 mm 0,0 UV-I 62 W/m 21,1 C 28,3 C 1,6 km/h (1 Bft) 100,00 %
25.06.2016 18:34 28,4 C 63 % 1004,8 hPa 0,0 l/m 1,5 km/h (1 Bft) N-NW 331 0 min 0,000 mm 0,0 UV-I 62 W/m 20,7 C 28,4 C 3,2 km/h (1 Bft) 97,56 %
25.06.2016 18:36 28,6 C 65 % 1004,8 hPa 0,0 l/m 1,6 km/h (1 Bft) N-NW 331 0 min 0,000 mm 0,0 UV-I 62 W/m 21,4 C 28,6 C 3,2 km/h (1 Bft) 97,87 %
25.06.2016 18:38 28,6 C 65 % 1004,8 hPa 0,0 l/m 0,9 km/h (0 Bft) N-NW 331 0 min 0,000 mm 0,0 UV-I 62 W/m 21,4 C 28,6 C 3,2 km/h (1 Bft) 98,00 %
25.06.2016 18:40 28,6 C 64 % 1004,8 hPa 0,0 l/m 0,4 km/h (0 Bft) N-NW 331 0 min 0,000 mm 0,0 UV-I 60 W/m 21,1 C 28,6 C 1,6 km/h (1 Bft) 97,56 %
25.06.2016 18:42 28,6 C 64 % 1004,8 hPa 0,0 l/m 0,8 km/h (0 Bft) N-NW 331 0 min 0,000 mm 0,0 UV-I 58 W/m 21,1 C 28,6 C 3,2 km/h (1 Bft) 98,11 %
25.06.2016 18:44 28,6 C 64 % 1005,0 hPa 0,0 l/m 1,5 km/h (1 Bft) N-NW 331 0 min 0,000 mm 0,0 UV-I 55 W/m 21,1 C 28,6 C 3,2 km/h (1 Bft) 96,00 %
25.06.2016 18:46 28,6 C 64 % 1005,1 hPa 0,0 l/m 1,2 km/h (1 Bft) N-NW 331 0 min 0,000 mm 0,0 UV-I 52 W/m 21,1 C 28,6 C 3,2 km/h (1 Bft) 97,56 %
25.06.2016 18:48 28,6 C 66 % 1005,1 hPa 0,0 l/m 0,7 km/h (0 Bft) N-NW 331 0 min 0,000 mm 0,0 UV-I 48 W/m 21,6 C 28,6 C 1,6 km/h (1 Bft) 97,87 %
25.06.2016 18:50 28,5 C 68 % 1005,1 hPa 0,0 l/m 1,3 km/h (1 Bft) N-NW 331 0 min 0,000 mm 0,0 UV-I 46 W/m 22,0 C 28,5 C 1,6 km/h (1 Bft) 98,00 %
25.06.2016 18:52 28,4 C 68 % 1005,1 hPa 0,0 l/m 1,9 km/h (1 Bft) N-NW 331 0 min 0,000 mm 0,0 UV-I 41 W/m 21,9 C 28,4 C 3,2 km/h (1 Bft) 96,00 %
25.06.2016 18:54 28,4 C 68 % 1005,2 hPa 0,0 l/m 1,3 km/h (1 Bft) N-NW 331 0 min 0,000 mm 0,0 UV-I 38 W/m 21,9 C 28,4 C 3,2 km/h (1 Bft) 97,44 %
25.06.2016 18:56 28,3 C 71 % 1005,1 hPa 0,0 l/m 0,6 km/h (0 Bft) N-NW 331 0 min 0,000 mm 0,0 UV-I 35 W/m 22,5 C 28,3 C 1,6 km/h (1 Bft) 97,96 %
25.06.2016 18:58 28,2 C 72 % 1005,0 hPa 0,0 l/m 1,9 km/h (1 Bft) N-NW 331 0 min 0,000 mm 0,0 UV-I 33 W/m 22,7 C 28,2 C 3,2 km/h (1 Bft) 97,44 %
25.06.2016 19:00 27,9 C 72 % 1004,8 hPa 0,0 l/m 2,8 km/h (1 Bft) N-NW 333 0 min 0,051 mm 0,0 UV-I 32 W/m 22,4 C 27,9 C 3,2 km/h (1 Bft) 98,00 %
25.06.2016 19:02 27,8 C 70 % 1004,8 hPa 0,0 l/m 2,0 km/h (1 Bft) N-NW 333 0 min 0,000 mm 0,0 UV-I 29 W/m 21,8 C 27,8 C 3,2 km/h (1 Bft) 97,87 %
25.06.2016 19:04 27,8 C 70 % 1004,8 hPa 0,0 l/m 1,7 km/h (1 Bft) N-NW 333 0 min 0,000 mm 0,0 UV-I 27 W/m 21,8 C 27,8 C 3,2 km/h (1 Bft) 97,87 %
25.06.2016 19:06 27,7 C 70 % 1004,8 hPa 0,0 l/m 1,2 km/h (1 Bft) N-NW 333 0 min 0,000 mm 0,0 UV-I 26 W/m 21,7 C 27,7 C 3,2 km/h (1 Bft) 100,00 %
25.06.2016 19:08 27,8 C 68 % 1004,9 hPa 0,0 l/m 0,2 km/h (0 Bft) N-NW 333 0 min 0,000 mm 0,0 UV-I 25 W/m 21,3 C 27,8 C 1,6 km/h (1 Bft) 98,11 %
25.06.2016 19:10 27,8 C 71 % 1005,1 hPa 0,0 l/m 0,0 km/h (0 Bft) N-NW 333 0 min 0,000 mm 0,0 UV-I 23 W/m 22,0 C 27,8 C 0,0 km/h (0 Bft) 100,00 %
25.06.2016 19:12 27,7 C 72 % 1005,2 hPa 0,0 l/m 0,0 km/h (0 Bft) N-NW 333 0 min 0,000 mm 0,0 UV-I 22 W/m 22,2 C 27,7 C 0,0 km/h (0 Bft) 98,00 %
25.06.2016 19:14 27,6 C 72 % 1005,3 hPa 0,0 l/m 0,1 km/h (0 Bft) N-NW 333 0 min 0,000 mm 0,0 UV-I 20 W/m 22,1 C 27,6 C 1,6 km/h (1 Bft) 100,00 %
25.06.2016 19:16 27,5 C 73 % 1005,4 hPa 0,0 l/m 2,3 km/h (1 Bft) N-NW 329 0 min 0,000 mm 0,0 UV-I 19 W/m 22,2 C 27,5 C 4,8 km/h (1 Bft) 100,00 %
25.06.2016 19:18 27,4 C 73 % 1005,5 hPa 0,0 l/m 6,4 km/h (2 Bft) W-SW 237 0 min 0,000 mm 0,0 UV-I 18 W/m 22,1 C 27,4 C 9,7 km/h (2 Bft) 97,87 %
25.06.2016 19:20 27,2 C 76 % 1005,6 hPa 0,0 l/m 8,3 km/h (2 Bft) S-SW 194 0 min 0,000 mm 0,0 UV-I 18 W/m 22,6 C 26,9 C 12,9 km/h (3 Bft) 100,00 %
25.06.2016 19:22 27,0 C 77 % 1005,6 hPa 0,0 l/m 4,7 km/h (1 Bft) W-SW 238 0 min 0,000 mm 0,0 UV-I 16 W/m 22,6 C 27,0 C 8,0 km/h (2 Bft) 97,37 %
25.06.2016 19:24 26,9 C 76 % 1005,7 hPa 0,0 l/m 7,3 km/h (2 Bft) W-SW 248 0 min 0,000 mm 0,0 UV-I 16 W/m 22,3 C 26,7 C 11,3 km/h (2 Bft) 100,00 %
25.06.2016 19:26 26,8 C 72 % 1006,0 hPa 0,0 l/m 10,5 km/h (2 Bft) SW 233 0 min 0,000 mm 0,0 UV-I 14 W/m 21,3 C 26,1 C 17,7 km/h (3 Bft) 100,00 %
25.06.2016 19:28 26,9 C 71 % 1006,4 hPa 0,0 l/m 17,0 km/h (3 Bft) W-SW 253 0 min 0,000 mm 0,0 UV-I 13 W/m 21,2 C 25,4 C 27,4 km/h (4 Bft) 100,00 %
25.06.2016 19:30 27,0 C 70 % 1006,9 hPa 0,0 l/m 25,3 km/h (4 Bft) SW 214 0 min 0,000 mm 0,0 UV-I 8 W/m 21,0 C 24,8 C 61,2 km/h (7 Bft) 100,00 %
25.06.2016 19:32 26,4 C 61 % 1007,1 hPa 0,0 l/m 43,4 km/h (6 Bft) SW 227 0 min 0,000 mm 0,0 UV-I 0 W/m 18,3 C 23,1 C 64,4 km/h (8 Bft) 100,00 %
25.06.2016 19:34 25,6 C 61 % 1007,3 hPa 0,0 l/m 44,0 km/h (6 Bft) W-SW 258 0 min 0,000 mm 0,0 UV-I 0 W/m 17,5 C 21,9 C 72,4 km/h (8 Bft) 97,44 %
25.06.2016 19:36 24,5 C 64 % 1007,3 hPa 0,0 l/m 50,9 km/h (7 Bft) W-SW 250 0 min 0,000 mm 0,0 UV-I 3 W/m 17,2 C 19,9 C 75,6 km/h (9 Bft) 100,00 %
25.06.2016 19:38 23,8 C 66 % 1007,6 hPa 0,0 l/m 39,9 km/h (6 Bft) SW 219 0 min 0,000 mm 0,0 UV-I 5 W/m 17,1 C 19,4 C 51,5 km/h (7 Bft) 100,00 %
25.06.2016 19:40 23,1 C 68 % 1007,6 hPa 0,0 l/m 35,5 km/h (5 Bft) W 269 0 min 0,000 mm 0,0 UV-I 0 W/m 16,9 C 18,6 C 51,5 km/h (7 Bft) 96,61 %
25.06.2016 19:42 22,6 C 69 % 1007,7 hPa 0,0 l/m 39,8 km/h (6 Bft) W 263 0 min 0,000 mm 0,0 UV-I 0 W/m 16,6 C 17,6 C 64,4 km/h (8 Bft) 100,00 %
25.06.2016 19:44 22,2 C 70 % 1007,9 hPa 0,0 l/m 37,4 km/h (5 Bft) SW 232 0 min 0,000 mm 0,0 UV-I 0 W/m 16,5 C 17,2 C 59,5 km/h (7 Bft) 100,00 %
25.06.2016 19:46 21,8 C 72 % 1008,0 hPa 0,0 l/m 38,9 km/h (6 Bft) W-SW 250 0 min 0,000 mm 0,0 UV-I 0 W/m 16,5 C 16,5 C 51,5 km/h (7 Bft) 100,00 %
25.06.2016 19:48 21,4 C 75 % 1008,4 hPa 0,0 l/m 26,8 km/h (4 Bft) SW 225 0 min 0,000 mm 0,0 UV-I 0 W/m 16,8 C 17,1 C 45,1 km/h (6 Bft) 97,37 %
25.06.2016 19:50 21,0 C 76 % 1008,3 hPa 0,0 l/m 37,7 km/h (5 Bft) W-SW 255 0 min 0,000 mm 0,0 UV-I 0 W/m 16,6 C 15,4 C 51,5 km/h (7 Bft) 100,00 %
25.06.2016 19:52 20,7 C 78 % 1008,1 hPa 0,0 l/m 40,1 km/h (6 Bft) SW 216 0 min 0,000 mm 0,0 UV-I 0 W/m 16,7 C 14,8 C 61,2 km/h (7 Bft) 100,00 %
25.06.2016 19:54 20,4 C 80 % 1008,2 hPa 0,0 l/m 32,4 km/h (5 Bft) W-SW 238 0 min 0,000 mm 0,0 UV-I 0 W/m 16,8 C 15,0 C 56,3 km/h (7 Bft) 98,21 %
25.06.2016 19:56 20,1 C 81 % 1008,3 hPa 0,0 l/m 36,6 km/h (5 Bft) W-SW 246 0 min 0,000 mm 0,0 UV-I 0 W/m 16,7 C 14,2 C 49,9 km/h (6 Bft) 100,00 %
25.06.2016 19:58 19,9 C 82 % 1008,5 hPa 0,0 l/m 36,5 km/h (5 Bft) W-SW 248 0 min 0,000 mm 0,0 UV-I 0 W/m 16,7 C 13,9 C 54,7 km/h (7 Bft) 100,00 %
25.06.2016 20:00 19,7 C 83 % 1009,0 hPa 0,0 l/m 32,5 km/h (5 Bft) SW 235 0 min 0,101 mm 0,0 UV-I 0 W/m 16,7 C 14,0 C 53,1 km/h (7 Bft) 100,00 %
25.06.2016 20:02 19,6 C 83 % 1009,2 hPa 0,0 l/m 32,0 km/h (5 Bft) W-SW 252 0 min 0,000 mm 0,0 UV-I 0 W/m 16,6 C 13,9 C 49,9 km/h (6 Bft) 100,00 %
25.06.2016 20:03 19,5 C 84 % 1009,2 hPa 0,0 l/m 28,2 km/h (4 Bft) S-SW 200 0 min 0,000 mm 0,0 UV-I 0 W/m 16,7 C 14,2 C 38,6 km/h (5 Bft) 100,00 %
25.06.2016 20:04 19,4 C 84 % 1009,4 hPa 0,0 l/m 23,7 km/h (4 Bft) W-SW 255 0 min 0,000 mm 0,0 UV-I 0 W/m 16,6 C 14,8 C 32,2 km/h (5 Bft) 96,55 %
25.06.2016 20:05 19,4 C 85 % 1009,3 hPa 0,0 l/m 24,8 km/h (4 Bft) W 269 0 min 0,000 mm 0,0 UV-I 0 W/m 16,8 C 14,6 C 37,0 km/h (5 Bft) 100,00 %
25.06.2016 20:06 19,3 C 85 % 1009,4 hPa 0,0 l/m 26,7 km/h (4 Bft) W-SW 248 0 min 0,000 mm 0,0 UV-I 0 W/m 16,7 C 14,2 C 33,8 km/h (5 Bft) 94,12 %
25.06.2016 20:07 19,3 C 85 % 1009,5 hPa 0,0 l/m 27,2 km/h (4 Bft) W-SW 254 0 min 0,000 mm 0,0 UV-I 0 W/m 16,7 C 14,1 C 33,8 km/h (5 Bft) 100,00 %
25.06.2016 20:08 19,3 C 86 % 1009,6 hPa 0,0 l/m 19,4 km/h (3 Bft) SW 222 0 min 0,000 mm 0,0 UV-I 0 W/m 16,9 C 15,4 C 24,1 km/h (4 Bft) 100,00 %
25.06.2016 20:09 19,2 C 86 % 1009,7 hPa 0,0 l/m 20,4 km/h (4 Bft) W 261 0 min 0,000 mm 0,0 UV-I 0 W/m 16,8 C 15,1 C 27,4 km/h (4 Bft) 100,00 %
25.06.2016 20:10 19,2 C 86 % 1009,8 hPa 0,0 l/m 21,3 km/h (4 Bft) W-SW 238 0 min 0,000 mm 0,0 UV-I 0 W/m 16,8 C 14,9 C 30,6 km/h (5 Bft) 100,00 %
25.06.2016 20:11 19,2 C 87 % 1009,9 hPa 0,0 l/m 20,7 km/h (4 Bft) W-SW 238 0 min 0,000 mm 0,0 UV-I 0 W/m 17,0 C 15,0 C 32,2 km/h (5 Bft) 100,00 %
25.06.2016 20:12 19,2 C 87 % 1009,9 hPa 0,0 l/m 15,9 km/h (3 Bft) W-SW 244 0 min 0,000 mm 0,0 UV-I 0 W/m 17,0 C 16,1 C 22,5 km/h (4 Bft) 100,00 %
25.06.2016 20:13 19,2 C 87 % 1010,0 hPa 0,0 l/m 17,3 km/h (3 Bft) W 259 0 min 0,000 mm 0,0 UV-I 0 W/m 17,0 C 15,7 C 25,7 km/h (4 Bft) 100,00 %
25.06.2016 20:14 19,2 C 87 % 1010,1 hPa 0,0 l/m 16,9 km/h (3 Bft) SW 221 0 min 0,000 mm 0,0 UV-I 0 W/m 17,0 C 15,8 C 20,9 km/h (4 Bft) 100,00 %
25.06.2016 20:15 19,2 C 87 % 1010,1 hPa 0,0 l/m 18,6 km/h (3 Bft) W-SW 252 0 min 0,000 mm 0,0 UV-I 0 W/m 17,0 C 15,5 C 29,0 km/h (5 Bft) 100,00 %
25.06.2016 20:16 19,2 C 87 % 1010,1 hPa 0,0 l/m 14,5 km/h (3 Bft) N-NW 337 0 min 0,000 mm 0,0 UV-I 0 W/m 17,0 C 16,4 C 22,5 km/h (4 Bft) 95,83 %
25.06.2016 20:17 19,2 C 87 % 1010,3 hPa 0,0 l/m 18,6 km/h (3 Bft) W-SW 237 0 min 0,000 mm 0,0 UV-I 0 W/m 17,0 C 15,5 C 22,5 km/h (4 Bft) 96,15 %
25.06.2016 20:18 19,2 C 87 % 1010,3 hPa 0,0 l/m 21,1 km/h (4 Bft) W 260 0 min 0,000 mm 0,0 UV-I 0 W/m 17,0 C 15,0 C 27,4 km/h (4 Bft) 100,00 %
25.06.2016 20:19 19,2 C 87 % 1010,4 hPa 0,0 l/m 13,7 km/h (3 Bft) W-SW 238 0 min 0,000 mm 0,0 UV-I 0 W/m 17,0 C 16,6 C 24,1 km/h (4 Bft) 100,00 %
25.06.2016 20:20 19,1 C 87 % 1010,5 hPa 0,0 l/m 12,4 km/h (3 Bft) W 263 0 min 0,000 mm 0,0 UV-I 0 W/m 16,9 C 16,9 C 19,3 km/h (3 Bft) 100,00 %
25.06.2016 20:21 19,1 C 87 % 1010,5 hPa 0,0 l/m 13,1 km/h (3 Bft) W 261 0 min 0,000 mm 0,0 UV-I 0 W/m 16,9 C 16,7 C 16,1 km/h (3 Bft) 100,00 %
25.06.2016 20:22 19,1 C 87 % 1010,6 hPa 0,0 l/m 16,2 km/h (3 Bft) W-SW 244 0 min 0,000 mm 0,0 UV-I 0 W/m 16,9 C 15,9 C 20,9 km/h (4 Bft) 100,00 %
25.06.2016 20:23 19,1 C 87 % 1010,7 hPa 0,0 l/m 9,8 km/h (2 Bft) W-NW 292 0 min 0,000 mm 0,0 UV-I 0 W/m 16,9 C 17,7 C 17,7 km/h (3 Bft) 96,55 %
25.06.2016 20:24 19,1 C 88 % 1010,7 hPa 0,0 l/m 9,7 km/h (2 Bft) W-SW 256 0 min 0,000 mm 0,0 UV-I 0 W/m 17,1 C 17,8 C 16,1 km/h (3 Bft) 100,00 %
25.06.2016 20:25 19,1 C 88 % 1010,8 hPa 0,0 l/m 7,0 km/h (2 Bft) SW 216 0 min 0,000 mm 0,0 UV-I 0 W/m 17,1 C 18,8 C 17,7 km/h (3 Bft) 100,00 %
25.06.2016 20:26 19,1 C 87 % 1010,8 hPa 0,0 l/m 8,6 km/h (2 Bft) W-SW 257 0 min 0,000 mm 0,0 UV-I 0 W/m 16,9 C 18,2 C 16,1 km/h (3 Bft) 100,00 %
25.06.2016 20:27 19,1 C 88 % 1010,8 hPa 0,0 l/m 5,9 km/h (2 Bft) W-NW 298 0 min 0,000 mm 0,0 UV-I 0 W/m 17,1 C 19,1 C 12,9 km/h (3 Bft) 91,30 %
25.06.2016 20:28 19,1 C 88 % 1010,9 hPa 0,0 l/m 4,9 km/h (1 Bft) W-SW 258 0 min 0,000 mm 0,0 UV-I 0 W/m 17,1 C 19,1 C 11,3 km/h (2 Bft) 100,00 %
25.06.2016 20:29 19,1 C 88 % 1010,8 hPa 0,2 l/m 5,6 km/h (1 Bft) W-SW 240 0 min 0,000 mm 0,0 UV-I 0 W/m 17,1 C 19,1 C 8,0 km/h (2 Bft) 96,15 %
25.06.2016 20:30 19,1 C 88 % 1010,9 hPa 0,0 l/m 8,4 km/h (2 Bft) W-SW 248 0 min 0,000 mm 0,0 UV-I 0 W/m 17,1 C 18,2 C 11,3 km/h (2 Bft) 96,67 %
25.06.2016 20:31 19,1 C 88 % 1011,0 hPa 0,0 l/m 7,1 km/h (2 Bft) NW 304 0 min 0,000 mm 0,0 UV-I 0 W/m 17,1 C 18,8 C 12,9 km/h (3 Bft) 100,00 %
25.06.2016 20:32 19,1 C 88 % 1011,0 hPa 0,0 l/m 7,1 km/h (2 Bft) W-NW 292 0 min 0,000 mm 0,0 UV-I 0 W/m 17,1 C 18,8 C 11,3 km/h (2 Bft) 95,83 %
25.06.2016 20:33 19,0 C 88 % 1011,0 hPa 0,0 l/m 4,7 km/h (1 Bft) W 277 0 min 0,000 mm 0,0 UV-I 0 W/m 17,0 C 19,0 C 9,7 km/h (2 Bft) 100,00 %
25.06.2016 20:34 19,0 C 88 % 1011,1 hPa 0,0 l/m 9,3 km/h (2 Bft) W-NW 300 0 min 0,000 mm 0,0 UV-I 0 W/m 17,0 C 17,8 C 16,1 km/h (3 Bft) 91,30 %
25.06.2016 20:35 19,0 C 88 % 1011,1 hPa 0,0 l/m 5,9 km/h (2 Bft) NW 315 0 min 0,000 mm 0,0 UV-I 0 W/m 17,0 C 19,0 C 11,3 km/h (2 Bft) 100,00 %
25.06.2016 20:36 18,9 C 88 % 1011,2 hPa 0,0 l/m 3,6 km/h (1 Bft) N 355 0 min 0,000 mm 0,0 UV-I 0 W/m 16,9 C 18,9 C 6,4 km/h (2 Bft) 95,65 %
25.06.2016 20:37 18,9 C 88 % 1011,2 hPa 0,0 l/m 2,3 km/h (1 Bft) NW 326 0 min 0,000 mm 0,0 UV-I 0 W/m 16,9 C 18,9 C 6,4 km/h (2 Bft) 100,00 %
25.06.2016 20:38 18,9 C 88 % 1011,4 hPa 0,0 l/m 1,2 km/h (1 Bft) NW 325 0 min 0,000 mm 0,0 UV-I 0 W/m 16,9 C 18,9 C 3,2 km/h (1 Bft) 91,30 %
25.06.2016 20:39 18,9 C 88 % 1011,4 hPa 0,2 l/m 1,9 km/h (1 Bft) W-NW 297 0 min 0,000 mm 0,0 UV-I 0 W/m 16,9 C 18,9 C 3,2 km/h (1 Bft) 93,33 %
25.06.2016 20:40 18,9 C 88 % 1011,5 hPa 0,0 l/m 3,2 km/h (1 Bft) N 5 0 min 0,000 mm 0,0 UV-I 0 W/m 16,9 C 18,9 C 4,8 km/h (1 Bft) 90,91 %
25.06.2016 20:41 18,8 C 88 % 1011,6 hPa 0,0 l/m 3,5 km/h (1 Bft) NW 325 0 min 0,000 mm 0,0 UV-I 0 W/m 16,8 C 18,8 C 8,0 km/h (2 Bft) 96,30 %
25.06.2016 20:42 18,8 C 88 % 1011,7 hPa 0,0 l/m 3,8 km/h (1 Bft) N-NW 344 0 min 0,000 mm 0,0 UV-I 0 W/m 16,8 C 18,8 C 6,4 km/h (2 Bft) 100,00 %
25.06.2016 20:43 18,8 C 88 % 1011,8 hPa 0,0 l/m 3,6 km/h (1 Bft) N-NW 336 0 min 0,000 mm 0,0 UV-I 0 W/m 16,8 C 18,8 C 6,4 km/h (2 Bft) 95,83 %
25.06.2016 20:44 18,8 C 88 % 1011,9 hPa 0,2 l/m 3,4 km/h (1 Bft) N-NW 327 0 min 0,000 mm 0,0 UV-I 0 W/m 16,8 C 18,8 C 6,4 km/h (2 Bft) 100,00 %
25.06.2016 20:45 18,8 C 88 % 1011,9 hPa 0,2 l/m 1,8 km/h (1 Bft) N 5 0 min 0,000 mm 0,0 UV-I 0 W/m 16,8 C 18,8 C 4,8 km/h (1 Bft) 95,83 %
25.06.2016 20:46 18,8 C 88 % 1011,8 hPa 0,2 l/m 3,7 km/h (1 Bft) N-NW 338 0 min 0,000 mm 0,0 UV-I 0 W/m 16,8 C 18,8 C 4,8 km/h (1 Bft) 100,00 %
25.06.2016 20:47 18,8 C 88 % 1011,8 hPa 0,6 l/m 3,6 km/h (1 Bft) N-NW 342 0 min 0,000 mm 0,0 UV-I 0 W/m 16,8 C 18,8 C 6,4 km/h (2 Bft) 96,55 %
25.06.2016 20:48 18,7 C 88 % 1011,8 hPa 0,4 l/m 2,3 km/h (1 Bft) NW 310 0 min 0,000 mm 0,0 UV-I 0 W/m 16,7 C 18,7 C 4,8 km/h (1 Bft) 96,15 %
25.06.2016 20:49 18,7 C 88 % 1011,8 hPa 0,2 l/m 5,5 km/h (1 Bft) W-NW 301 0 min 0,000 mm 0,0 UV-I 0 W/m 16,7 C 18,7 C 8,0 km/h (2 Bft) 100,00 %
25.06.2016 20:50 18,7 C 88 % 1011,8 hPa 0,2 l/m 8,6 km/h (2 Bft) NW 306 0 min 0,000 mm 0,0 UV-I 0 W/m 16,7 C 17,7 C 14,5 km/h (3 Bft) 97,14 %
25.06.2016 20:51 18,6 C 88 % 1011,8 hPa 0,0 l/m 5,5 km/h (1 Bft) S-SW 212 0 min 0,000 mm 0,0 UV-I 0 W/m 16,6 C 18,6 C 9,7 km/h (2 Bft) 100,00 %
25.06.2016 20:52 18,6 C 88 % 1011,8 hPa 0,0 l/m 4,7 km/h (1 Bft) W-NW 296 0 min 0,000 mm 0,0 UV-I 0 W/m 16,6 C 18,6 C 8,0 km/h (2 Bft) 91,67 %
25.06.2016 20:53 18,6 C 89 % 1011,9 hPa 0,2 l/m 7,4 km/h (2 Bft) W-NW 292 0 min 0,000 mm 0,0 UV-I 0 W/m 16,7 C 18,1 C 11,3 km/h (2 Bft) 96,88 %
25.06.2016 20:54 18,6 C 88 % 1011,8 hPa 0,0 l/m 4,2 km/h (1 Bft) W-NW 291 0 min 0,000 mm 0,0 UV-I 0 W/m 16,6 C 18,6 C 9,7 km/h (2 Bft) 96,30 %
25.06.2016 20:55 18,5 C 88 % 1011,9 hPa 0,2 l/m 6,8 km/h (2 Bft) W-SW 258 0 min 0,000 mm 0,0 UV-I 0 W/m 16,5 C 18,3 C 12,9 km/h (3 Bft) 96,15 %
25.06.2016 20:56 18,5 C 89 % 1011,9 hPa 0,0 l/m 7,7 km/h (2 Bft) SW 232 0 min 0,000 mm 0,0 UV-I 0 W/m 16,7 C 17,9 C 11,3 km/h (2 Bft) 100,00 %
25.06.2016 20:57 18,4 C 89 % 1012,0 hPa 0,2 l/m 7,0 km/h (2 Bft) W-SW 255 0 min 0,000 mm 0,0 UV-I 0 W/m 16,6 C 18,1 C 8,0 km/h (2 Bft) 100,00 %
25.06.2016 20:58 18,4 C 89 % 1012,1 hPa 0,0 l/m 5,4 km/h (1 Bft) W-SW 241 0 min 0,000 mm 0,0 UV-I 0 W/m 16,6 C 18,4 C 9,7 km/h (2 Bft) 97,62 %
25.06.2016 20:59 18,4 C 89 % 1012,2 hPa 0,0 l/m 4,3 km/h (1 Bft) W 270 0 min 0,000 mm 0,0 UV-I 0 W/m 16,6 C 18,4 C 6,4 km/h (2 Bft) 92,86 %
25.06.2016 21:00 18,4 C 89 % 1012,2 hPa 0,0 l/m 4,8 km/h (1 Bft) W-NW 300 0 min 0,000 mm 0,0 UV-I 0 W/m 16,6 C 18,4 C 6,4 km/h (2 Bft) 100,00 %
25.06.2016 21:01 18,4 C 89 % 1012,3 hPa 0,2 l/m 2,5 km/h (1 Bft) W 281 0 min 0,026 mm 0,0 UV-I 0 W/m 16,6 C 18,4 C 4,8 km/h (1 Bft) 100,00 %
25.06.2016 21:02 18,4 C 89 % 1012,4 hPa 0,0 l/m 1,5 km/h (1 Bft) W 281 0 min 0,000 mm 0,0 UV-I 0 W/m 16,6 C 18,4 C 3,2 km/h (1 Bft) 100,00 %
25.06.2016 21:03 18,4 C 90 % 1012,4 hPa 0,0 l/m 2,2 km/h (1 Bft) W-NW 286 0 min 0,000 mm 0,0 UV-I 0 W/m 16,7 C 18,4 C 3,2 km/h (1 Bft) 100,00 %
25.06.2016 21:04 18,4 C 90 % 1012,4 hPa 0,0 l/m 1,9 km/h (1 Bft) W-NW 286 0 min 0,000 mm 0,0 UV-I 0 W/m 16,7 C 18,4 C 3,2 km/h (1 Bft) 100,00 %
25.06.2016 21:05 18,3 C 90 % 1012,4 hPa 0,0 l/m 2,1 km/h (1 Bft) W-NW 286 0 min 0,000 mm 0,0 UV-I 0 W/m 16,6 C 18,3 C 3,2 km/h (1 Bft) 96,55 %
25.06.2016 21:06 18,3 C 90 % 1012,5 hPa 0,0 l/m 0,4 km/h (0 Bft) W-NW 286 0 min 0,000 mm 0,0 UV-I 0 W/m 16,6 C 18,3 C 1,6 km/h (1 Bft) 100,00 %
25.06.2016 21:07 18,3 C 90 % 1012,5 hPa 0,0 l/m 5,8 km/h (2 Bft) W-NW 284 0 min 0,000 mm 0,0 UV-I 0 W/m 16,6 C 18,3 C 14,5 km/h (3 Bft) 95,65 %
25.06.2016 21:08 18,3 C 90 % 1012,5 hPa 0,2 l/m 3,4 km/h (1 Bft) N-NW 336 0 min 0,000 mm 0,0 UV-I 0 W/m 16,6 C 18,3 C 6,4 km/h (2 Bft) 100,00 %
25.06.2016 21:09 18,3 C 90 % 1012,6 hPa 0,0 l/m 0,1 km/h (0 Bft) N-NW 336 0 min 0,000 mm 0,0 UV-I 0 W/m 16,6 C 18,3 C 1,6 km/h (1 Bft) 100,00 %
25.06.2016 21:10 18,3 C 90 % 1012,6 hPa 0,0 l/m 0,8 km/h (0 Bft) N-NW 336 0 min 0,000 mm 0,0 UV-I 0 W/m 16,6 C 18,3 C 3,2 km/h (1 Bft) 100,00 %
25.06.2016 21:11 18,3 C 90 % 1012,7 hPa 0,2 l/m 1,7 km/h (1 Bft) NW 311 0 min 0,000 mm 0,0 UV-I 0 W/m 16,6 C 18,3 C 3,2 km/h (1 Bft) 96,30 %
25.06.2016 21:12 18,3 C 90 % 1012,7 hPa 0,0 l/m 2,6 km/h (1 Bft) W-NW 298 0 min 0,000 mm 0,0 UV-I 0 W/m 16,6 C 18,3 C 3,2 km/h (1 Bft) 100,00 %
25.06.2016 21:13 18,3 C 90 % 1012,7 hPa 0,0 l/m 3,5 km/h (1 Bft) W 269 0 min 0,000 mm 0,0 UV-I 0 W/m 16,6 C 18,3 C 4,8 km/h (1 Bft) 96,30 %
25.06.2016 21:14 18,3 C 90 % 1012,7 hPa 0,0 l/m 3,9 km/h (1 Bft) SW 236 0 min 0,000 mm 0,0 UV-I 0 W/m 16,6 C 18,3 C 4,8 km/h (1 Bft) 95,65 %
25.06.2016 21:15 18,3 C 91 % 1012,7 hPa 0,2 l/m 4,4 km/h (1 Bft) W-SW 244 0 min 0,000 mm 0,0 UV-I 0 W/m 16,8 C 18,3 C 6,4 km/h (2 Bft) 100,00 %
25.06.2016 21:16 18,3 C 91 % 1012,7 hPa 0,0 l/m 6,9 km/h (2 Bft) W-SW 243 0 min 0,000 mm 0,0 UV-I 0 W/m 16,8 C 18,1 C 11,3 km/h (2 Bft) 100,00 %
25.06.2016 21:17 18,3 C 91 % 1012,6 hPa 0,0 l/m 6,2 km/h (2 Bft) W 263 0 min 0,000 mm 0,0 UV-I 0 W/m 16,8 C 18,3 C 8,0 km/h (2 Bft) 95,83 %
25.06.2016 21:18 18,3 C 91 % 1012,7 hPa 0,0 l/m 7,3 km/h (2 Bft) W-SW 257 0 min 0,000 mm 0,0 UV-I 0 W/m 16,8 C 17,9 C 11,3 km/h (2 Bft) 100,00 %
25.06.2016 21:19 18,3 C 91 % 1012,6 hPa 0,0 l/m 5,9 km/h (2 Bft) W 259 0 min 0,000 mm 0,0 UV-I 0 W/m 16,8 C 18,3 C 6,4 km/h (2 Bft) 100,00 %
25.06.2016 21:20 18,3 C 91 % 1012,6 hPa 0,2 l/m 8,9 km/h (2 Bft) W-SW 252 0 min 0,000 mm 0,0 UV-I 0 W/m 16,8 C 17,2 C 11,3 km/h (2 Bft) 100,00 %
25.06.2016 21:21 18,3 C 91 % 1012,6 hPa 0,0 l/m 10,7 km/h (2 Bft) SW 229 0 min 0,000 mm 0,0 UV-I 0 W/m 16,8 C 16,5 C 14,5 km/h (3 Bft) 100,00 %
25.06.2016 21:22 18,2 C 92 % 1012,6 hPa 0,0 l/m 10,8 km/h (2 Bft) W-SW 244 0 min 0,000 mm 0,0 UV-I 0 W/m 16,9 C 16,4 C 14,5 km/h (3 Bft) 96,15 %
25.06.2016 21:23 18,2 C 92 % 1012,5 hPa 0,0 l/m 13,7 km/h (3 Bft) W-SW 251 0 min 0,000 mm 0,0 UV-I 0 W/m 16,9 C 15,4 C 19,3 km/h (3 Bft) 100,00 %
25.06.2016 21:24 18,2 C 92 % 1012,6 hPa 0,0 l/m 13,9 km/h (3 Bft) W 265 0 min 0,000 mm 0,0 UV-I 0 W/m 16,9 C 15,4 C 19,3 km/h (3 Bft) 100,00 %
25.06.2016 21:25 18,2 C 92 % 1012,6 hPa 0,0 l/m 12,3 km/h (3 Bft) W-SW 249 0 min 0,000 mm 0,0 UV-I 0 W/m 16,9 C 15,9 C 16,1 km/h (3 Bft) 100,00 %
25.06.2016 21:26 18,2 C 92 % 1012,6 hPa 0,0 l/m 15,6 km/h (3 Bft) W 260 0 min 0,000 mm 0,0 UV-I 0 W/m 16,9 C 14,9 C 20,9 km/h (4 Bft) 96,15 %
25.06.2016 21:27 18,2 C 92 % 1012,6 hPa 0,0 l/m 13,6 km/h (3 Bft) W-SW 248 0 min 0,000 mm 0,0 UV-I 0 W/m 16,9 C 15,5 C 17,7 km/h (3 Bft) 100,00 %
25.06.2016 21:28 18,1 C 92 % 1012,6 hPa 0,0 l/m 15,6 km/h (3 Bft) W 262 0 min 0,000 mm 0,0 UV-I 0 W/m 16,8 C 14,8 C 20,9 km/h (4 Bft) 100,00 %
25.06.2016 21:29 18,1 C 92 % 1012,6 hPa 0,0 l/m 14,0 km/h (3 Bft) SW 236 0 min 0,000 mm 0,0 UV-I 0 W/m 16,8 C 15,2 C 19,3 km/h (3 Bft) 100,00 %
25.06.2016 21:30 18,1 C 92 % 1012,6 hPa 0,0 l/m 15,1 km/h (3 Bft) W 269 0 min 0,000 mm 0,0 UV-I 0 W/m 16,8 C 14,9 C 17,7 km/h (3 Bft) 95,65 %
25.06.2016 21:31 18,1 C 92 % 1012,6 hPa 0,0 l/m 16,5 km/h (3 Bft) W-SW 255 0 min 0,000 mm 0,0 UV-I 0 W/m 16,8 C 14,6 C 22,5 km/h (4 Bft) 100,00 %
25.06.2016 21:32 18,0 C 92 % 1012,6 hPa 0,0 l/m 14,6 km/h (3 Bft) W 261 0 min 0,000 mm 0,0 UV-I 0 W/m 16,7 C 14,9 C 19,3 km/h (3 Bft) 100,00 %
25.06.2016 21:33 18,0 C 92 % 1012,7 hPa 0,0 l/m 10,8 km/h (2 Bft) W-SW 241 0 min 0,000 mm 0,0 UV-I 0 W/m 16,7 C 16,1 C 17,7 km/h (3 Bft) 100,00 %
25.06.2016 21:34 18,0 C 92 % 1012,8 hPa 0,0 l/m 11,9 km/h (2 Bft) W 278 0 min 0,000 mm 0,0 UV-I 0 W/m 16,7 C 15,8 C 17,7 km/h (3 Bft) 100,00 %
25.06.2016 21:35 18,0 C 92 % 1012,8 hPa 0,0 l/m 11,6 km/h (2 Bft) W-SW 252 0 min 0,000 mm 0,0 UV-I 0 W/m 16,7 C 15,9 C 16,1 km/h (3 Bft) 96,15 %
25.06.2016 21:36 18,0 C 92 % 1012,8 hPa 0,0 l/m 10,1 km/h (2 Bft) SW 215 0 min 0,000 mm 0,0 UV-I 0 W/m 16,7 C 16,4 C 19,3 km/h (3 Bft) 100,00 %
25.06.2016 21:37 17,9 C 92 % 1012,9 hPa 0,0 l/m 13,5 km/h (3 Bft) W-SW 244 0 min 0,000 mm 0,0 UV-I 0 W/m 16,6 C 15,1 C 17,7 km/h (3 Bft) 96,43 %
25.06.2016 21:38 17,9 C 92 % 1012,8 hPa 0,0 l/m 11,9 km/h (2 Bft) S-SW 209 0 min 0,000 mm 0,0 UV-I 0 W/m 16,6 C 15,6 C 14,5 km/h (3 Bft) 100,00 %
25.06.2016 21:39 18,0 C 92 % 1012,9 hPa 0,0 l/m 13,0 km/h (3 Bft) S-SW 202 0 min 0,000 mm 0,0 UV-I 0 W/m 16,7 C 15,4 C 17,7 km/h (3 Bft) 100,00 %
25.06.2016 21:40 18,0 C 92 % 1012,9 hPa 0,0 l/m 13,5 km/h (3 Bft) SW 232 0 min 0,000 mm 0,0 UV-I 0 W/m 16,7 C 15,3 C 20,9 km/h (4 Bft) 100,00 %
25.06.2016 21:41 17,9 C 92 % 1013,0 hPa 0,0 l/m 13,4 km/h (3 Bft) W-SW 250 0 min 0,000 mm 0,0 UV-I 0 W/m 16,6 C 15,2 C 17,7 km/h (3 Bft) 100,00 %
25.06.2016 21:42 17,9 C 92 % 1012,9 hPa 0,0 l/m 10,0 km/h (2 Bft) W-SW 257 0 min 0,000 mm 0,0 UV-I 0 W/m 16,6 C 16,3 C 12,9 km/h (3 Bft) 100,00 %
25.06.2016 21:43 17,9 C 92 % 1012,8 hPa 0,0 l/m 14,1 km/h (3 Bft) W 267 0 min 0,000 mm 0,0 UV-I 0 W/m 16,6 C 15,0 C 20,9 km/h (4 Bft) 100,00 %
25.06.2016 21:44 17,9 C 92 % 1012,8 hPa 0,0 l/m 16,5 km/h (3 Bft) W-SW 252 0 min 0,000 mm 0,0 UV-I 0 W/m 16,6 C 14,3 C 22,5 km/h (4 Bft) 100,00 %
25.06.2016 21:45 17,9 C 92 % 1012,9 hPa 0,0 l/m 12,6 km/h (3 Bft) W-SW 253 0 min 0,000 mm 0,0 UV-I 0 W/m 16,6 C 15,4 C 17,7 km/h (3 Bft) 100,00 %
25.06.2016 21:46 17,9 C 92 % 1012,9 hPa 0,0 l/m 12,1 km/h (2 Bft) SW 225 0 min 0,000 mm 0,0 UV-I 0 W/m 16,6 C 15,6 C 16,1 km/h (3 Bft) 100,00 %
25.06.2016 21:47 17,9 C 92 % 1012,9 hPa 0,0 l/m 11,7 km/h (2 Bft) W-SW 242 0 min 0,000 mm 0,0 UV-I 0 W/m 16,6 C 15,7 C 17,7 km/h (3 Bft) 100,00 %
25.06.2016 21:48 17,9 C 92 % 1012,9 hPa 0,0 l/m 11,0 km/h (2 Bft) SW 233 0 min 0,000 mm 0,0 UV-I 0 W/m 16,6 C 16,0 C 12,9 km/h (3 Bft) 100,00 %
25.06.2016 21:49 17,9 C 92 % 1012,9 hPa 0,0 l/m 13,1 km/h (3 Bft) SW 234 0 min 0,000 mm 0,0 UV-I 0 W/m 16,6 C 15,3 C 17,7 km/h (3 Bft) 100,00 %
25.06.2016 21:50 17,9 C 92 % 1012,9 hPa 0,0 l/m 7,8 km/h (2 Bft) W 269 0 min 0,000 mm 0,0 UV-I 0 W/m 16,6 C 17,2 C 12,9 km/h (3 Bft) 100,00 %
25.06.2016 21:51 17,9 C 92 % 1013,0 hPa 0,0 l/m 12,2 km/h (2 Bft) SW 233 0 min 0,000 mm 0,0 UV-I 0 W/m 16,6 C 15,5 C 16,1 km/h (3 Bft) 96,15 %
25.06.2016 21:52 17,9 C 92 % 1012,9 hPa 0,0 l/m 9,7 km/h (2 Bft) W-SW 258 0 min 0,000 mm 0,0 UV-I 0 W/m 16,6 C 16,4 C 12,9 km/h (3 Bft) 98,71 %
25.06.2016 21:53 17,9 C 92 % 1012,9 hPa 0,2 l/m 12,5 km/h (3 Bft) W 267 0 min 0,000 mm 0,0 UV-I 0 W/m 16,6 C 15,4 C 14,5 km/h (3 Bft) 100,00 %
25.06.2016 21:54 17,9 C 92 % 1012,9 hPa 0,0 l/m 13,4 km/h (3 Bft) W-SW 237 0 min 0,000 mm 0,0 UV-I 0 W/m 16,6 C 15,2 C 17,7 km/h (3 Bft) 100,00 %
25.06.2016 21:56 17,9 C 92 % 1013,0 hPa 0,0 l/m 12,4 km/h (3 Bft) W 277 0 min 0,000 mm 0,0 UV-I 0 W/m 16,6 C 15,5 C 17,7 km/h (3 Bft) 100,00 %
25.06.2016 21:58 17,9 C 92 % 1013,0 hPa 0,0 l/m 14,6 km/h (3 Bft) W 259 0 min 0,000 mm 0,0 UV-I 0 W/m 16,6 C 14,8 C 20,9 km/h (4 Bft) 100,00 %
25.06.2016 22:00 17,8 C 92 % 1013,0 hPa 0,0 l/m 11,3 km/h (2 Bft) W-SW 238 0 min 0,000 mm 0,0 UV-I 0 W/m 16,5 C 15,7 C 20,9 km/h (4 Bft) 100,00 %
25.06.2016 22:02 17,8 C 92 % 1013,1 hPa 0,0 l/m 15,5 km/h (3 Bft) W 262 0 min 0,025 mm 0,0 UV-I 0 W/m 16,5 C 14,4 C 22,5 km/h (4 Bft) 100,00 %
25.06.2016 22:04 17,8 C 92 % 1013,1 hPa 0,0 l/m 13,0 km/h (3 Bft) W-SW 239 0 min 0,000 mm 0,0 UV-I 0 W/m 16,5 C 15,2 C 17,7 km/h (3 Bft) 95,45 %
25.06.2016 22:06 17,8 C 92 % 1013,2 hPa 0,0 l/m 12,4 km/h (3 Bft) S-SW 212 0 min 0,000 mm 0,0 UV-I 0 W/m 16,5 C 15,4 C 17,7 km/h (3 Bft) 98,11 %
25.06.2016 22:08 17,8 C 92 % 1013,2 hPa 0,0 l/m 12,7 km/h (3 Bft) W-SW 253 0 min 0,000 mm 0,0 UV-I 0 W/m 16,5 C 15,3 C 19,3 km/h (3 Bft) 100,00 %
25.06.2016 22:10 17,8 C 92 % 1013,2 hPa 0,0 l/m 14,0 km/h (3 Bft) SW 234 0 min 0,000 mm 0,0 UV-I 0 W/m 16,5 C 14,9 C 22,5 km/h (4 Bft) 100,00 %
25.06.2016 22:12 17,8 C 92 % 1013,2 hPa 0,0 l/m 10,7 km/h (2 Bft) W-SW 250 0 min 0,000 mm 0,0 UV-I 0 W/m 16,5 C 15,9 C 16,1 km/h (3 Bft) 100,00 %
25.06.2016 22:14 17,8 C 92 % 1013,2 hPa 0,0 l/m 12,5 km/h (3 Bft) SW 236 0 min 0,000 mm 0,0 UV-I 0 W/m 16,5 C 15,3 C 17,7 km/h (3 Bft) 100,00 %
25.06.2016 22:16 17,8 C 92 % 1013,1 hPa 0,0 l/m 13,5 km/h (3 Bft) W-SW 250 0 min 0,000 mm 0,0 UV-I 0 W/m 16,5 C 15,0 C 22,5 km/h (4 Bft) 100,00 %
25.06.2016 22:18 17,8 C 92 % 1013,1 hPa 0,0 l/m 12,1 km/h (2 Bft) W-SW 248 0 min 0,000 mm 0,0 UV-I 0 W/m 16,5 C 15,5 C 17,7 km/h (3 Bft) 100,00 %
25.06.2016 22:20 17,8 C 92 % 1013,1 hPa 0,0 l/m 10,7 km/h (2 Bft) W-SW 246 0 min 0,000 mm 0,0 UV-I 0 W/m 16,5 C 15,9 C 17,7 km/h (3 Bft) 100,00 %
25.06.2016 22:22 17,8 C 92 % 1013,1 hPa 0,0 l/m 12,2 km/h (2 Bft) SW 229 0 min 0,000 mm 0,0 UV-I 0 W/m 16,5 C 15,4 C 19,3 km/h (3 Bft) 98,31 %
25.06.2016 22:24 17,8 C 92 % 1013,1 hPa 0,0 l/m 8,5 km/h (2 Bft) W-SW 244 0 min 0,000 mm 0,0 UV-I 0 W/m 16,5 C 16,8 C 14,5 km/h (3 Bft) 100,00 %
25.06.2016 22:26 17,7 C 92 % 1013,1 hPa 0,0 l/m 7,3 km/h (2 Bft) S-SW 213 0 min 0,000 mm 0,0 UV-I 0 W/m 16,4 C 17,3 C 11,3 km/h (2 Bft) 97,87 %
25.06.2016 22:28 17,7 C 92 % 1013,1 hPa 0,0 l/m 9,9 km/h (2 Bft) SW 230 0 min 0,000 mm 0,0 UV-I 0 W/m 16,4 C 16,1 C 16,1 km/h (3 Bft) 98,00 %
25.06.2016 22:30 17,7 C 92 % 1013,1 hPa 0,0 l/m 8,4 km/h (2 Bft) S-SW 198 0 min 0,000 mm 0,0 UV-I 0 W/m 16,4 C 16,8 C 14,5 km/h (3 Bft) 96,00 %
25.06.2016 22:32 17,7 C 92 % 1013,1 hPa 0,0 l/m 8,9 km/h (2 Bft) SW 227 0 min 0,000 mm 0,0 UV-I 0 W/m 16,4 C 16,5 C 12,9 km/h (3 Bft) 97,37 %
25.06.2016 22:34 17,7 C 92 % 1013,2 hPa 0,0 l/m 8,0 km/h (2 Bft) S 185 0 min 0,000 mm 0,0 UV-I 0 W/m 16,4 C 16,9 C 12,9 km/h (3 Bft) 94,34 %
25.06.2016 22:36 17,7 C 92 % 1013,2 hPa 0,0 l/m 8,9 km/h (2 Bft) S-SW 211 0 min 0,000 mm 0,0 UV-I 0 W/m 16,4 C 16,5 C 12,9 km/h (3 Bft) 94,74 %
25.06.2016 22:38 17,7 C 92 % 1013,3 hPa 0,0 l/m 7,7 km/h (2 Bft) W-SW 241 0 min 0,000 mm 0,0 UV-I 0 W/m 16,4 C 17,1 C 12,9 km/h (3 Bft) 98,21 %
25.06.2016 22:40 17,7 C 92 % 1013,1 hPa 0,0 l/m 6,4 km/h (2 Bft) W-SW 238 0 min 0,000 mm 0,0 UV-I 0 W/m 16,4 C 17,7 C 11,3 km/h (2 Bft) 97,87 %
25.06.2016 22:42 17,7 C 92 % 1013,1 hPa 0,0 l/m 5,4 km/h (1 Bft) SW 221 0 min 0,000 mm 0,0 UV-I 0 W/m 16,4 C 17,7 C 11,3 km/h (2 Bft) 95,74 %
25.06.2016 22:44 17,7 C 92 % 1013,2 hPa 0,0 l/m 4,5 km/h (1 Bft) W-SW 254 0 min 0,000 mm 0,0 UV-I 0 W/m 16,4 C 17,7 C 8,0 km/h (2 Bft) 96,00 %
25.06.2016 22:46 17,6 C 92 % 1013,3 hPa 0,0 l/m 4,3 km/h (1 Bft) S-SW 207 0 min 0,000 mm 0,0 UV-I 0 W/m 16,3 C 17,6 C 8,0 km/h (2 Bft) 94,74 %
25.06.2016 22:48 17,7 C 92 % 1013,3 hPa 0,0 l/m 7,7 km/h (2 Bft) S-SW 212 0 min 0,000 mm 0,0 UV-I 0 W/m 16,4 C 17,1 C 11,3 km/h (2 Bft) 96,23 %
25.06.2016 22:50 17,7 C 92 % 1013,3 hPa 0,0 l/m 8,1 km/h (2 Bft) S-SO 167 0 min 0,000 mm 0,0 UV-I 0 W/m 16,4 C 16,9 C 11,3 km/h (2 Bft) 100,00 %
25.06.2016 22:52 17,7 C 92 % 1013,4 hPa 0,0 l/m 8,2 km/h (2 Bft) S-SW 196 0 min 0,000 mm 0,0 UV-I 0 W/m 16,4 C 16,8 C 11,3 km/h (2 Bft) 96,36 %
25.06.2016 22:54 17,7 C 92 % 1013,4 hPa 0,0 l/m 9,4 km/h (2 Bft) SW 215 0 min 0,000 mm 0,0 UV-I 0 W/m 16,4 C 16,3 C 14,5 km/h (3 Bft) 97,92 %
25.06.2016 22:56 17,7 C 92 % 1013,3 hPa 0,0 l/m 8,0 km/h (2 Bft) S-SO 168 0 min 0,000 mm 0,0 UV-I 0 W/m 16,4 C 16,9 C 11,3 km/h (2 Bft) 97,14 %
25.06.2016 22:58 17,7 C 92 % 1013,3 hPa 0,0 l/m 7,7 km/h (2 Bft) S-SO 159 0 min 0,000 mm 0,0 UV-I 0 W/m 16,4 C 17,1 C 11,3 km/h (2 Bft) 98,31 %
25.06.2016 23:00 17,7 C 92 % 1013,3 hPa 0,0 l/m 6,4 km/h (2 Bft) S 184 0 min 0,000 mm 0,0 UV-I 0 W/m 16,4 C 17,7 C 11,3 km/h (2 Bft) 100,00 %
25.06.2016 23:02 17,7 C 92 % 1013,3 hPa 0,0 l/m 7,3 km/h (2 Bft) S-SW 193 0 min 0,000 mm 0,0 UV-I 0 W/m 16,4 C 17,3 C 12,9 km/h (3 Bft) 98,00 %
25.06.2016 23:04 17,7 C 92 % 1013,1 hPa 0,0 l/m 6,2 km/h (2 Bft) S-SW 198 0 min 0,000 mm 0,0 UV-I 0 W/m 16,4 C 17,7 C 9,7 km/h (2 Bft) 100,00 %
25.06.2016 23:06 17,7 C 92 % 1013,1 hPa 0,0 l/m 8,3 km/h (2 Bft) S-SW 207 0 min 0,000 mm 0,0 UV-I 0 W/m 16,4 C 16,8 C 11,3 km/h (2 Bft) 100,00 %
25.06.2016 23:08 17,7 C 92 % 1013,1 hPa 0,0 l/m 6,7 km/h (2 Bft) SW 218 0 min 0,000 mm 0,0 UV-I 0 W/m 16,4 C 17,6 C 9,7 km/h (2 Bft) 100,00 %
25.06.2016 23:10 17,7 C 92 % 1013,1 hPa 0,0 l/m 9,0 km/h (2 Bft) S-SW 204 0 min 0,000 mm 0,0 UV-I 0 W/m 16,4 C 16,5 C 14,5 km/h (3 Bft) 98,11 %
25.06.2016 23:12 17,7 C 92 % 1013,0 hPa 0,0 l/m 7,8 km/h (2 Bft) S-SW 201 0 min 0,000 mm 0,0 UV-I 0 W/m 16,4 C 17,0 C 12,9 km/h (3 Bft) 100,00 %
25.06.2016 23:14 17,7 C 92 % 1013,1 hPa 0,0 l/m 10,2 km/h (2 Bft) S-SW 201 0 min 0,000 mm 0,0 UV-I 0 W/m 16,4 C 16,0 C 27,4 km/h (4 Bft) 100,00 %
25.06.2016 23:16 17,6 C 91 % 1013,1 hPa 0,0 l/m 12,6 km/h (3 Bft) S-SW 209 0 min 0,000 mm 0,0 UV-I 0 W/m 16,1 C 15,1 C 20,9 km/h (4 Bft) 97,73 %
25.06.2016 23:18 17,6 C 92 % 1013,1 hPa 0,0 l/m 13,8 km/h (3 Bft) S-SW 205 0 min 0,000 mm 0,0 UV-I 0 W/m 16,3 C 14,7 C 19,3 km/h (3 Bft) 98,21 %
25.06.2016 23:20 17,6 C 91 % 1013,1 hPa 0,0 l/m 13,5 km/h (3 Bft) SW 233 0 min 0,000 mm 0,0 UV-I 0 W/m 16,1 C 14,8 C 20,9 km/h (4 Bft) 100,00 %
25.06.2016 23:22 17,6 C 92 % 1013,0 hPa 0,0 l/m 10,4 km/h (2 Bft) W-SW 249 0 min 0,000 mm 0,0 UV-I 0 W/m 16,3 C 15,8 C 17,7 km/h (3 Bft) 100,00 %
25.06.2016 23:24 17,6 C 92 % 1013,0 hPa 0,0 l/m 9,3 km/h (2 Bft) S-SW 198 0 min 0,000 mm 0,0 UV-I 0 W/m 16,3 C 16,3 C 16,1 km/h (3 Bft) 100,00 %
25.06.2016 23:26 17,6 C 91 % 1013,0 hPa 0,0 l/m 8,7 km/h (2 Bft) SW 222 0 min 0,000 mm 0,0 UV-I 0 W/m 16,1 C 16,5 C 12,9 km/h (3 Bft) 100,00 %
25.06.2016 23:28 17,6 C 91 % 1013,0 hPa 0,0 l/m 10,9 km/h (2 Bft) S-SW 200 0 min 0,000 mm 0,0 UV-I 0 W/m 16,1 C 15,7 C 20,9 km/h (4 Bft) 100,00 %
25.06.2016 23:30 17,6 C 91 % 1013,1 hPa 0,0 l/m 9,3 km/h (2 Bft) S-SW 200 0 min 0,000 mm 0,0 UV-I 0 W/m 16,1 C 16,3 C 14,5 km/h (3 Bft) 100,00 %
25.06.2016 23:32 17,6 C 91 % 1013,0 hPa 0,0 l/m 9,5 km/h (2 Bft) S-SW 212 0 min 0,000 mm 0,0 UV-I 0 W/m 16,1 C 16,2 C 16,1 km/h (3 Bft) 98,08 %
25.06.2016 23:34 17,6 C 91 % 1013,0 hPa 0,0 l/m 9,9 km/h (2 Bft) S-SW 206 0 min 0,000 mm 0,0 UV-I 0 W/m 16,1 C 16,0 C 17,7 km/h (3 Bft) 100,00 %
25.06.2016 23:36 17,6 C 91 % 1013,1 hPa 0,0 l/m 12,2 km/h (2 Bft) S-SW 207 0 min 0,000 mm 0,0 UV-I 0 W/m 16,1 C 15,2 C 22,5 km/h (4 Bft) 100,00 %
25.06.2016 23:38 17,6 C 91 % 1013,1 hPa 0,0 l/m 9,6 km/h (2 Bft) SW 231 0 min 0,000 mm 0,0 UV-I 0 W/m 16,1 C 16,1 C 14,5 km/h (3 Bft) 100,00 %
25.06.2016 23:40 17,6 C 91 % 1013,1 hPa 0,0 l/m 12,0 km/h (2 Bft) SW 216 0 min 0,000 mm 0,0 UV-I 0 W/m 16,1 C 15,3 C 32,2 km/h (5 Bft) 100,00 %
25.06.2016 23:42 17,6 C 90 % 1013,1 hPa 0,0 l/m 11,1 km/h (2 Bft) S 173 0 min 0,000 mm 0,0 UV-I 0 W/m 15,9 C 15,6 C 19,3 km/h (3 Bft) 100,00 %
25.06.2016 23:44 17,6 C 90 % 1013,1 hPa 0,0 l/m 8,1 km/h (2 Bft) S 189 0 min 0,000 mm 0,0 UV-I 0 W/m 15,9 C 16,8 C 17,7 km/h (3 Bft) 100,00 %
25.06.2016 23:46 17,6 C 90 % 1013,2 hPa 0,0 l/m 12,1 km/h (2 Bft) S 186 0 min 0,000 mm 0,0 UV-I 0 W/m 15,9 C 15,2 C 20,9 km/h (4 Bft) 100,00 %
25.06.2016 23:48 17,6 C 90 % 1013,2 hPa 0,0 l/m 11,5 km/h (2 Bft) S-SW 200 0 min 0,000 mm 0,0 UV-I 0 W/m 15,9 C 15,4 C 19,3 km/h (3 Bft) 100,00 %
25.06.2016 23:50 17,7 C 90 % 1013,3 hPa 0,0 l/m 11,4 km/h (2 Bft) SW 227 0 min 0,000 mm 0,0 UV-I 0 W/m 16,0 C 15,6 C 17,7 km/h (3 Bft) 97,14 %
25.06.2016 23:52 17,7 C 90 % 1013,2 hPa 0,0 l/m 11,8 km/h (2 Bft) S-SW 209 0 min 0,000 mm 0,0 UV-I 0 W/m 16,0 C 15,4 C 17,7 km/h (3 Bft) 100,00 %
25.06.2016 23:54 17,7 C 90 % 1013,3 hPa 0,0 l/m 12,5 km/h (3 Bft) W-SW 245 0 min 0,000 mm 0,0 UV-I 0 W/m 16,0 C 15,2 C 22,5 km/h (4 Bft) 97,96 %
25.06.2016 23:56 17,7 C 90 % 1013,2 hPa 0,0 l/m 13,6 km/h (3 Bft) S 188 0 min 0,000 mm 0,0 UV-I 0 W/m 16,0 C 14,9 C 22,5 km/h (4 Bft) 100,00 %
25.06.2016 23:58 17,8 C 90 % 1013,4 hPa 0,0 l/m 12,4 km/h (3 Bft) S 187 0 min 0,000 mm 0,0 UV-I 0 W/m 16,1 C 15,4 C 22,5 km/h (4 Bft) 98,00 %
_ Min-Zeit 22:46 15:20 18:08 - 00:26 - - - - - - 23:42 19:58 00:26 20:40
Minimum _ 17,6 C 52 % 1004,4 hPa - 0,0 km/h (0 Bft) - - - - - - 15,9 C 13,9 C 0,0 km/h (0 Bft) 90,91 %
_ Max-Zeit 16:30 21:22 22:52 20:47 19:36 - - 05:18 14:00 12:28 13:10 17:46 16:30 19:36 00:00
Maximum _ 30,9 C 92 % 1013,4 hPa 0,6 l/m 50,9 km/h
W-SW (7 Bft)
- - 2 min 0,584 mm 6,8 UV-I 849 W/m 23,1 C 30,9 C 75,6 km/h
W (9 Bft)
100,00 %
Durchschnitt _ 23,9 C 75 % 1009,3 hPa #4,2 l/m 4,5 km/h (1 Bft) S-SW - #9:42 h #4,699 mm 4,0 UV-I 458 W/m 18,8 C 23,5 C 7,8 km/h (2 Bft) 98,71 %